Darstellungsparameter: Aktuell verwendete Einstellungen:
Skalierung der Graphiken ... ?
xyx+y,   Skalierungsfaktor:      Skalierung: Modus: x, Faktor: 1
Darstellungszeitraum ... ?
Vom - - bis: - -   Zeitraum: 13.10.2005 - 12.10.2015
Min/Max/Avg-Anzeige ... ?
Zeige MMA aktuell
Zeige MMA Monat
Zeige MMA alles
Zeige --A aktuell
Zeige --A Monat
Zeige --A alles
Keine MMA-Anzeige
MMA:
Average (ber die Originaldaten)
MMA-Basis: 13.10.2005 - 12.10.2015
Quicknavigation für Darstellung... ?
Tage:      1T, 2T, 3T, 5T -1T -2T -3T -5T +1T +2T +3T +5T
Wochen: 1W, 2W, 3W -1W -2W -3W +1W +2W +3W
Monate: 1M, 3M, 6M -1M -3M -6M +1M +3M +6M
Jahre:    1J, 3J, 5J, 10J -1J -3J -5J -10J +1J +3J +5J +10J
Nutze für die Darstellung ... ?
Originaldaten oder ...
Mittelwerte Minima Maxima auf...
Stundenbasis Tagesbasis Wochenbasis
Monatsbasis Jahresbasis      Datenbasis: Mittelwerte auf Tagesbasis
Darstellen als:
Statistik (Auto) Statistik J:M      Darstellung:
Zur Graphik,    zurück zur Übersicht aller Sensoren.
 
Tabellarische Datenbersicht: ?
 
Sensor: Nr:Datum:Temp:Abs-Feuchte:Windchill:Wind:
Aussen-T/F 1 13-10-2005 00:00:00 12.36181 C 8.52 g/m*3 12.36 C 0 km/h
2 14-10-2005 00:00:00 11.9951 C 8.33 g/m*3 12 C 0 km/h
3 15-10-2005 00:00:00 11.45174 C 8.2 g/m*3 11.45 C 0 km/h
4 16-10-2005 00:00:00 10.83472 C 7.4 g/m*3 10.83 C 0 km/h
5 17-10-2005 00:00:00 8.28194 C 5.72 g/m*3 8.28 C 0 km/h
6 18-10-2005 00:00:00 8.65749 C 5.37 g/m*3 8.66 C 0 km/h
7 19-10-2005 00:00:00 7.00417 C 6.38 g/m*3 7 C 0 km/h
8 20-10-2005 00:00:00 11.25382 C 9.08 g/m*3 11.25 C 0 km/h
9 21-10-2005 00:00:00 14.43681 C 10.35 g/m*3 14.44 C 0 km/h
10 22-10-2005 00:00:00 15.54896 C 10.18 g/m*3 15.55 C 0 km/h
11 23-10-2005 00:00:00 14.24321 C 9.16 g/m*3 14.24 C 0 km/h
12 24-10-2005 00:00:00 12.10545 C 8.42 g/m*3 12.11 C 0 km/h
13 25-10-2005 00:00:00 15.69143 C 8.79 g/m*3 15.69 C 0 km/h
14 26-10-2005 00:00:00 16.07417 C 9.59 g/m*3 16.07 C 0 km/h
15 27-10-2005 00:00:00 14.98583 C 10.01 g/m*3 14.99 C 0 km/h
16 28-10-2005 00:00:00 16.07721 C 9.93 g/m*3 16.08 C 0 km/h
17 29-10-2005 00:00:00 13.94583 C 9.13 g/m*3 13.95 C 0 km/h
18 30-10-2005 00:00:00 12.71467 C 8.73 g/m*3 12.71 C 0 km/h
19 31-10-2005 00:00:00 13.11667 C 8.12 g/m*3 13.12 C 0 km/h
20 01-11-2005 00:00:00 12.41319 C 8.54 g/m*3 12.41 C 0 km/h
21 02-11-2005 00:00:00 10.43819 C 8.46 g/m*3 10.44 C 0 km/h
22 03-11-2005 00:00:00 14.78403 C 9.99 g/m*3 14.78 C 0 km/h
23 04-11-2005 00:00:00 13.39444 C 9.98 g/m*3 13.39 C 0 km/h
24 05-11-2005 00:00:00 8.99792 C 7.03 g/m*3 9 C 0 km/h
25 06-11-2005 00:00:00 9.96224 C 7.32 g/m*3 9.96 C 0 km/h
Sensor: Nr:Datum:Temp:Abs-Feuchte:Windchill:Wind:
Aussen-T/F 26 07-11-2005 00:00:00 8.03611 C 7.17 g/m*3 8.04 C 0 km/h
27 08-11-2005 00:00:00 10.35903 C 7.4 g/m*3 10.36 C 0 km/h
28 09-11-2005 00:00:00 7.83194 C 7.09 g/m*3 7.83 C 0 km/h
29 10-11-2005 00:00:00 9.97639 C 7.21 g/m*3 9.98 C 0 km/h
30 11-11-2005 00:00:00 9.26736 C 7.4 g/m*3 9.27 C 0 km/h
31 12-11-2005 00:00:00 7.83611 C 5.99 g/m*3 7.84 C 0 km/h
32 13-11-2005 00:00:00 9.98542 C 7.43 g/m*3 9.99 C 0 km/h
33 14-11-2005 00:00:00 7.76458 C 6.52 g/m*3 7.76 C 0 km/h
34 15-11-2005 00:00:00 6.09931 C 5.92 g/m*3 6.1 C 0 km/h
35 16-11-2005 00:00:00 5.71806 C 5.83 g/m*3 5.72 C 0 km/h
36 17-11-2005 00:00:00 4.69231 C 4.87 g/m*3 4.69 C 0 km/h
37 18-11-2005 00:00:00 3.75903 C 4.75 g/m*3 3.76 C 0 km/h
38 19-11-2005 00:00:00 1.67431 C 4.45 g/m*3 1.67 C 0 km/h
39 20-11-2005 00:00:00 1.75625 C 4.65 g/m*3 1.76 C 0 km/h
40 21-11-2005 00:00:00 4.09236 C 5.57 g/m*3 4.09 C 0 km/h
41 22-11-2005 00:00:00 -0.87778 C 3.96 g/m*3 -0.88 C 0 km/h
42 23-11-2005 00:00:00 0.84861 C 4.11 g/m*3 0.85 C 0 km/h
43 24-11-2005 00:00:00 2.37778 C 4.63 g/m*3 2.38 C 0 km/h
44 25-11-2005 00:00:00 1.54167 C 3.59 g/m*3 1.54 C 0 km/h
45 26-11-2005 00:00:00 2.46111 C 3.28 g/m*3 2.46 C 0 km/h
46 27-11-2005 00:00:00 2.30979 C 4.39 g/m*3 2.31 C 0 km/h
47 28-11-2005 00:00:00 1.92847 C 4.78 g/m*3 1.93 C 0 km/h
48 29-11-2005 00:00:00 2.30694 C 4.43 g/m*3 2.31 C 0 km/h
49 30-11-2005 00:00:00 2.00069 C 4.01 g/m*3 2 C 0 km/h
50 01-12-2005 00:00:00 0.41875 C 3.53 g/m*3 0.42 C 0 km/h
Sensor: Nr:Datum:Temp:Abs-Feuchte:Windchill:Wind:
Aussen-T/F 51 02-12-2005 00:00:00 0.22153 C 3.38 g/m*3 0.22 C 0 km/h
52 03-12-2005 00:00:00 3.82708 C 5.01 g/m*3 3.83 C 0 km/h
53 04-12-2005 00:00:00 7.05417 C 6.74 g/m*3 7.05 C 0 km/h
54 05-12-2005 00:00:00 6.35208 C 5.78 g/m*3 6.35 C 0 km/h
55 06-12-2005 00:00:00 4.99583 C 5.15 g/m*3 5 C 0 km/h
56 07-12-2005 00:00:00 4.93706 C 5.56 g/m*3 4.94 C 0 km/h
57 08-12-2005 00:00:00 4.74653 C 5.18 g/m*3 4.75 C 0 km/h
58 09-12-2005 00:00:00 3.66458 C 5.09 g/m*3 3.66 C 0 km/h
59 10-12-2005 00:00:00 -0.92292 C 3.78 g/m*3 -0.92 C 0 km/h
60 11-12-2005 00:00:00 -2.30069 C 3.46 g/m*3 -2.3 C 0 km/h
61 12-12-2005 00:00:00 1.72847 C 4.76 g/m*3 1.73 C 0 km/h
62 13-12-2005 00:00:00 1.28472 C 4.91 g/m*3 1.28 C 0 km/h
63 14-12-2005 00:00:00 3.84028 C 5.78 g/m*3 3.84 C 0 km/h
64 15-12-2005 00:00:00 5.59167 C 5.53 g/m*3 5.59 C 0 km/h
65 16-12-2005 00:00:00 6.09861 C 5.31 g/m*3 6.1 C 0 km/h
66 17-12-2005 00:00:00 1.45035 C 3.8 g/m*3 1.45 C 0 km/h
67 18-12-2005 00:00:00 1.59861 C 3.96 g/m*3 1.6 C 0 km/h
68 19-12-2005 00:00:00 1.45417 C 4.2 g/m*3 1.45 C 0 km/h
69 20-12-2005 00:00:00 2.75347 C 4.64 g/m*3 2.75 C 0 km/h
70 21-12-2005 00:00:00 2.23194 C 4.34 g/m*3 2.23 C 0 km/h
71 22-12-2005 00:00:00 2.96875 C 5.07 g/m*3 2.97 C 0 km/h
72 23-12-2005 00:00:00 4.89653 C 5.59 g/m*3 4.9 C 0 km/h
73 24-12-2005 00:00:00 5.93264 C 5.56 g/m*3 5.93 C 0 km/h
74 25-12-2005 00:00:00 4.13958 C 5.2 g/m*3 4.14 C 0 km/h
75 26-12-2005 00:00:00 1.48403 C 4.21 g/m*3 1.48 C 0 km/h
Sensor: Nr:Datum:Temp:Abs-Feuchte:Windchill:Wind:
Aussen-T/F 76 27-12-2005 00:00:00 -1.47413 C 3.38 g/m*3 -1.47 C 0 km/h
77 28-12-2005 00:00:00 -1.48681 C 3.38 g/m*3 -1.49 C 0 km/h
78 29-12-2005 00:00:00 -2.85486 C 2.99 g/m*3 -2.85 C 0 km/h
79 30-12-2005 00:00:00 -3.14514 C 2.78 g/m*3 -3.15 C 0 km/h
80 31-12-2005 00:00:00 2.82361 C 4.93 g/m*3 2.82 C 0 km/h
81 01-01-2006 00:00:00 3.86319 C 5.09 g/m*3 3.86 C 0 km/h
82 02-01-2006 00:00:00 3.13125 C 4.93 g/m*3 3.13 C 0 km/h
83 03-01-2006 00:00:00 2.31597 C 4.43 g/m*3 2.32 C 0 km/h
84 04-01-2006 00:00:00 0.29583 C 3.73 g/m*3 0.3 C 0 km/h
85 05-01-2006 00:00:00 1.24306 C 3.66 g/m*3 1.24 C 0 km/h
86 06-01-2006 00:00:00 -0.25035 C 4 g/m*3 -0.25 C 0 km/h
87 07-01-2006 00:00:00 2.66181 C 4.44 g/m*3 2.66 C 0 km/h
88 08-01-2006 00:00:00 2.09653 C 3.9 g/m*3 2.1 C 0 km/h
89 09-01-2006 00:00:00 -2.41736 C 3.27 g/m*3 -2.42 C 0 km/h
90 10-01-2006 00:00:00 -1.51736 C 3.25 g/m*3 -1.52 C 0 km/h
91 11-01-2006 00:00:00 -1.95903 C 3.55 g/m*3 -1.96 C 0 km/h
92 12-01-2006 00:00:00 1.79583 C 5.01 g/m*3 1.8 C 0 km/h
93 13-01-2006 00:00:00 0.35972 C 3.83 g/m*3 0.36 C 0 km/h
94 14-01-2006 00:00:00 -3.27639 C 3.12 g/m*3 -3.28 C 0 km/h
95 15-01-2006 00:00:00 -4.27153 C 2.57 g/m*3 -4.27 C 0 km/h
96 16-01-2006 00:00:00 -4.78951 C 2.59 g/m*3 -4.79 C 0 km/h
97 17-01-2006 00:00:00 1.90278 C 4.54 g/m*3 1.9 C 0 km/h
98 18-01-2006 00:00:00 3.8125 C 5.08 g/m*3 3.81 C 0 km/h
99 19-01-2006 00:00:00 1.43403 C 4.72 g/m*3 1.43 C 0 km/h
100 20-01-2006 00:00:00 6.2375 C 6 g/m*3 6.24 C 0 km/h
Sensor: Nr:Datum:Temp:Abs-Feuchte:Windchill:Wind:
Aussen-T/F 101 21-01-2006 00:00:00 4.58889 C 5.24 g/m*3 4.59 C 0 km/h
102 22-01-2006 00:00:00 1.08125 C 3.94 g/m*3 1.08 C 0 km/h
103 23-01-2006 00:00:00 -5.20417 C 1.94 g/m*3 -5.2 C 0 km/h
104 24-01-2006 00:00:00 -5.83542 C 1.92 g/m*3 -5.84 C 0 km/h
105 25-01-2006 00:00:00 -3.80833 C 2.61 g/m*3 -3.81 C 0 km/h
106 26-01-2006 00:00:00 -2.11818 C 3.16 g/m*3 -2.12 C 0 km/h
107 27-01-2006 00:00:00 -5.44236 C 2.23 g/m*3 -5.44 C 0 km/h
108 28-01-2006 00:00:00 -6.67986 C 2.22 g/m*3 -6.68 C 0 km/h
109 29-01-2006 00:00:00 -6.29792 C 2.35 g/m*3 -6.3 C 0 km/h
110 30-01-2006 00:00:00 -5.95139 C 2.43 g/m*3 -5.95 C 0 km/h
111 31-01-2006 00:00:00 -3.30486 C 3.12 g/m*3 -3.3 C 0 km/h
112 01-02-2006 00:00:00 -5.48333 C 2.52 g/m*3 -5.48 C 0 km/h
113 02-02-2006 00:00:00 -6.16667 C 2.42 g/m*3 -6.17 C 0 km/h
114 03-02-2006 00:00:00 -3.79931 C 2.72 g/m*3 -3.8 C 0 km/h
115 04-02-2006 00:00:00 -0.85208 C 3.61 g/m*3 -0.85 C 0 km/h
116 05-02-2006 00:00:00 -0.32867 C 3.81 g/m*3 -0.33 C 0 km/h
117 06-02-2006 00:00:00 1.50903 C 4.7 g/m*3 1.51 C 0 km/h
118 07-02-2006 00:00:00 3.74861 C 4.89 g/m*3 3.75 C 0 km/h
119 08-02-2006 00:00:00 3.70208 C 4.95 g/m*3 3.7 C 0 km/h
120 09-02-2006 00:00:00 2.29722 C 4.03 g/m*3 2.3 C 0 km/h
121 10-02-2006 00:00:00 2.10979 C 4.24 g/m*3 2.11 C 0 km/h
122 11-02-2006 00:00:00 1.21458 C 4.02 g/m*3 1.21 C 0 km/h
123 12-02-2006 00:00:00 1.60694 C 3.21 g/m*3 1.61 C 0 km/h
124 13-02-2006 00:00:00 2.60764 C 2.97 g/m*3 2.61 C 0 km/h
125 14-02-2006 00:00:00 4.21597 C 4.26 g/m*3 4.22 C 0 km/h
Sensor: Nr:Datum:Temp:Abs-Feuchte:Windchill:Wind:
Aussen-T/F 126 15-02-2006 00:00:00 6.17832 C 5.78 g/m*3 6.18 C 0 km/h
127 16-02-2006 00:00:00 7.31736 C 6.23 g/m*3 7.32 C 0 km/h
128 17-02-2006 00:00:00 6.0625 C 5.09 g/m*3 6.06 C 0 km/h
129 18-02-2006 00:00:00 5.81389 C 5.1 g/m*3 5.81 C 0 km/h
130 19-02-2006 00:00:00 7.08472 C 4.96 g/m*3 7.08 C 0 km/h
131 20-02-2006 00:00:00 4.17917 C 5.28 g/m*3 4.18 C 0 km/h
132 21-02-2006 00:00:00 3.04444 C 5.09 g/m*3 3.04 C 0 km/h
133 22-02-2006 00:00:00 2.47639 C 3.64 g/m*3 2.48 C 0 km/h
134 23-02-2006 00:00:00 1.36736 C 2.72 g/m*3 1.37 C 0 km/h
135 24-02-2006 00:00:00 2.05972 C 2.88 g/m*3 2.06 C 0 km/h
136 25-02-2006 00:00:00 0.46364 C 2.5 g/m*3 0.46 C 0 km/h
137 26-02-2006 00:00:00 -1.08472 C 2.46 g/m*3 -1.08 C 0 km/h
138 27-02-2006 00:00:00 -1.57569 C 3.19 g/m*3 -1.58 C 0 km/h
139 28-02-2006 00:00:00 1.56806 C 4.03 g/m*3 1.57 C 0 km/h
140 01-03-2006 00:00:00 0.10556 C 3.05 g/m*3 0.11 C 0 km/h
141 02-03-2006 00:00:00 -0.25347 C 2.76 g/m*3 -0.25 C 0 km/h
142 03-03-2006 00:00:00 -0.44722 C 3.59 g/m*3 -0.45 C 0 km/h
143 04-03-2006 00:00:00 -0.87361 C 3.51 g/m*3 -0.87 C 0 km/h
144 05-03-2006 00:00:00 -1.41944 C 3.13 g/m*3 -1.42 C 0 km/h
145 06-03-2006 00:00:00 1.2125 C 3.34 g/m*3 1.21 C 0 km/h
146 07-03-2006 00:00:00 2.11748 C 3.25 g/m*3 2.12 C 0 km/h
147 08-03-2006 00:00:00 0.99722 C 3.99 g/m*3 1 C 0 km/h
148 09-03-2006 00:00:00 8.02431 C 6.63 g/m*3 8.02 C 0 km/h
149 10-03-2006 00:00:00 5.79931 C 4.67 g/m*3 5.8 C 0 km/h
150 11-03-2006 00:00:00 1.7 C 4.29 g/m*3 1.7 C 0 km/h
Sensor: Nr:Datum:Temp:Abs-Feuchte:Windchill:Wind:
Aussen-T/F 151 12-03-2006 00:00:00 -2.45556 C 1.99 g/m*3 -2.46 C 0 km/h
152 13-03-2006 00:00:00 -1.82553 C 2.07 g/m*3 -1.83 C 0 km/h
153 14-03-2006 00:00:00 -0.25972 C 2.33 g/m*3 -0.26 C 0 km/h
154 15-03-2006 00:00:00 1.33333 C 2.81 g/m*3 1.33 C 0 km/h
155 16-03-2006 00:00:00 2.07292 C 2.65 g/m*3 2.07 C 0 km/h
156 17-03-2006 00:00:00 2.75175 C 3.25 g/m*3 2.75 C 0 km/h
157 18-03-2006 00:00:00 3.75069 C 3.43 g/m*3 3.75 C 0 km/h
158 19-03-2006 00:00:00 4.88056 C 3.93 g/m*3 4.88 C 0 km/h
159 20-03-2006 00:00:00 4.13542 C 4.32 g/m*3 4.14 C 0 km/h
160 21-03-2006 00:00:00 3.42222 C 5.01 g/m*3 3.42 C 0 km/h
161 22-03-2006 00:00:00 4.52708 C 3.53 g/m*3 4.53 C 0 km/h
162 23-03-2006 00:00:00 4.85694 C 2.84 g/m*3 4.86 C 0 km/h
163 24-03-2006 00:00:00 5.28125 C 5.03 g/m*3 5.28 C 0 km/h
164 25-03-2006 00:00:00 12.04861 C 7.85 g/m*3 12.05 C 0 km/h
165 26-03-2006 00:00:00 15.02826 C 9.07 g/m*3 15.03 C 0 km/h
166 27-03-2006 00:00:00 14.96319 C 8.44 g/m*3 14.96 C 0 km/h
167 28-03-2006 00:00:00 11.67273 C 6.09 g/m*3 11.67 C 0 km/h
168 29-03-2006 00:00:00 9.22222 C 5.78 g/m*3 9.22 C 0 km/h
169 30-03-2006 00:00:00 11.31181 C 7.59 g/m*3 11.31 C 0 km/h
170 31-03-2006 00:00:00 12.225 C 7.78 g/m*3 12.23 C 0 km/h
171 01-04-2006 00:00:00 10.95 C 7.33 g/m*3 10.95 C 0 km/h
172 02-04-2006 00:00:00 10.30347 C 6.71 g/m*3 10.3 C 0 km/h
173 03-04-2006 00:00:00 9.04444 C 5.27 g/m*3 9.04 C 0 km/h
174 04-04-2006 00:00:00 7.89306 C 4.31 g/m*3 7.89 C 0 km/h
175 05-04-2006 00:00:00 5.38542 C 3.69 g/m*3 5.39 C 0 km/h
Sensor: Nr:Datum:Temp:Abs-Feuchte:Windchill:Wind:
Aussen-T/F 176 06-04-2006 00:00:00 5.62847 C 3.78 g/m*3 5.63 C 0 km/h
177 07-04-2006 00:00:00 7.78112 C 3.69 g/m*3 7.78 C 0 km/h
178 08-04-2006 00:00:00 8.88681 C 3.81 g/m*3 8.89 C 0 km/h
179 09-04-2006 00:00:00 9.54931 C 4.04 g/m*3 9.55 C 0 km/h
180 10-04-2006 00:00:00 7.99444 C 3.73 g/m*3 7.99 C 0 km/h
181 11-04-2006 00:00:00 6.56528 C 3.66 g/m*3 6.57 C 0 km/h
182 12-04-2006 00:00:00 7.39167 C 5.46 g/m*3 7.39 C 0 km/h
183 13-04-2006 00:00:00 7.97014 C 5.79 g/m*3 7.97 C 0 km/h
184 14-04-2006 00:00:00 11.28681 C 7.12 g/m*3 11.29 C 0 km/h
185 15-04-2006 00:00:00 12.20486 C 7.42 g/m*3 12.2 C 0 km/h
186 16-04-2006 00:00:00 12.37986 C 7.33 g/m*3 12.38 C 0 km/h
187 17-04-2006 00:00:00 11.4 C 7.54 g/m*3 11.4 C 0 km/h
188 18-04-2006 00:00:00 10.37986 C 6.23 g/m*3 10.38 C 0 km/h
189 19-04-2006 00:00:00 11.18264 C 5.43 g/m*3 11.18 C 0 km/h
190 20-04-2006 00:00:00 12.16528 C 5.8 g/m*3 12.17 C 0 km/h
191 21-04-2006 00:00:00 14.47622 C 6.36 g/m*3 14.48 C 0 km/h
192 22-04-2006 00:00:00 13.62014 C 7.04 g/m*3 13.62 C 0 km/h
193 23-04-2006 00:00:00 10.87639 C 6.01 g/m*3 10.88 C 0 km/h
194 24-04-2006 00:00:00 15.40833 C 6.53 g/m*3 15.41 C 0 km/h
195 25-04-2006 00:00:00 17.60972 C 7.26 g/m*3 17.61 C 0 km/h
196 26-04-2006 00:00:00 15.22778 C 10.04 g/m*3 15.23 C 0 km/h
197 27-04-2006 00:00:00 12.53611 C 8.58 g/m*3 12.54 C 0 km/h
198 28-04-2006 00:00:00 10.85 C 5.75 g/m*3 10.85 C 0 km/h
199 29-04-2006 00:00:00 7.53194 C 4.57 g/m*3 7.53 C 0 km/h
200 30-04-2006 00:00:00 6.51389 C 5.5 g/m*3 6.51 C 0 km/h
Sensor: Nr:Datum:Temp:Abs-Feuchte:Windchill:Wind:
Aussen-T/F 201 01-05-2006 00:00:00 8.32727 C 6.64 g/m*3 8.33 C 0 km/h
202 02-05-2006 00:00:00 15.08819 C 7.52 g/m*3 15.09 C 0 km/h
203 03-05-2006 00:00:00 18.44931 C 8.16 g/m*3 18.45 C 0 km/h
204 04-05-2006 00:00:00 19.40278 C 8.14 g/m*3 19.4 C 0 km/h
205 05-05-2006 00:00:00 20.21389 C 7.05 g/m*3 20.21 C 0 km/h
206 06-05-2006 00:00:00 18.90069 C 6.51 g/m*3 18.9 C 0 km/h
207 07-05-2006 00:00:00 19.45486 C 5.48 g/m*3 19.45 C 0 km/h
208 08-05-2006 00:00:00 18.61667 C 6.18 g/m*3 18.62 C 0 km/h
209 09-05-2006 00:00:00 18.27431 C 6.73 g/m*3 18.27 C 0 km/h
210 10-05-2006 00:00:00 18.83194 C 8.46 g/m*3 18.83 C 0 km/h
211 11-05-2006 00:00:00 19.10629 C 6.83 g/m*3 19.11 C 0 km/h
212 12-05-2006 00:00:00 18.74583 C 6.68 g/m*3 18.75 C 0 km/h
213 13-05-2006 00:00:00 16.36944 C 9.54 g/m*3 16.37 C 0 km/h
214 14-05-2006 00:00:00 15.00278 C 8.64 g/m*3 15 C 0 km/h
215 15-05-2006 00:00:00 16.62986 C 8.78 g/m*3 16.63 C 0 km/h
216 16-05-2006 00:00:00 19.50347 C 9.69 g/m*3 19.5 C 0 km/h
217 17-05-2006 00:00:00 17.91736 C 9.73 g/m*3 17.92 C 0 km/h
218 18-05-2006 00:00:00 18.00347 C 10.26 g/m*3 18 C 0 km/h
219 19-05-2006 00:00:00 14.40347 C 8.4 g/m*3 14.4 C 0 km/h
220 20-05-2006 00:00:00 12.56853 C 7.83 g/m*3 12.57 C 0 km/h
221 21-05-2006 00:00:00 15.07431 C 7.61 g/m*3 15.07 C 0 km/h
222 22-05-2006 00:00:00 15.73472 C 8.94 g/m*3 15.73 C 0 km/h
223 23-05-2006 00:00:00 12.35556 C 6.68 g/m*3 12.36 C 0 km/h
224 24-05-2006 00:00:00 10.91667 C 6.68 g/m*3 10.92 C 0 km/h
225 25-05-2006 00:00:00 11.81736 C 8.3 g/m*3 11.82 C 0 km/h
Sensor: Nr:Datum:Temp:Abs-Feuchte:Windchill:Wind:
Aussen-T/F 226 26-05-2006 00:00:00 13.58681 C 10.19 g/m*3 13.59 C 0 km/h
227 27-05-2006 00:00:00 16.75972 C 10.96 g/m*3 16.76 C 0 km/h
228 28-05-2006 00:00:00 16.35 C 8.5 g/m*3 16.35 C 0 km/h
229 29-05-2006 00:00:00 12.47431 C 7.16 g/m*3 12.47 C 0 km/h
230 30-05-2006 00:00:00 9.24792 C 6.53 g/m*3 9.25 C 0 km/h
231 31-05-2006 00:00:00 9.13776 C 6.51 g/m*3 9.14 C 0 km/h
232 01-06-2006 00:00:00 9.43819 C 6.58 g/m*3 9.44 C 0 km/h
233 02-06-2006 00:00:00 13.68056 C 6.85 g/m*3 13.68 C 0 km/h
234 03-06-2006 00:00:00 13.95278 C 7.53 g/m*3 13.95 C 0 km/h
235 04-06-2006 00:00:00 14.34514 C 6.93 g/m*3 14.35 C 0 km/h
236 05-06-2006 00:00:00 14.45764 C 6.07 g/m*3 14.46 C 0 km/h
237 06-06-2006 00:00:00 14.33472 C 6.42 g/m*3 14.33 C 0 km/h
238 07-06-2006 00:00:00 16.37431 C 7.03 g/m*3 16.37 C 0 km/h
239 08-06-2006 00:00:00 19.21736 C 7.78 g/m*3 19.22 C 0 km/h
240 09-06-2006 00:00:00 21.24306 C 8.18 g/m*3 21.24 C 0 km/h
241 10-06-2006 00:00:00 22.62098 C 8.87 g/m*3 22.62 C 0 km/h
242 11-06-2006 00:00:00 23.39653 C 8.75 g/m*3 23.4 C 0 km/h
243 12-06-2006 00:00:00 23.62431 C 8.32 g/m*3 23.62 C 0 km/h
244 13-06-2006 00:00:00 25.05625 C 9.6 g/m*3 25.06 C 0 km/h
245 14-06-2006 00:00:00 25.71667 C 10.84 g/m*3 25.72 C 0 km/h
246 15-06-2006 00:00:00 22.39653 C 13.02 g/m*3 22.4 C 0 km/h
247 16-06-2006 00:00:00 19.19792 C 9.2 g/m*3 19.2 C 0 km/h
248 17-06-2006 00:00:00 19.55139 C 8.62 g/m*3 19.55 C 0 km/h
249 18-06-2006 00:00:00 22.94931 C 11.05 g/m*3 22.95 C 0 km/h
250 19-06-2006 00:00:00 22.18819 C 13.64 g/m*3 22.19 C 0 km/h
Sensor: Nr:Datum:Temp:Abs-Feuchte:Windchill:Wind:
Aussen-T/F 251 20-06-2006 00:00:00 22.95524 C 12.6 g/m*3 22.96 C 0 km/h
252 21-06-2006 00:00:00 22.61597 C 10.2 g/m*3 22.62 C 0 km/h
253 22-06-2006 00:00:00 18.87222 C 7.76 g/m*3 18.87 C 0 km/h
254 23-06-2006 00:00:00 18.88681 C 7.57 g/m*3 18.89 C 0 km/h
255 24-06-2006 00:00:00 22.39792 C 8.91 g/m*3 22.4 C 0 km/h
256 25-06-2006 00:00:00 23.4375 C 12.58 g/m*3 23.44 C 0 km/h
257 26-06-2006 00:00:00 21.99097 C 12.21 g/m*3 21.99 C 0 km/h
258 27-06-2006 00:00:00 19.64028 C 11.66 g/m*3 19.64 C 0 km/h
259 28-06-2006 00:00:00 21.16111 C 10.45 g/m*3 21.16 C 0 km/h
260 29-06-2006 00:00:00 21.06319 C 11.36 g/m*3 21.06 C 0 km/h
261 30-06-2006 00:00:00 23.44545 C 11.46 g/m*3 23.45 C 0 km/h
262 01-07-2006 00:00:00 24.6875 C 10.22 g/m*3 24.69 C 0 km/h
263 02-07-2006 00:00:00 25.27986 C 9.46 g/m*3 25.28 C 0 km/h
264 03-07-2006 00:00:00 25.22083 C 8.68 g/m*3 25.22 C 0 km/h
265 04-07-2006 00:00:00 26.70278 C 10.21 g/m*3 26.7 C 0 km/h
266 05-07-2006 00:00:00 26.28681 C 12.37 g/m*3 26.29 C 0 km/h
267 06-07-2006 00:00:00 24.85278 C 12.2 g/m*3 24.85 C 0 km/h
268 07-07-2006 00:00:00 22.81528 C 12.32 g/m*3 22.82 C 0 km/h
269 08-07-2006 00:00:00 22.68958 C 13.01 g/m*3 22.69 C 0 km/h
270 09-07-2006 00:00:00 23.57778 C 11.52 g/m*3 23.58 C 0 km/h
271 10-07-2006 00:00:00 25.03147 C 10.68 g/m*3 25.03 C 0 km/h
272 11-07-2006 00:00:00 23.91181 C 13.08 g/m*3 23.91 C 0 km/h
273 12-07-2006 00:00:00 25.55625 C 13.47 g/m*3 25.56 C 0 km/h
274 13-07-2006 00:00:00 26.02986 C 13.12 g/m*3 26.03 C 0 km/h
275 14-07-2006 00:00:00 24.71389 C 8.97 g/m*3 24.71 C 0 km/h
Sensor: Nr:Datum:Temp:Abs-Feuchte:Windchill:Wind:
Aussen-T/F 276 15-07-2006 00:00:00 23.42431 C 7.65 g/m*3 23.42 C 0 km/h
277 16-07-2006 00:00:00 24.37639 C 8.1 g/m*3 24.38 C 0 km/h
278 17-07-2006 00:00:00 25.54792 C 7.82 g/m*3 25.55 C 0 km/h
279 18-07-2006 00:00:00 26.24722 C 8.99 g/m*3 26.25 C 0 km/h
280 19-07-2006 00:00:00 27.43125 C 9.1 g/m*3 27.43 C 0 km/h
281 20-07-2006 00:00:00 28.02797 C 9.35 g/m*3 28.03 C 0 km/h
282 21-07-2006 00:00:00 28.09306 C 11.49 g/m*3 28.09 C 0 km/h
283 22-07-2006 00:00:00 24.58125 C 12.7 g/m*3 24.58 C 0 km/h
284 23-07-2006 00:00:00 26.09375 C 13.17 g/m*3 26.09 C 0 km/h
285 24-07-2006 00:00:00 27.19236 C 11.15 g/m*3 27.19 C 0 km/h
286 25-07-2006 00:00:00 28.08194 C 10.78 g/m*3 28.08 C 0 km/h
287 26-07-2006 00:00:00 28.25208 C 11.87 g/m*3 28.25 C 0 km/h
288 27-07-2006 00:00:00 25.83403 C 14.1 g/m*3 25.83 C 0 km/h
289 28-07-2006 00:00:00 22.68264 C 14.34 g/m*3 22.68 C 0 km/h
290 29-07-2006 00:00:00 24.07431 C 13.52 g/m*3 24.07 C 0 km/h
291 30-07-2006 00:00:00 24.48392 C 12.14 g/m*3 24.48 C 0 km/h
292 31-07-2006 00:00:00 23.2375 C 10.23 g/m*3 23.24 C 0 km/h
293 01-08-2006 00:00:00 20.05625 C 10.27 g/m*3 20.06 C 0 km/h
294 02-08-2006 00:00:00 16.51667 C 9.93 g/m*3 16.52 C 0 km/h
295 03-08-2006 00:00:00 15.56111 C 9.83 g/m*3 15.56 C 0 km/h
296 04-08-2006 00:00:00 19.03056 C 10.44 g/m*3 19.03 C 0 km/h
297 05-08-2006 00:00:00 20.59514 C 10.71 g/m*3 20.6 C 0 km/h
298 06-08-2006 00:00:00 21.40694 C 10.86 g/m*3 21.41 C 0 km/h
299 07-08-2006 00:00:00 21.93056 C 10.07 g/m*3 21.93 C 0 km/h
300 08-08-2006 00:00:00 19.79583 C 9.89 g/m*3 19.8 C 0 km/h
Sensor: Nr:Datum:Temp:Abs-Feuchte:Windchill:Wind:
Aussen-T/F 301 09-08-2006 00:00:00 19.08322 C 9.32 g/m*3 19.08 C 0 km/h
302 10-08-2006 00:00:00 15.04792 C 9.68 g/m*3 15.05 C 0 km/h
303 11-08-2006 00:00:00 14.23611 C 9.74 g/m*3 14.24 C 0 km/h
304 12-08-2006 00:00:00 15.08958 C 8.69 g/m*3 15.09 C 0 km/h
305 13-08-2006 00:00:00 14.64514 C 9.18 g/m*3 14.65 C 0 km/h
306 14-08-2006 00:00:00 14.16319 C 9.66 g/m*3 14.16 C 0 km/h
307 15-08-2006 00:00:00 17.63333 C 10.27 g/m*3 17.63 C 0 km/h
308 16-08-2006 00:00:00 17.65 C 10.87 g/m*3 17.65 C 0 km/h
309 17-08-2006 00:00:00 20.9 C 11.79 g/m*3 20.9 C 0 km/h
310 18-08-2006 00:00:00 19.10208 C 11.74 g/m*3 19.1 C 0 km/h
311 19-08-2006 00:00:00 18.77343 C 11.44 g/m*3 18.77 C 0 km/h
312 20-08-2006 00:00:00 18.10972 C 10.83 g/m*3 18.11 C 0 km/h
313 21-08-2006 00:00:00 16.97292 C 10.27 g/m*3 16.97 C 0 km/h
314 22-08-2006 00:00:00 16.96389 C 10.28 g/m*3 16.96 C 0 km/h
315 23-08-2006 00:00:00 17.71319 C 10.25 g/m*3 17.71 C 0 km/h
316 24-08-2006 00:00:00 16.95139 C 10.55 g/m*3 16.95 C 0 km/h
317 25-08-2006 00:00:00 16.57778 C 11 g/m*3 16.58 C 0 km/h
318 26-08-2006 00:00:00 16.86528 C 10.55 g/m*3 16.87 C 0 km/h
319 27-08-2006 00:00:00 15.83681 C 10.94 g/m*3 15.84 C 0 km/h
320 28-08-2006 00:00:00 13.83264 C 9.97 g/m*3 13.83 C 0 km/h
321 29-08-2006 00:00:00 12.56713 C 8.65 g/m*3 12.57 C 0 km/h
322 30-08-2006 00:00:00 13.16111 C 9.07 g/m*3 13.16 C 0 km/h
323 31-08-2006 00:00:00 15.10417 C 8.8 g/m*3 15.1 C 0 km/h
324 01-09-2006 00:00:00 20.10139 C 9.87 g/m*3 20.1 C 0 km/h
325 02-09-2006 00:00:00 20.75 C 11 g/m*3 20.75 C 0 km/h
Sensor: Nr:Datum:Temp:Abs-Feuchte:Windchill:Wind:
Aussen-T/F 326 03-09-2006 00:00:00 21.75069 C 12.12 g/m*3 21.75 C 0 km/h
327 04-09-2006 00:00:00 22.06389 C 10.38 g/m*3 22.06 C 0 km/h
328 05-09-2006 00:00:00 19.96458 C 11.3 g/m*3 19.96 C 0 km/h
329 06-09-2006 00:00:00 21.68819 C 12.31 g/m*3 21.69 C 0 km/h
330 07-09-2006 00:00:00 19.05694 C 11.44 g/m*3 19.06 C 0 km/h
331 08-09-2006 00:00:00 16.55874 C 8.04 g/m*3 16.56 C 0 km/h
332 09-09-2006 00:00:00 16.56458 C 8.18 g/m*3 16.56 C 0 km/h
333 10-09-2006 00:00:00 18.675 C 9.16 g/m*3 18.68 C 0 km/h
334 11-09-2006 00:00:00 20.64722 C 11.18 g/m*3 20.65 C 0 km/h
335 12-09-2006 00:00:00 22.28889 C 12.16 g/m*3 22.29 C 0 km/h
336 13-09-2006 00:00:00 22.18819 C 11.95 g/m*3 22.19 C 0 km/h
337 14-09-2006 00:00:00 21.21806 C 11.23 g/m*3 21.22 C 0 km/h
338 15-09-2006 00:00:00 21.27273 C 10.28 g/m*3 21.27 C 0 km/h
339 16-09-2006 00:00:00 21.06759 C 11.67 g/m*3 21.07 C 0 km/h
340 17-09-2006 00:00:00 18.62986 C 12.65 g/m*3 18.63 C 0 km/h
341 18-09-2006 00:00:00 17.15903 C 12.29 g/m*3 17.16 C 0 km/h
342 19-09-2006 00:00:00 16.75278 C 10.65 g/m*3 16.75 C 0 km/h
343 20-09-2006 00:00:00 16.65139 C 9.61 g/m*3 16.65 C 0 km/h
344 21-09-2006 00:00:00 18.26806 C 10.43 g/m*3 18.27 C 0 km/h
345 22-09-2006 00:00:00 20.87413 C 10.57 g/m*3 20.87 C 0 km/h
346 23-09-2006 00:00:00 20.17361 C 11.42 g/m*3 20.17 C 0 km/h
347 24-09-2006 00:00:00 21.00903 C 11.38 g/m*3 21.01 C 0 km/h
348 25-09-2006 00:00:00 18.50486 C 11.18 g/m*3 18.5 C 0 km/h
349 26-09-2006 00:00:00 17.03056 C 11.32 g/m*3 17.03 C 0 km/h
350 27-09-2006 00:00:00 17.04444 C 10.2 g/m*3 17.04 C 0 km/h
Sensor: Nr:Datum:Temp:Abs-Feuchte:Windchill:Wind:
Aussen-T/F 351 28-09-2006 00:00:00 16.01042 C 9.81 g/m*3 16.01 C 0 km/h
352 29-09-2006 00:00:00 17.325 C 10.7 g/m*3 17.33 C 0 km/h
353 30-09-2006 00:00:00 17.09583 C 10.68 g/m*3 17.1 C 0 km/h
354 01-10-2006 00:00:00 17.24406 C 11.46 g/m*3 17.24 C 0 km/h
355 02-10-2006 00:00:00 15.91042 C 9.59 g/m*3 15.91 C 0 km/h
356 03-10-2006 00:00:00 13.2126 C 10.47 g/m*3 13.21 C 0 km/h
357 04-10-2006 00:00:00 13.01961 C 8.62 g/m*3 13.02 C 0 km/h
358 05-10-2006 00:00:00 12.97647 C 7.92 g/m*3 12.98 C 0 km/h
359 06-10-2006 00:00:00 15.82353 C 9.57 g/m*3 15.82 C 0 km/h
360 07-10-2006 00:00:00 14.25769 C 8.26 g/m*3 14.26 C 0 km/h
361 08-10-2006 00:00:00 11.08235 C 7.49 g/m*3 11.08 C 0 km/h
362 09-10-2006 00:00:00 12.00192 C 8.16 g/m*3 12 C 0 km/h
363 10-10-2006 00:00:00 15.38824 C 9.83 g/m*3 15.39 C 0 km/h
364 11-10-2006 00:00:00 14.37885 C 9.66 g/m*3 14.38 C 0 km/h
365 12-10-2006 00:00:00 15.54118 C 10.53 g/m*3 15.54 C 0 km/h
366 13-10-2006 00:00:00 16.11765 C 11.21 g/m*3 16.12 C 0 km/h
367 14-10-2006 00:00:00 14.12115 C 9.1 g/m*3 14.12 C 0 km/h
368 15-10-2006 00:00:00 12.41569 C 8.17 g/m*3 12.42 C 0 km/h
369 16-10-2006 00:00:00 9.56154 C 7.1 g/m*3 9.56 C 0 km/h
370 17-10-2006 00:00:00 9.22745 C 7.11 g/m*3 9.23 C 0 km/h
371 18-10-2006 00:00:00 11.90769 C 8.05 g/m*3 11.91 C 0 km/h
372 19-10-2006 00:00:00 13.41961 C 9.54 g/m*3 13.42 C 0 km/h
373 20-10-2006 00:00:00 15.83725 C 9.91 g/m*3 15.84 C 0 km/h
374 21-10-2006 00:00:00 14.08553 C 10.16 g/m*3 14.09 C 0 km/h
375 22-10-2006 00:00:00 15.405 C 9.54 g/m*3 15.41 C 0 km/h
Sensor: Nr:Datum:Temp:Abs-Feuchte:Windchill:Wind:
Aussen-T/F 376 23-10-2006 00:00:00 17.22 C 11.01 g/m*3 17.22 C 0 km/h
377 24-10-2006 00:00:00 14.19167 C 9.57 g/m*3 14.19 C 0 km/h
378 25-10-2006 00:00:00 12.59167 C 8.45 g/m*3 12.59 C 0 km/h
379 26-10-2006 00:00:00 16.50583 C 9.43 g/m*3 16.51 C 0 km/h
380 27-10-2006 00:00:00 17.075 C 10.44 g/m*3 17.08 C 0 km/h
381 28-10-2006 00:00:00 15.02083 C 10.11 g/m*3 15.02 C 0 km/h
382 29-10-2006 00:00:00 15.9896 C 8.79 g/m*3 15.99 C 0 km/h
383 30-10-2006 00:00:00 12.1575 C 7.78 g/m*3 12.16 C 0 km/h
384 31-10-2006 00:00:00 10.23529 C 7.15 g/m*3 10.24 C 0 km/h
385 01-11-2006 00:00:00 7.77167 C 4.9 g/m*3 7.77 C 0 km/h
386 02-11-2006 00:00:00 3.03 C 5.06 g/m*3 3.03 C 0 km/h
387 03-11-2006 00:00:00 5.84333 C 5.93 g/m*3 5.84 C 0 km/h
388 04-11-2006 00:00:00 8.15833 C 6.41 g/m*3 8.16 C 0 km/h
389 05-11-2006 00:00:00 9.14833 C 6.17 g/m*3 9.15 C 0 km/h
390 06-11-2006 00:00:00 9.06833 C 6.39 g/m*3 9.07 C 0 km/h
391 07-11-2006 00:00:00 7.04083 C 6.11 g/m*3 7.04 C 0 km/h
392 08-11-2006 00:00:00 7.96417 C 6.49 g/m*3 7.96 C 0 km/h
393 09-11-2006 00:00:00 9.81917 C 6.62 g/m*3 9.82 C 0 km/h
394 10-11-2006 00:00:00 5.04917 C 5.59 g/m*3 5.05 C 0 km/h
395 11-11-2006 00:00:00 6.26667 C 6.03 g/m*3 6.27 C 0 km/h
396 12-11-2006 00:00:00 7.62353 C 5.75 g/m*3 7.62 C 0 km/h
397 13-11-2006 00:00:00 8.9025 C 7.09 g/m*3 8.9 C 0 km/h
398 14-11-2006 00:00:00 12.84083 C 9.06 g/m*3 12.84 C 0 km/h
399 15-11-2006 00:00:00 12.90167 C 8.11 g/m*3 12.9 C 0 km/h
400 16-11-2006 00:00:00 13.12 C 7.88 g/m*3 13.12 C 0 km/h
Sensor: Nr:Datum:Temp:Abs-Feuchte:Windchill:Wind:
Aussen-T/F 401 17-11-2006 00:00:00 12.54333 C 8.13 g/m*3 12.54 C 0 km/h
402 18-11-2006 00:00:00 9.73917 C 6.92 g/m*3 9.74 C 0 km/h
403 19-11-2006 00:00:00 7.74083 C 7.39 g/m*3 7.74 C 0 km/h
404 20-11-2006 00:00:00 6.5725 C 5.52 g/m*3 6.57 C 0 km/h
405 21-11-2006 00:00:00 8.63583 C 6.49 g/m*3 8.64 C 0 km/h
406 22-11-2006 00:00:00 6.01833 C 5.31 g/m*3 6.02 C 0 km/h
407 23-11-2006 00:00:00 9.36083 C 7.72 g/m*3 9.36 C 0 km/h
408 24-11-2006 00:00:00 10.1775 C 8.17 g/m*3 10.18 C 0 km/h
409 25-11-2006 00:00:00 14.79583 C 7.59 g/m*3 14.8 C 0 km/h
410 26-11-2006 00:00:00 10.72917 C 7.46 g/m*3 10.73 C 0 km/h
411 27-11-2006 00:00:00 8.08083 C 7.39 g/m*3 8.08 C 0 km/h
412 28-11-2006 00:00:00 7.2775 C 6.92 g/m*3 7.28 C 0 km/h
413 29-11-2006 00:00:00 7.40583 C 7.46 g/m*3 7.41 C 0 km/h
414 30-11-2006 00:00:00 6.29167 C 6.41 g/m*3 6.29 C 0 km/h
415 01-12-2006 00:00:00 5.935 C 6.4 g/m*3 5.94 C 0 km/h
416 02-12-2006 00:00:00 4.37083 C 6.16 g/m*3 4.37 C 0 km/h
417 03-12-2006 00:00:00 10.00583 C 6.96 g/m*3 10.01 C 0 km/h
418 04-12-2006 00:00:00 10.05042 C 6.32 g/m*3 10.05 C 0 km/h
419 05-12-2006 00:00:00 14.25917 C 7.5 g/m*3 14.26 C 0 km/h
420 06-12-2006 00:00:00 10.42667 C 6.11 g/m*3 10.43 C 0 km/h
421 07-12-2006 00:00:00 8.7025 C 5.3 g/m*3 8.7 C 0 km/h
422 08-12-2006 00:00:00 10.0975 C 6.14 g/m*3 10.1 C 0 km/h
423 09-12-2006 00:00:00 7.6075 C 4.91 g/m*3 7.61 C 0 km/h
424 10-12-2006 00:00:00 5.27833 C 4.83 g/m*3 5.28 C 0 km/h
425 11-12-2006 00:00:00 5.05583 C 4.74 g/m*3 5.06 C 0 km/h
Sensor: Nr:Datum:Temp:Abs-Feuchte:Windchill:Wind:
Aussen-T/F 426 12-12-2006 00:00:00 6.37333 C 5.29 g/m*3 6.37 C 0 km/h
427 13-12-2006 00:00:00 6.9775 C 5.44 g/m*3 6.98 C 0 km/h
428 14-12-2006 00:00:00 7.83083 C 5.4 g/m*3 7.83 C 0 km/h
429 15-12-2006 00:00:00 3.2075 C 4.68 g/m*3 3.21 C 0 km/h
430 16-12-2006 00:00:00 4.14333 C 5.23 g/m*3 4.14 C 0 km/h
431 17-12-2006 00:00:00 3.69333 C 5.01 g/m*3 3.69 C 0 km/h
432 18-12-2006 00:00:00 3.37917 C 5.38 g/m*3 3.38 C 0 km/h
433 19-12-2006 00:00:00 3.70083 C 4.15 g/m*3 3.7 C 0 km/h
434 20-12-2006 00:00:00 2.3425 C 4.1 g/m*3 2.34 C 0 km/h
435 21-12-2006 00:00:00 4.7375 C 5.27 g/m*3 4.74 C 0 km/h
436 22-12-2006 00:00:00 1.65 C 4.63 g/m*3 1.65 C 0 km/h
437 23-12-2006 00:00:00 3.19244 C 4.47 g/m*3 3.19 C 0 km/h
438 24-12-2006 00:00:00 0.1725 C 4.3 g/m*3 0.17 C 0 km/h
439 25-12-2006 00:00:00 0.51583 C 4.15 g/m*3 0.52 C 0 km/h
440 26-12-2006 00:00:00 0.8425 C 3.93 g/m*3 0.84 C 0 km/h
441 27-12-2006 00:00:00 -1.28667 C 3.48 g/m*3 -1.29 C 0 km/h
442 28-12-2006 00:00:00 0.405 C 3.88 g/m*3 0.41 C 0 km/h
443 29-12-2006 00:00:00 1.22333 C 4.59 g/m*3 1.22 C 0 km/h
444 30-12-2006 00:00:00 3.5575 C 5.12 g/m*3 3.56 C 0 km/h
445 31-12-2006 00:00:00 10.37107 C 5.17 g/m*3 10.37 C 0 km/h
446 01-01-2007 00:00:00 7.99664 C 5.44 g/m*3 8 C 0 km/h
447 02-01-2007 00:00:00 4.33083 C 4.79 g/m*3 4.33 C 0 km/h
448 03-01-2007 00:00:00 5.63417 C 5.28 g/m*3 5.63 C 0 km/h
449 04-01-2007 00:00:00 7.7525 C 5.33 g/m*3 7.75 C 0 km/h
450 05-01-2007 00:00:00 8.08667 C 5.69 g/m*3 8.09 C 0 km/h
Sensor: Nr:Datum:Temp:Abs-Feuchte:Windchill:Wind:
Aussen-T/F 451 06-01-2007 00:00:00 10.50333 C 7.18 g/m*3 10.5 C 0 km/h
452 07-01-2007 00:00:00 8.5725 C 5.21 g/m*3 8.57 C 0 km/h
453 08-01-2007 00:00:00 9.32667 C 5.75 g/m*3 9.33 C 0 km/h
454 09-01-2007 00:00:00 13.04333 C 7.07 g/m*3 13.04 C 0 km/h
455 10-01-2007 00:00:00 11.54333 C 5.64 g/m*3 11.54 C 0 km/h
456 11-01-2007 00:00:00 7.61933 C 4.64 g/m*3 7.62 C 0 km/h
457 12-01-2007 00:00:00 9.0325 C 4.92 g/m*3 9.03 C 0 km/h
458 13-01-2007 00:00:00 11.8175 C 6.14 g/m*3 11.82 C 0 km/h
459 14-01-2007 00:00:00 7.55833 C 4.65 g/m*3 7.56 C 0 km/h
460 15-01-2007 00:00:00 0.8725 C 4.34 g/m*3 0.87 C 0 km/h
461 16-01-2007 00:00:00 5.06583 C 4.9 g/m*3 5.07 C 0 km/h
462 17-01-2007 00:00:00 10.18333 C 6.05 g/m*3 10.18 C 0 km/h
463 18-01-2007 00:00:00 12.41833 C 7.26 g/m*3 12.42 C 0 km/h
464 19-01-2007 00:00:00 10.36667 C 6.21 g/m*3 10.37 C 0 km/h
465 20-01-2007 00:00:00 11.68917 C 6.43 g/m*3 11.69 C 0 km/h
466 21-01-2007 00:00:00 6.88167 C 3.9 g/m*3 6.88 C 0 km/h
467 22-01-2007 00:00:00 4.26167 C 3.78 g/m*3 4.26 C 0 km/h
468 23-01-2007 00:00:00 -1.075 C 1.21 g/m*3 -1.08 C 0 km/h
469 24-01-2007 00:00:00 -2.97 C 1.85 g/m*3 -2.97 C 0 km/h
470 25-01-2007 00:00:00 -3.4825 C 2.25 g/m*3 -3.48 C 0 km/h
471 26-01-2007 00:00:00 -3.23083 C 2.24 g/m*3 -3.23 C 0 km/h
472 27-01-2007 00:00:00 2.77 C 3.92 g/m*3 2.77 C 0 km/h
473 28-01-2007 00:00:00 4.49917 C 4.21 g/m*3 4.5 C 0 km/h
474 29-01-2007 00:00:00 7.0175 C 5.25 g/m*3 7.02 C 0 km/h
475 30-01-2007 00:00:00 6.84917 C 5.2 g/m*3 6.85 C 0 km/h
Sensor: Nr:Datum:Temp:Abs-Feuchte:Windchill:Wind:
Aussen-T/F 476 31-01-2007 00:00:00 6.82583 C 4.18 g/m*3 6.83 C 0 km/h
477 01-02-2007 00:00:00 7.76667 C 5.68 g/m*3 7.77 C 0 km/h
478 02-02-2007 00:00:00 8.26583 C 6.84 g/m*3 8.27 C 0 km/h
479 03-02-2007 00:00:00 6.285 C 4.67 g/m*3 6.29 C 0 km/h
480 04-02-2007 00:00:00 5.90667 C 4.74 g/m*3 5.91 C 0 km/h
481 05-02-2007 00:00:00 2.19664 C 4.27 g/m*3 2.2 C 0 km/h
482 06-02-2007 00:00:00 3.33417 C 4.06 g/m*3 3.33 C 0 km/h
483 07-02-2007 00:00:00 1.63417 C 4.12 g/m*3 1.63 C 0 km/h
484 08-02-2007 00:00:00 2.62167 C 4.23 g/m*3 2.62 C 0 km/h
485 09-02-2007 00:00:00 5.79167 C 3.84 g/m*3 5.79 C 0 km/h
486 10-02-2007 00:00:00 5.48667 C 5.34 g/m*3 5.49 C 0 km/h
487 11-02-2007 00:00:00 7.70667 C 5.71 g/m*3 7.71 C 0 km/h
488 12-02-2007 00:00:00 8.33083 C 5.62 g/m*3 8.33 C 0 km/h
489 13-02-2007 00:00:00 7.8175 C 4.79 g/m*3 7.82 C 0 km/h
490 14-02-2007 00:00:00 5.82083 C 5.14 g/m*3 5.82 C 0 km/h
491 15-02-2007 00:00:00 7.37917 C 4.4 g/m*3 7.38 C 0 km/h
492 16-02-2007 00:00:00 4.61583 C 4.23 g/m*3 4.62 C 0 km/h
493 17-02-2007 00:00:00 4.92083 C 3.9 g/m*3 4.92 C 0 km/h
494 18-02-2007 00:00:00 3.4775 C 4.32 g/m*3 3.48 C 0 km/h
495 19-02-2007 00:00:00 5.4675 C 4.34 g/m*3 5.47 C 0 km/h
496 20-02-2007 00:00:00 7.09583 C 4.63 g/m*3 7.1 C 0 km/h
497 21-02-2007 00:00:00 5.63083 C 4.98 g/m*3 5.63 C 0 km/h
498 22-02-2007 00:00:00 7.10583 C 5.19 g/m*3 7.11 C 0 km/h
499 23-02-2007 00:00:00 9.02333 C 5.53 g/m*3 9.02 C 0 km/h
500 24-02-2007 00:00:00 8.47917 C 6.6 g/m*3 8.48 C 0 km/h
Sensor: Nr:Datum:Temp:Abs-Feuchte:Windchill:Wind:
Aussen-T/F 501 25-02-2007 00:00:00 7.975 C 5.55 g/m*3 7.98 C 0 km/h
502 26-02-2007 00:00:00 6.53667 C 5.43 g/m*3 6.54 C 0 km/h
503 27-02-2007 00:00:00 6.38333 C 4.96 g/m*3 6.38 C 0 km/h
504 28-02-2007 00:00:00 10.44667 C 5.35 g/m*3 10.45 C 0 km/h
505 01-03-2007 00:00:00 9.04667 C 5.11 g/m*3 9.05 C 0 km/h
506 02-03-2007 00:00:00 6.77917 C 3.71 g/m*3 6.78 C 0 km/h
507 03-03-2007 00:00:00 6.66639 C 4.88 g/m*3 6.67 C 0 km/h
508 04-03-2007 00:00:00 7.69833 C 4.83 g/m*3 7.7 C 0 km/h
509 05-03-2007 00:00:00 10.24667 C 4.19 g/m*3 10.25 C 0 km/h
510 06-03-2007 00:00:00 9.76083 C 4.14 g/m*3 9.76 C 0 km/h
511 07-03-2007 00:00:00 9.16417 C 4.96 g/m*3 9.16 C 0 km/h
512 08-03-2007 00:00:00 7.035 C 4.54 g/m*3 7.04 C 0 km/h
513 09-03-2007 00:00:00 6.3175 C 4.84 g/m*3 6.32 C 0 km/h
514 10-03-2007 00:00:00 7.155 C 4.37 g/m*3 7.16 C 0 km/h
515 11-03-2007 00:00:00 7.3175 C 4.45 g/m*3 7.32 C 0 km/h
516 12-03-2007 00:00:00 8.52833 C 4.75 g/m*3 8.53 C 0 km/h
517 13-03-2007 00:00:00 9.0475 C 5.4 g/m*3 9.05 C 0 km/h
518 14-03-2007 00:00:00 10.57395 C 5.78 g/m*3 10.57 C 0 km/h
519 15-03-2007 00:00:00 8.44333 C 5.18 g/m*3 8.44 C 0 km/h
520 16-03-2007 00:00:00 7.8175 C 5.18 g/m*3 7.82 C 0 km/h
521 17-03-2007 00:00:00 8.70833 C 6.38 g/m*3 8.71 C 0 km/h
522 18-03-2007 00:00:00 7.715 C 5.51 g/m*3 7.72 C 0 km/h
523 19-03-2007 00:00:00 4.56333 C 4 g/m*3 4.56 C 0 km/h
524 20-03-2007 00:00:00 4.1325 C 4.47 g/m*3 4.13 C 0 km/h
525 21-03-2007 00:00:00 4.47417 C 4.53 g/m*3 4.47 C 0 km/h
Sensor: Nr:Datum:Temp:Abs-Feuchte:Windchill:Wind:
Aussen-T/F 526 22-03-2007 00:00:00 2.25667 C 5.17 g/m*3 2.26 C 0 km/h
527 23-03-2007 00:00:00 3.37333 C 5.31 g/m*3 3.37 C 0 km/h
528 24-03-2007 00:00:00 5.37333 C 6.27 g/m*3 5.37 C 0 km/h
529 25-03-2007 00:00:00 8.58101 C 5.72 g/m*3 8.58 C 0 km/h
530 26-03-2007 00:00:00 14.9957 C 4.93 g/m*3 15 C 0 km/h
531 27-03-2007 00:00:00 11.65 C 4.69 g/m*3 11.65 C 0 km/h
532 28-03-2007 00:00:00 11.65313 C 4.21 g/m*3 11.65 C 0 km/h
533 29-03-2007 00:00:00 9.75 C 5.52 g/m*3 9.75 C 0 km/h
534 30-03-2007 00:00:00 10.73785 C 6.65 g/m*3 10.74 C 0 km/h
535 31-03-2007 00:00:00 10.49618 C 6.1 g/m*3 10.5 C 0 km/h
536 01-04-2007 00:00:00 13.71707 C 4.51 g/m*3 13.72 C 0 km/h
537 02-04-2007 00:00:00 13.59583 C 4.59 g/m*3 13.6 C 0 km/h
538 03-04-2007 00:00:00 8.94861 C 4.81 g/m*3 8.95 C 0 km/h
539 04-04-2007 00:00:00 9.66076 C 3.85 g/m*3 9.66 C 0 km/h
540 05-04-2007 00:00:00 8.81528 C 4.24 g/m*3 8.82 C 0 km/h
541 06-04-2007 00:00:00 12.12431 C 6.2 g/m*3 12.12 C 0 km/h
542 07-04-2007 00:00:00 9.61533 C 5.4 g/m*3 9.62 C 0 km/h
543 08-04-2007 00:00:00 9.79306 C 5.37 g/m*3 9.79 C 0 km/h
544 09-04-2007 00:00:00 11.52465 C 5.47 g/m*3 11.52 C 0 km/h
545 10-04-2007 00:00:00 11.94688 C 6.26 g/m*3 11.95 C 0 km/h
546 11-04-2007 00:00:00 10.93697 C 6.87 g/m*3 10.94 C 0 km/h
547 12-04-2007 00:00:00 16.75 C 7.24 g/m*3 16.75 C 0 km/h
548 13-04-2007 00:00:00 19.17708 C 8 g/m*3 19.18 C 0 km/h
549 14-04-2007 00:00:00 21.16042 C 7.77 g/m*3 21.16 C 0 km/h
550 15-04-2007 00:00:00 20.80833 C 7.27 g/m*3 20.81 C 0 km/h
Sensor: Nr:Datum:Temp:Abs-Feuchte:Windchill:Wind:
Aussen-T/F 551 16-04-2007 00:00:00 19.4375 C 6.62 g/m*3 19.44 C 0 km/h
552 17-04-2007 00:00:00 14.74271 C 6.57 g/m*3 14.74 C 0 km/h
553 18-04-2007 00:00:00 11.07188 C 4.76 g/m*3 11.07 C 0 km/h
554 19-04-2007 00:00:00 11.67188 C 5.25 g/m*3 11.67 C 0 km/h
555 20-04-2007 00:00:00 12.26458 C 4.91 g/m*3 12.26 C 0 km/h
556 21-04-2007 00:00:00 11.89271 C 4.5 g/m*3 11.89 C 0 km/h
557 22-04-2007 00:00:00 15.65729 C 5.54 g/m*3 15.66 C 0 km/h
558 23-04-2007 00:00:00 17.48021 C 6.48 g/m*3 17.48 C 0 km/h
559 24-04-2007 00:00:00 20.85102 C 8.12 g/m*3 20.85 C 0 km/h
560 25-04-2007 00:00:00 22.135 C 8.68 g/m*3 22.14 C 0 km/h
561 26-04-2007 00:00:00 21.16 C 7.81 g/m*3 21.16 C 0 km/h
562 27-04-2007 00:00:00 20.46303 C 7.42 g/m*3 20.46 C 0 km/h
563 28-04-2007 00:00:00 20.92083 C 7.71 g/m*3 20.92 C 0 km/h
564 29-04-2007 00:00:00 19.75583 C 7.1 g/m*3 19.76 C 0 km/h
565 30-04-2007 00:00:00 16.78917 C 4.21 g/m*3 16.79 C 0 km/h
566 01-05-2007 00:00:00 16.47083 C 4.66 g/m*3 16.47 C 0 km/h
567 02-05-2007 00:00:00 16.09167 C 3.81 g/m*3 16.09 C 0 km/h
568 03-05-2007 00:00:00 17.355 C 5.15 g/m*3 17.36 C 0 km/h
569 04-05-2007 00:00:00 18.835 C 5.97 g/m*3 18.84 C 0 km/h
570 05-05-2007 00:00:00 17.5975 C 6.18 g/m*3 17.6 C 0 km/h
571 06-05-2007 00:00:00 16.51167 C 7.41 g/m*3 16.51 C 0 km/h
572 07-05-2007 00:00:00 15.5625 C 8.64 g/m*3 15.56 C 0 km/h
573 08-05-2007 00:00:00 14.1825 C 7.73 g/m*3 14.18 C 0 km/h
574 09-05-2007 00:00:00 12.76917 C 8.87 g/m*3 12.77 C 0 km/h
575 10-05-2007 00:00:00 17.70667 C 8.53 g/m*3 17.71 C 0 km/h
Sensor: Nr:Datum:Temp:Abs-Feuchte:Windchill:Wind:
Aussen-T/F 576 11-05-2007 00:00:00 15.535 C 6.56 g/m*3 15.54 C 0 km/h
577 12-05-2007 00:00:00 15.02689 C 7.96 g/m*3 15.03 C 0 km/h
578 13-05-2007 00:00:00 17.04333 C 8.98 g/m*3 17.04 C 0 km/h
579 14-05-2007 00:00:00 15.98917 C 7.81 g/m*3 15.99 C 0 km/h
580 15-05-2007 00:00:00 13.36917 C 7.46 g/m*3 13.37 C 0 km/h
581 16-05-2007 00:00:00 12.17917 C 7.6 g/m*3 12.18 C 0 km/h
582 17-05-2007 00:00:00 10.8525 C 7.97 g/m*3 10.85 C 0 km/h
583 18-05-2007 00:00:00 14.6325 C 8.23 g/m*3 14.63 C 0 km/h
584 19-05-2007 00:00:00 18.53583 C 10.39 g/m*3 18.54 C 0 km/h
585 20-05-2007 00:00:00 21.92667 C 9.73 g/m*3 21.93 C 0 km/h
586 21-05-2007 00:00:00 22.61667 C 11.44 g/m*3 22.62 C 0 km/h
587 22-05-2007 00:00:00 22.86667 C 11.78 g/m*3 22.87 C 0 km/h
588 23-05-2007 00:00:00 20.8675 C 11.32 g/m*3 20.87 C 0 km/h
589 24-05-2007 00:00:00 23.91417 C 11.42 g/m*3 23.91 C 0 km/h
590 25-05-2007 00:00:00 24.57059 C 11.78 g/m*3 24.57 C 0 km/h
591 26-05-2007 00:00:00 21.745 C 12.71 g/m*3 21.75 C 0 km/h
592 27-05-2007 00:00:00 17.5125 C 9.85 g/m*3 17.51 C 0 km/h
593 28-05-2007 00:00:00 12.24917 C 8.51 g/m*3 12.25 C 0 km/h
594 29-05-2007 00:00:00 11.033 C 7.93 g/m*3 11.03 C 0 km/h
595 30-05-2007 00:00:00 13.67465 C 6.29 g/m*3 13.67 C 0 km/h
596 31-05-2007 00:00:00 16.05139 C 8.28 g/m*3 16.05 C 0 km/h
597 01-06-2007 00:00:00 15.42361 C 9.57 g/m*3 15.42 C 0 km/h
598 02-06-2007 00:00:00 18.53611 C 9.82 g/m*3 18.54 C 0 km/h
599 03-06-2007 00:00:00 20.87083 C 10.1 g/m*3 20.87 C 0 km/h
600 04-06-2007 00:00:00 22.02361 C 10.59 g/m*3 22.02 C 0 km/h
Sensor: Nr:Datum:Temp:Abs-Feuchte:Windchill:Wind:
Aussen-T/F 601 05-06-2007 00:00:00 21.66389 C 10.23 g/m*3 21.66 C 0 km/h
602 06-06-2007 00:00:00 22.53889 C 10.59 g/m*3 22.54 C 0 km/h
603 07-06-2007 00:00:00 25.42222 C 11.36 g/m*3 25.42 C 0 km/h
604 08-06-2007 00:00:00 26.47639 C 11.42 g/m*3 26.48 C 0 km/h
605 09-06-2007 00:00:00 23.12917 C 12.28 g/m*3 23.13 C 0 km/h
606 10-06-2007 00:00:00 21.28889 C 12.55 g/m*3 21.29 C 0 km/h
607 11-06-2007 00:00:00 21.88068 C 11.9 g/m*3 21.88 C 0 km/h
608 12-06-2007 00:00:00 20.17167 C 11.8 g/m*3 20.17 C 0 km/h
609 13-06-2007 00:00:00 21.51176 C 10.38 g/m*3 21.51 C 0 km/h
610 14-06-2007 00:00:00 22.15833 C 12.13 g/m*3 22.16 C 0 km/h
611 15-06-2007 00:00:00 19.84667 C 11.6 g/m*3 19.85 C 0 km/h
612 16-06-2007 00:00:00 18.0125 C 9.3 g/m*3 18.01 C 0 km/h
613 17-06-2007 00:00:00 20.0125 C 9.63 g/m*3 20.01 C 0 km/h
614 18-06-2007 00:00:00 20.92583 C 11.23 g/m*3 20.93 C 0 km/h
615 19-06-2007 00:00:00 23.70833 C 11.18 g/m*3 23.71 C 0 km/h
616 20-06-2007 00:00:00 23.68667 C 12.04 g/m*3 23.69 C 0 km/h
617 21-06-2007 00:00:00 18.30167 C 12.42 g/m*3 18.3 C 0 km/h
618 22-06-2007 00:00:00 16.06417 C 10.95 g/m*3 16.06 C 0 km/h
619 23-06-2007 00:00:00 16.04167 C 10.56 g/m*3 16.04 C 0 km/h
620 24-06-2007 00:00:00 19.31667 C 10.02 g/m*3 19.32 C 0 km/h
621 25-06-2007 00:00:00 18.13667 C 10.86 g/m*3 18.14 C 0 km/h
622 26-06-2007 00:00:00 13.90667 C 8.35 g/m*3 13.91 C 0 km/h
623 27-06-2007 00:00:00 14.2225 C 6.63 g/m*3 14.22 C 0 km/h
624 28-06-2007 00:00:00 15.82833 C 7.44 g/m*3 15.83 C 0 km/h
625 29-06-2007 00:00:00 16.88417 C 8.32 g/m*3 16.88 C 0 km/h
Sensor: Nr:Datum:Temp:Abs-Feuchte:Windchill:Wind:
Aussen-T/F 626 30-06-2007 00:00:00 18.675 C 9.69 g/m*3 18.68 C 0 km/h
627 01-07-2007 00:00:00 20.8525 C 10.65 g/m*3 20.85 C 0 km/h
628 02-07-2007 00:00:00 19.54917 C 10.43 g/m*3 19.55 C 0 km/h
629 03-07-2007 00:00:00 15.42583 C 9.84 g/m*3 15.43 C 0 km/h
630 04-07-2007 00:00:00 15.17417 C 8.93 g/m*3 15.17 C 0 km/h
631 05-07-2007 00:00:00 15.1325 C 9.55 g/m*3 15.13 C 0 km/h
632 06-07-2007 00:00:00 17.63613 C 8.26 g/m*3 17.64 C 0 km/h
633 07-07-2007 00:00:00 18.55167 C 7.14 g/m*3 18.55 C 0 km/h
634 08-07-2007 00:00:00 19.8175 C 8.32 g/m*3 19.82 C 0 km/h
635 09-07-2007 00:00:00 17.15583 C 9.38 g/m*3 17.16 C 0 km/h
636 10-07-2007 00:00:00 14.66583 C 9.37 g/m*3 14.67 C 0 km/h
637 11-07-2007 00:00:00 14.37833 C 9.44 g/m*3 14.38 C 0 km/h
638 12-07-2007 00:00:00 17.7 C 9.66 g/m*3 17.7 C 0 km/h
639 13-07-2007 00:00:00 22.43167 C 11.88 g/m*3 22.43 C 0 km/h
640 14-07-2007 00:00:00 25.05 C 11.69 g/m*3 25.05 C 0 km/h
641 15-07-2007 00:00:00 27.2075 C 11.44 g/m*3 27.21 C 0 km/h
642 16-07-2007 00:00:00 26.8025 C 8.93 g/m*3 26.8 C 0 km/h
643 17-07-2007 00:00:00 25.11167 C 8.56 g/m*3 25.11 C 0 km/h
644 18-07-2007 00:00:00 22.78 C 9.2 g/m*3 22.78 C 0 km/h
645 19-07-2007 00:00:00 20.29333 C 11.02 g/m*3 20.29 C 0 km/h
646 20-07-2007 00:00:00 22.04917 C 12.14 g/m*3 22.05 C 0 km/h
647 21-07-2007 00:00:00 19.74917 C 9.69 g/m*3 19.75 C 0 km/h
648 22-07-2007 00:00:00 19.89917 C 8.33 g/m*3 19.9 C 0 km/h
649 23-07-2007 00:00:00 16.33333 C 10.14 g/m*3 16.33 C 0 km/h
650 24-07-2007 00:00:00 16.72667 C 9.48 g/m*3 16.73 C 0 km/h
Sensor: Nr:Datum:Temp:Abs-Feuchte:Windchill:Wind:
Aussen-T/F 651 25-07-2007 00:00:00 19.68571 C 8.82 g/m*3 19.69 C 0 km/h
652 26-07-2007 00:00:00 21.75583 C 9.38 g/m*3 21.76 C 0 km/h
653 27-07-2007 00:00:00 22.4675 C 8.25 g/m*3 22.47 C 0 km/h
654 28-07-2007 00:00:00 21.095 C 10.2 g/m*3 21.1 C 0 km/h
655 29-07-2007 00:00:00 17.3075 C 9.52 g/m*3 17.31 C 0 km/h
656 30-07-2007 00:00:00 14.66167 C 6.94 g/m*3 14.66 C 0 km/h
657 31-07-2007 00:00:00 15.68167 C 6.71 g/m*3 15.68 C 0 km/h
658 01-08-2007 00:00:00 18.53833 C 7.48 g/m*3 18.54 C 0 km/h
659 02-08-2007 00:00:00 18.3275 C 9.54 g/m*3 18.33 C 0 km/h
660 03-08-2007 00:00:00 19.78083 C 8.92 g/m*3 19.78 C 0 km/h
661 04-08-2007 00:00:00 21.05 C 8.85 g/m*3 21.05 C 0 km/h
662 05-08-2007 00:00:00 23.69833 C 9.12 g/m*3 23.7 C 0 km/h
663 06-08-2007 00:00:00 24.23417 C 9.32 g/m*3 24.23 C 0 km/h
664 07-08-2007 00:00:00 18.36167 C 12.63 g/m*3 18.36 C 0 km/h
665 08-08-2007 00:00:00 16.0175 C 11.01 g/m*3 16.02 C 0 km/h
666 09-08-2007 00:00:00 14.26667 C 11.55 g/m*3 14.27 C 0 km/h
667 10-08-2007 00:00:00 17.82833 C 13.5 g/m*3 17.83 C 0 km/h
668 11-08-2007 00:00:00 19.64083 C 11.07 g/m*3 19.64 C 0 km/h
669 12-08-2007 00:00:00 20.07417 C 10.09 g/m*3 20.07 C 0 km/h
670 13-08-2007 00:00:00 20.9175 C 10.13 g/m*3 20.92 C 0 km/h
671 14-08-2007 00:00:00 20.9275 C 9.64 g/m*3 20.93 C 0 km/h
672 15-08-2007 00:00:00 23.49917 C 12.92 g/m*3 23.5 C 0 km/h
673 16-08-2007 00:00:00 18.74667 C 10.51 g/m*3 18.75 C 0 km/h
674 17-08-2007 00:00:00 17.27833 C 8.08 g/m*3 17.28 C 0 km/h
675 18-08-2007 00:00:00 17.40917 C 8.03 g/m*3 17.41 C 0 km/h
Sensor: Nr:Datum:Temp:Abs-Feuchte:Windchill:Wind:
Aussen-T/F 676 19-08-2007 00:00:00 17.24583 C 9.91 g/m*3 17.25 C 0 km/h
677 20-08-2007 00:00:00 17.315 C 9.7 g/m*3 17.32 C 0 km/h
678 21-08-2007 00:00:00 15.4225 C 10.31 g/m*3 15.42 C 0 km/h
679 22-08-2007 00:00:00 15.95593 C 11.84 g/m*3 15.96 C 0 km/h
680 23-08-2007 00:00:00 17.7575 C 11.98 g/m*3 17.76 C 0 km/h
681 24-08-2007 00:00:00 19.43833 C 11.56 g/m*3 19.44 C 0 km/h
682 25-08-2007 00:00:00 21.42 C 11.91 g/m*3 21.42 C 0 km/h
683 26-08-2007 00:00:00 21.99167 C 12.1 g/m*3 21.99 C 0 km/h
684 27-08-2007 00:00:00 19.53583 C 8.84 g/m*3 19.54 C 0 km/h
685 28-08-2007 00:00:00 16.42167 C 8.1 g/m*3 16.42 C 0 km/h
686 29-08-2007 00:00:00 17.285 C 6.71 g/m*3 17.29 C 0 km/h
687 30-08-2007 00:00:00 15.3675 C 7.01 g/m*3 15.37 C 0 km/h
688 31-08-2007 00:00:00 17.5825 C 9.89 g/m*3 17.58 C 0 km/h
689 01-09-2007 00:00:00 17.1975 C 10.01 g/m*3 17.2 C 0 km/h
690 02-09-2007 00:00:00 17.35583 C 9 g/m*3 17.36 C 0 km/h
691 03-09-2007 00:00:00 15.74917 C 9.08 g/m*3 15.75 C 0 km/h
692 04-09-2007 00:00:00 12.88417 C 7.04 g/m*3 12.88 C 0 km/h
693 05-09-2007 00:00:00 12.6395 C 6.92 g/m*3 12.64 C 0 km/h
694 06-09-2007 00:00:00 15.00917 C 9.43 g/m*3 15.01 C 0 km/h
695 07-09-2007 00:00:00 15.9325 C 9.22 g/m*3 15.93 C 0 km/h
696 08-09-2007 00:00:00 15.13667 C 10.05 g/m*3 15.14 C 0 km/h
697 09-09-2007 00:00:00 15.125 C 9.17 g/m*3 15.13 C 0 km/h
698 10-09-2007 00:00:00 12.4075 C 8.68 g/m*3 12.41 C 0 km/h
699 11-09-2007 00:00:00 14.36833 C 8.61 g/m*3 14.37 C 0 km/h
700 12-09-2007 00:00:00 14.94417 C 8.54 g/m*3 14.94 C 0 km/h
Sensor: Nr:Datum:Temp:Abs-Feuchte:Windchill:Wind:
Aussen-T/F 701 13-09-2007 00:00:00 14.5175 C 8.49 g/m*3 14.52 C 0 km/h
702 14-09-2007 00:00:00 15.68417 C 8.62 g/m*3 15.68 C 0 km/h
703 15-09-2007 00:00:00 16.86917 C 8.24 g/m*3 16.87 C 0 km/h
704 16-09-2007 00:00:00 15.27 C 8.22 g/m*3 15.27 C 0 km/h
705 17-09-2007 00:00:00 16.68833 C 10.1 g/m*3 16.69 C 0 km/h
706 18-09-2007 00:00:00 11.46833 C 8.27 g/m*3 11.47 C 0 km/h
707 19-09-2007 00:00:00 10.3275 C 6.41 g/m*3 10.33 C 0 km/h
708 20-09-2007 00:00:00 13.68083 C 7.03 g/m*3 13.68 C 0 km/h
709 21-09-2007 00:00:00 14.35833 C 7.71 g/m*3 14.36 C 0 km/h
710 22-09-2007 00:00:00 15.97583 C 8.74 g/m*3 15.98 C 0 km/h
711 23-09-2007 00:00:00 17.80333 C 9.5 g/m*3 17.8 C 0 km/h
712 24-09-2007 00:00:00 16.95833 C 9.49 g/m*3 16.96 C 0 km/h
713 25-09-2007 00:00:00 12.91917 C 7.71 g/m*3 12.92 C 0 km/h
714 26-09-2007 00:00:00 12.2675 C 7.86 g/m*3 12.27 C 0 km/h
715 27-09-2007 00:00:00 10.19083 C 8.85 g/m*3 10.19 C 0 km/h
716 28-09-2007 00:00:00 12.50168 C 8.71 g/m*3 12.5 C 0 km/h
717 29-09-2007 00:00:00 13.54444 C 8.6 g/m*3 13.54 C 0 km/h
718 30-09-2007 00:00:00 14.59687 C 9.12 g/m*3 14.6 C 0 km/h
719 01-10-2007 00:00:00 14.70313 C 9.71 g/m*3 14.7 C 0 km/h
720 02-10-2007 00:00:00 17.235 C 11.49 g/m*3 17.24 C 0 km/h
721 03-10-2007 00:00:00 17.39188 C 11.47 g/m*3 17.39 C 0 km/h
722 04-10-2007 00:00:00 17.33653 C 11.53 g/m*3 17.34 C 0 km/h
723 05-10-2007 00:00:00 15.50646 C 8.72 g/m*3 15.51 C 0 km/h
724 06-10-2007 00:00:00 12.34042 C 7.59 g/m*3 12.34 C 0 km/h
725 07-10-2007 00:00:00 11.60813 C 7.69 g/m*3 11.61 C 0 km/h
Sensor: Nr:Datum:Temp:Abs-Feuchte:Windchill:Wind:
Aussen-T/F 726 08-10-2007 00:00:00 10.74021 C 7.53 g/m*3 10.74 C 0 km/h
727 09-10-2007 00:00:00 12.05052 C 8.1 g/m*3 12.05 C 0 km/h
728 10-10-2007 00:00:00 14.53875 C 8.04 g/m*3 14.54 C 0 km/h
729 11-10-2007 00:00:00 11.52958 C 7.34 g/m*3 11.53 C 0 km/h
730 12-10-2007 00:00:00 12.23271 C 8.24 g/m*3 12.23 C 0 km/h
731 13-10-2007 00:00:00 13.96146 C 7.82 g/m*3 13.96 C 0 km/h
732 14-10-2007 00:00:00 9.94958 C 6.47 g/m*3 9.95 C 0 km/h
733 15-10-2007 00:00:00 10.725 C 7.35 g/m*3 10.73 C 0 km/h
734 16-10-2007 00:00:00 13.70417 C 8.35 g/m*3 13.7 C 0 km/h
735 17-10-2007 00:00:00 11.78601 C 8.39 g/m*3 11.79 C 0 km/h
736 18-10-2007 00:00:00 9.70042 C 6.45 g/m*3 9.7 C 0 km/h
737 19-10-2007 00:00:00 7.65667 C 6.17 g/m*3 7.66 C 0 km/h
738 20-10-2007 00:00:00 3.38583 C 5.54 g/m*3 3.39 C 0 km/h
739 24-10-2007 00:00:00 7.63803 C 5.69 g/m*3 7.64 C 0 km/h
740 25-10-2007 00:00:00 8.51042 C 6.26 g/m*3 8.51 C 0 km/h
741 26-10-2007 00:00:00 8.8712 C 6.03 g/m*3 8.87 C 0 km/h
742 27-10-2007 00:00:00 8.5725 C 5.85 g/m*3 8.57 C 0 km/h
743 28-10-2007 00:00:00 9.1632 C 5.9 g/m*3 9.16 C 0 km/h
744 29-10-2007 00:00:00 8.77833 C 7.07 g/m*3 8.78 C 0 km/h
745 30-10-2007 00:00:00 8.70333 C 7.3 g/m*3 8.7 C 0 km/h
746 31-10-2007 00:00:00 6.43333 C 6.44 g/m*3 6.43 C 0 km/h
747 01-11-2007 00:00:00 5.77833 C 6.04 g/m*3 5.78 C 0 km/h
748 02-11-2007 00:00:00 10.20333 C 8.52 g/m*3 10.2 C 0 km/h
749 03-11-2007 00:00:00 11.76723 C 9.64 g/m*3 11.77 C 0 km/h
750 04-11-2007 00:00:00 10.35 C 6.84 g/m*3 10.35 C 0 km/h
Sensor: Nr:Datum:Temp:Abs-Feuchte:Windchill:Wind:
Aussen-T/F 751 05-11-2007 00:00:00 8.61333 C 5.38 g/m*3 8.61 C 0 km/h
752 06-11-2007 00:00:00 8.1225 C 5.88 g/m*3 8.12 C 0 km/h
753 07-11-2007 00:00:00 8.495 C 6.13 g/m*3 8.49 C 0 km/h
754 08-11-2007 00:00:00 9.85667 C 7.21 g/m*3 9.86 C 0 km/h
755 09-11-2007 00:00:00 5.16167 C 5.11 g/m*3 5.16 C 0 km/h
756 10-11-2007 00:00:00 6.29083 C 5.92 g/m*3 6.29 C 0 km/h
757 11-11-2007 00:00:00 7.75917 C 6.67 g/m*3 7.76 C 0 km/h
758 12-11-2007 00:00:00 5.1475 C 4.79 g/m*3 5.15 C 0 km/h
759 13-11-2007 00:00:00 3.98167 C 5.14 g/m*3 3.98 C 0 km/h
760 14-11-2007 00:00:00 2.72417 C 4.37 g/m*3 2.72 C 0 km/h
761 15-11-2007 00:00:00 1.3425 C 3.82 g/m*3 1.34 C 0 km/h
762 16-11-2007 00:00:00 -0.59167 C 3.84 g/m*3 -0.59 C 0 km/h
763 17-11-2007 00:00:00 3.35714 C 4.68 g/m*3 3.36 C 0 km/h
764 18-11-2007 00:00:00 3.3825 C 4.91 g/m*3 3.38 C 0 km/h
765 19-11-2007 00:00:00 2.57333 C 4.34 g/m*3 2.57 C 0 km/h
766 20-11-2007 00:00:00 5.33 C 4.59 g/m*3 5.33 C 0 km/h
767 21-11-2007 00:00:00 6.755 C 5.66 g/m*3 6.76 C 0 km/h
768 22-11-2007 00:00:00 7.93917 C 6.65 g/m*3 7.94 C 0 km/h
769 23-11-2007 00:00:00 6.7275 C 6.81 g/m*3 6.73 C 0 km/h
770 24-11-2007 00:00:00 2.76833 C 4.82 g/m*3 2.77 C 0 km/h
771 25-11-2007 00:00:00 4.25167 C 5.29 g/m*3 4.25 C 0 km/h
772 26-11-2007 00:00:00 3.9725 C 4.66 g/m*3 3.97 C 0 km/h
773 27-11-2007 00:00:00 4.23833 C 4.68 g/m*3 4.24 C 0 km/h
774 28-11-2007 00:00:00 0.0625 C 4.32 g/m*3 0.06 C 0 km/h
775 29-11-2007 00:00:00 1.3325 C 4.59 g/m*3 1.33 C 0 km/h
Sensor: Nr:Datum:Temp:Abs-Feuchte:Windchill:Wind:
Aussen-T/F 776 30-11-2007 00:00:00 5.76 C 5.7 g/m*3 5.76 C 0 km/h
777 01-12-2007 00:00:00 8.51345 C 5.82 g/m*3 8.51 C 0 km/h
778 02-12-2007 00:00:00 9.13667 C 6.27 g/m*3 9.14 C 0 km/h
779 03-12-2007 00:00:00 7.21167 C 4.97 g/m*3 7.21 C 0 km/h
780 04-12-2007 00:00:00 5.77583 C 5.61 g/m*3 5.78 C 0 km/h
781 05-12-2007 00:00:00 10.11667 C 7.2 g/m*3 10.12 C 0 km/h
782 06-12-2007 00:00:00 9.85667 C 6.67 g/m*3 9.86 C 0 km/h
783 07-12-2007 00:00:00 10.3625 C 6.09 g/m*3 10.36 C 0 km/h
784 08-12-2007 00:00:00 5.77917 C 4.69 g/m*3 5.78 C 0 km/h
785 09-12-2007 00:00:00 7.00333 C 5.75 g/m*3 7 C 0 km/h
786 10-12-2007 00:00:00 6.24167 C 6.16 g/m*3 6.24 C 0 km/h
787 11-12-2007 00:00:00 5.6775 C 5.39 g/m*3 5.68 C 0 km/h
788 12-12-2007 00:00:00 4.92417 C 5 g/m*3 4.92 C 0 km/h
789 13-12-2007 00:00:00 5.2125 C 4.36 g/m*3 5.21 C 0 km/h
790 14-12-2007 00:00:00 2.35798 C 2.96 g/m*3 2.36 C 0 km/h
791 15-12-2007 00:00:00 0.0325 C 2.86 g/m*3 0.03 C 0 km/h
792 16-12-2007 00:00:00 -2.92417 C 2.98 g/m*3 -2.92 C 0 km/h
793 17-12-2007 00:00:00 -1.06 C 2.85 g/m*3 -1.06 C 0 km/h
794 18-12-2007 00:00:00 -2.50833 C 3.14 g/m*3 -2.51 C 0 km/h
795 19-12-2007 00:00:00 -3.8675 C 3.09 g/m*3 -3.87 C 0 km/h
796 20-12-2007 00:00:00 -5.26417 C 2.9 g/m*3 -5.26 C 0 km/h
797 21-12-2007 00:00:00 -5.9625 C 2.72 g/m*3 -5.96 C 0 km/h
798 22-12-2007 00:00:00 -7.21833 C 2.43 g/m*3 -7.22 C 0 km/h
799 23-12-2007 00:00:00 -5.47333 C 2.81 g/m*3 -5.47 C 0 km/h
800 24-12-2007 00:00:00 -1.28333 C 4.01 g/m*3 -1.28 C 0 km/h
Sensor: Nr:Datum:Temp:Abs-Feuchte:Windchill:Wind:
Aussen-T/F 801 25-12-2007 00:00:00 -3.13917 C 3.2 g/m*3 -3.14 C 0 km/h
802 26-12-2007 00:00:00 -1.31513 C 3.83 g/m*3 -1.32 C 0 km/h
803 27-12-2007 00:00:00 2.63917 C 4.81 g/m*3 2.64 C 0 km/h
804 28-12-2007 00:00:00 4.575 C 5.27 g/m*3 4.58 C 0 km/h
805 29-12-2007 00:00:00 3.32667 C 4.84 g/m*3 3.33 C 0 km/h
806 30-12-2007 00:00:00 4.99167 C 5.24 g/m*3 4.99 C 0 km/h
807 31-12-2007 00:00:00 3.21667 C 5.19 g/m*3 3.22 C 0 km/h
808 01-01-2008 00:00:00 1.85083 C 4.52 g/m*3 1.85 C 0 km/h
809 02-01-2008 00:00:00 -1.72 C 3.21 g/m*3 -1.72 C 0 km/h
810 03-01-2008 00:00:00 -0.05667 C 2.87 g/m*3 -0.06 C 0 km/h
811 04-01-2008 00:00:00 0.27167 C 3.34 g/m*3 0.27 C 0 km/h
812 05-01-2008 00:00:00 5.0775 C 5.63 g/m*3 5.08 C 0 km/h
813 06-01-2008 00:00:00 3.95167 C 5.23 g/m*3 3.95 C 0 km/h
814 07-01-2008 00:00:00 5.63583 C 5.3 g/m*3 5.64 C 0 km/h
815 08-01-2008 00:00:00 4.45546 C 5.42 g/m*3 4.46 C 0 km/h
816 09-01-2008 00:00:00 4.03167 C 5.39 g/m*3 4.03 C 0 km/h
817 10-01-2008 00:00:00 6.32083 C 5.48 g/m*3 6.32 C 0 km/h
818 11-01-2008 00:00:00 9.6175 C 5.87 g/m*3 9.62 C 0 km/h
819 12-01-2008 00:00:00 6.39 C 5.01 g/m*3 6.39 C 0 km/h
820 13-01-2008 00:00:00 0.58167 C 4.26 g/m*3 0.58 C 0 km/h
821 14-01-2008 00:00:00 3.80833 C 4.9 g/m*3 3.81 C 0 km/h
822 15-01-2008 00:00:00 8.28833 C 5.12 g/m*3 8.29 C 0 km/h
823 16-01-2008 00:00:00 8.28667 C 5.35 g/m*3 8.29 C 0 km/h
824 17-01-2008 00:00:00 7.21833 C 5.52 g/m*3 7.22 C 0 km/h
825 18-01-2008 00:00:00 9.17667 C 6.31 g/m*3 9.18 C 0 km/h
Sensor: Nr:Datum:Temp:Abs-Feuchte:Windchill:Wind:
Aussen-T/F 826 19-01-2008 00:00:00 12.72353 C 7.44 g/m*3 12.72 C 0 km/h
827 20-01-2008 00:00:00 12.27333 C 6.9 g/m*3 12.27 C 0 km/h
828 21-01-2008 00:00:00 10.17403 C 5.8 g/m*3 10.17 C 0 km/h
829 22-01-2008 00:00:00 4.58605 C 4.01 g/m*3 4.59 C 0 km/h
830 23-01-2008 00:00:00 2.9125 C 3.92 g/m*3 2.91 C 0 km/h
831 24-01-2008 00:00:00 6.355 C 4.65 g/m*3 6.36 C 0 km/h
832 25-01-2008 00:00:00 3.72583 C 4.34 g/m*3 3.73 C 0 km/h
833 26-01-2008 00:00:00 5.43583 C 4.26 g/m*3 5.44 C 0 km/h
834 27-01-2008 00:00:00 5.64333 C 4.29 g/m*3 5.64 C 0 km/h
835 28-01-2008 00:00:00 7.44 C 5.19 g/m*3 7.44 C 0 km/h
836 29-01-2008 00:00:00 5.72167 C 4.29 g/m*3 5.72 C 0 km/h
837 30-01-2008 00:00:00 2.05833 C 4.71 g/m*3 2.06 C 0 km/h
838 31-01-2008 00:00:00 2.0958 C 3.82 g/m*3 2.1 C 0 km/h
839 01-02-2008 00:00:00 4.10167 C 4.83 g/m*3 4.1 C 0 km/h
840 02-02-2008 00:00:00 2.155 C 3.64 g/m*3 2.15 C 0 km/h
841 03-02-2008 00:00:00 0.64917 C 3.2 g/m*3 0.65 C 0 km/h
842 04-02-2008 00:00:00 4.5125 C 4.25 g/m*3 4.51 C 0 km/h
843 05-02-2008 00:00:00 6.43917 C 5.11 g/m*3 6.44 C 0 km/h
844 06-02-2008 00:00:00 8.675 C 5.72 g/m*3 8.68 C 0 km/h
845 07-02-2008 00:00:00 3.96333 C 4.24 g/m*3 3.96 C 0 km/h
846 08-02-2008 00:00:00 2.41167 C 3.87 g/m*3 2.41 C 0 km/h
847 09-02-2008 00:00:00 2.61833 C 3.61 g/m*3 2.62 C 0 km/h
848 10-02-2008 00:00:00 2.41333 C 3.74 g/m*3 2.41 C 0 km/h
849 11-02-2008 00:00:00 3.10083 C 4.4 g/m*3 3.1 C 0 km/h
850 12-02-2008 00:00:00 2.92667 C 4.49 g/m*3 2.93 C 0 km/h
Sensor: Nr:Datum:Temp:Abs-Feuchte:Windchill:Wind:
Aussen-T/F 851 13-02-2008 00:00:00 2.03193 C 4.33 g/m*3 2.03 C 0 km/h
852 14-02-2008 00:00:00 0.96667 C 4.4 g/m*3 0.97 C 0 km/h
853 15-02-2008 00:00:00 2.4125 C 3.13 g/m*3 2.41 C 0 km/h
854 16-02-2008 00:00:00 -0.75333 C 2.03 g/m*3 -0.75 C 0 km/h
855 17-02-2008 00:00:00 -1.21667 C 2.05 g/m*3 -1.22 C 0 km/h
856 18-02-2008 00:00:00 -0.28333 C 2.13 g/m*3 -0.28 C 0 km/h
857 19-02-2008 00:00:00 0.85417 C 2.54 g/m*3 0.85 C 0 km/h
858 20-02-2008 00:00:00 1.65 C 4.49 g/m*3 1.65 C 0 km/h
859 21-02-2008 00:00:00 6.5725 C 5.76 g/m*3 6.57 C 0 km/h
860 22-02-2008 00:00:00 9.70667 C 5.88 g/m*3 9.71 C 0 km/h
861 23-02-2008 00:00:00 9.48833 C 5.6 g/m*3 9.49 C 0 km/h
862 24-02-2008 00:00:00 6.65583 C 5.66 g/m*3 6.66 C 0 km/h
863 25-02-2008 00:00:00 9.93833 C 6.06 g/m*3 9.94 C 0 km/h
864 26-02-2008 00:00:00 11.1075 C 6.49 g/m*3 11.11 C 0 km/h
865 27-02-2008 00:00:00 7.70168 C 4.44 g/m*3 7.7 C 0 km/h
866 28-02-2008 00:00:00 7.6125 C 4.89 g/m*3 7.61 C 0 km/h
867 29-02-2008 00:00:00 8.7625 C 7.16 g/m*3 8.76 C 0 km/h
868 01-03-2008 00:00:00 9.4675 C 4.85 g/m*3 9.47 C 0 km/h
869 02-03-2008 00:00:00 11.1725 C 5.33 g/m*3 11.17 C 0 km/h
870 03-03-2008 00:00:00 7.56583 C 4.08 g/m*3 7.57 C 0 km/h
871 04-03-2008 00:00:00 2.7525 C 4.06 g/m*3 2.75 C 0 km/h
872 05-03-2008 00:00:00 1.71 C 3.03 g/m*3 1.71 C 0 km/h
873 06-03-2008 00:00:00 2.81917 C 2.99 g/m*3 2.82 C 0 km/h
874 07-03-2008 00:00:00 6.93833 C 4.72 g/m*3 6.94 C 0 km/h
875 08-03-2008 00:00:00 6.94667 C 4.5 g/m*3 6.95 C 0 km/h
Sensor: Nr:Datum:Temp:Abs-Feuchte:Windchill:Wind:
Aussen-T/F 876 09-03-2008 00:00:00 8.06667 C 4.11 g/m*3 8.07 C 0 km/h
877 10-03-2008 00:00:00 8.22941 C 4.32 g/m*3 8.23 C 0 km/h
878 11-03-2008 00:00:00 8.355 C 5.31 g/m*3 8.36 C 0 km/h
879 12-03-2008 00:00:00 9.11833 C 4.2 g/m*3 9.12 C 0 km/h
880 13-03-2008 00:00:00 7.62667 C 4.06 g/m*3 7.63 C 0 km/h
881 14-03-2008 00:00:00 9.14417 C 5.77 g/m*3 9.14 C 0 km/h
882 15-03-2008 00:00:00 9.33 C 5.42 g/m*3 9.33 C 0 km/h
883 16-03-2008 00:00:00 9.8675 C 6.68 g/m*3 9.87 C 0 km/h
884 17-03-2008 00:00:00 5.94583 C 3.99 g/m*3 5.95 C 0 km/h
885 18-03-2008 00:00:00 4.26083 C 3.07 g/m*3 4.26 C 0 km/h
886 19-03-2008 00:00:00 3.37083 C 3.9 g/m*3 3.37 C 0 km/h
887 20-03-2008 00:00:00 3.89083 C 4.07 g/m*3 3.89 C 0 km/h
888 21-03-2008 00:00:00 3.9975 C 4.22 g/m*3 4 C 0 km/h
889 22-03-2008 00:00:00 2.82917 C 4.71 g/m*3 2.83 C 0 km/h
890 23-03-2008 00:00:00 1.56639 C 2.31 g/m*3 1.57 C 0 km/h
891 24-03-2008 00:00:00 -0.00917 C 3.2 g/m*3 -0.01 C 0 km/h
892 25-03-2008 00:00:00 1.51333 C 3.09 g/m*3 1.51 C 0 km/h
893 26-03-2008 00:00:00 2.39667 C 4.29 g/m*3 2.4 C 0 km/h
894 27-03-2008 00:00:00 5.29417 C 5.44 g/m*3 5.29 C 0 km/h
895 28-03-2008 00:00:00 8.15333 C 4.14 g/m*3 8.15 C 0 km/h
896 29-03-2008 00:00:00 9.55083 C 3.95 g/m*3 9.55 C 0 km/h
897 30-03-2008 00:00:00 13.03217 C 4.01 g/m*3 13.03 C 0 km/h
898 31-03-2008 00:00:00 11.98333 C 5.6 g/m*3 11.98 C 0 km/h
899 01-04-2008 00:00:00 10.06833 C 5.37 g/m*3 10.07 C 0 km/h
900 02-04-2008 00:00:00 9.77417 C 5.52 g/m*3 9.77 C 0 km/h
Sensor: Nr:Datum:Temp:Abs-Feuchte:Windchill:Wind:
Aussen-T/F 901 03-04-2008 00:00:00 7.48 C 5.75 g/m*3 7.48 C 0 km/h
902 04-04-2008 00:00:00 9.15583 C 5.79 g/m*3 9.16 C 0 km/h
903 05-04-2008 00:00:00 7.49076 C 6.73 g/m*3 7.49 C 0 km/h
904 06-04-2008 00:00:00 3.825 C 5.64 g/m*3 3.83 C 0 km/h
905 07-04-2008 00:00:00 1.36917 C 4.88 g/m*3 1.37 C 0 km/h
906 08-04-2008 00:00:00 3.57833 C 4.72 g/m*3 3.58 C 0 km/h
907 09-04-2008 00:00:00 5.82833 C 5.5 g/m*3 5.83 C 0 km/h
908 10-04-2008 00:00:00 8.76917 C 5.74 g/m*3 8.77 C 0 km/h
909 11-04-2008 00:00:00 8.235 C 6.34 g/m*3 8.24 C 0 km/h
910 12-04-2008 00:00:00 8.02 C 5.41 g/m*3 8.02 C 0 km/h
911 13-04-2008 00:00:00 9.70833 C 6.56 g/m*3 9.71 C 0 km/h
912 14-04-2008 00:00:00 7.63083 C 6.9 g/m*3 7.63 C 0 km/h
913 15-04-2008 00:00:00 6.56083 C 5.99 g/m*3 6.56 C 0 km/h
914 16-04-2008 00:00:00 6.30083 C 4.78 g/m*3 6.3 C 0 km/h
915 17-04-2008 00:00:00 6.47227 C 4.04 g/m*3 6.47 C 0 km/h
916 18-04-2008 00:00:00 9.94 C 4.58 g/m*3 9.94 C 0 km/h
917 19-04-2008 00:00:00 8.41667 C 6.18 g/m*3 8.42 C 0 km/h
918 20-04-2008 00:00:00 12.42417 C 7.14 g/m*3 12.42 C 0 km/h
919 21-04-2008 00:00:00 12.98833 C 6.29 g/m*3 12.99 C 0 km/h
920 22-04-2008 00:00:00 12.95917 C 5.98 g/m*3 12.96 C 0 km/h
921 23-04-2008 00:00:00 13.95083 C 6.27 g/m*3 13.95 C 0 km/h
922 24-04-2008 00:00:00 15.095 C 7.14 g/m*3 15.1 C 0 km/h
923 25-04-2008 00:00:00 12.67583 C 6.12 g/m*3 12.68 C 0 km/h
924 26-04-2008 00:00:00 14.51833 C 6.16 g/m*3 14.52 C 0 km/h
925 27-04-2008 00:00:00 15.87667 C 5.79 g/m*3 15.88 C 0 km/h
Sensor: Nr:Datum:Temp:Abs-Feuchte:Windchill:Wind:
Aussen-T/F 926 28-04-2008 00:00:00 13.4125 C 8.14 g/m*3 13.41 C 0 km/h
927 29-04-2008 00:00:00 13.07667 C 6.39 g/m*3 13.08 C 0 km/h
928 30-04-2008 00:00:00 13.76639 C 5.33 g/m*3 13.77 C 0 km/h
929 01-05-2008 00:00:00 11.62583 C 5.8 g/m*3 11.63 C 0 km/h
930 02-05-2008 00:00:00 12.97583 C 6.28 g/m*3 12.98 C 0 km/h
931 03-05-2008 00:00:00 14.47667 C 6.5 g/m*3 14.48 C 0 km/h
932 04-05-2008 00:00:00 17.15667 C 5.91 g/m*3 17.16 C 0 km/h
933 05-05-2008 00:00:00 16.51 C 5.51 g/m*3 16.51 C 0 km/h
934 06-05-2008 00:00:00 18.36833 C 7.67 g/m*3 18.37 C 0 km/h
935 07-05-2008 00:00:00 19.48083 C 7 g/m*3 19.48 C 0 km/h
936 08-05-2008 00:00:00 19.40583 C 6.98 g/m*3 19.41 C 0 km/h
937 09-05-2008 00:00:00 20.20083 C 7.05 g/m*3 20.2 C 0 km/h
938 10-05-2008 00:00:00 21.22917 C 7.16 g/m*3 21.23 C 0 km/h
939 11-05-2008 00:00:00 21.15714 C 6.43 g/m*3 21.16 C 0 km/h
940 12-05-2008 00:00:00 21.02017 C 6.74 g/m*3 21.02 C 0 km/h
941 13-05-2008 00:00:00 21.3175 C 7.09 g/m*3 21.32 C 0 km/h
942 14-05-2008 00:00:00 21.27167 C 7.79 g/m*3 21.27 C 0 km/h
943 15-05-2008 00:00:00 18.93333 C 8.92 g/m*3 18.93 C 0 km/h
944 16-05-2008 00:00:00 18.3725 C 9.69 g/m*3 18.37 C 0 km/h
945 17-05-2008 00:00:00 17.11167 C 10.03 g/m*3 17.11 C 0 km/h
946 18-05-2008 00:00:00 14.09583 C 8.38 g/m*3 14.1 C 0 km/h
947 19-05-2008 00:00:00 14.61833 C 5.61 g/m*3 14.62 C 0 km/h
948 20-05-2008 00:00:00 15.59417 C 4.92 g/m*3 15.59 C 0 km/h
949 21-05-2008 00:00:00 16.93833 C 4.74 g/m*3 16.94 C 0 km/h
950 22-05-2008 00:00:00 18.32417 C 5.49 g/m*3 18.32 C 0 km/h
Sensor: Nr:Datum:Temp:Abs-Feuchte:Windchill:Wind:
Aussen-T/F 951 23-05-2008 00:00:00 19.045 C 6.46 g/m*3 19.05 C 0 km/h
952 24-05-2008 00:00:00 18.23 C 7.82 g/m*3 18.23 C 0 km/h
953 25-05-2008 00:00:00 21.65462 C 9.39 g/m*3 21.65 C 0 km/h
954 26-05-2008 00:00:00 21.2775 C 11.27 g/m*3 21.28 C 0 km/h
955 27-05-2008 00:00:00 22.17167 C 12.27 g/m*3 22.17 C 0 km/h
956 28-05-2008 00:00:00 23.79417 C 10.23 g/m*3 23.79 C 0 km/h
957 29-05-2008 00:00:00 23.08917 C 11.47 g/m*3 23.09 C 0 km/h
958 30-05-2008 00:00:00 20.37 C 13.32 g/m*3 20.37 C 0 km/h
959 31-05-2008 00:00:00 17.68917 C 12.05 g/m*3 17.69 C 0 km/h
960 01-06-2008 00:00:00 21.38917 C 11.64 g/m*3 21.39 C 0 km/h
961 02-06-2008 00:00:00 23.66833 C 12.72 g/m*3 23.67 C 0 km/h
962 03-06-2008 00:00:00 21.2825 C 11.09 g/m*3 21.28 C 0 km/h
963 04-06-2008 00:00:00 19.19833 C 11.48 g/m*3 19.2 C 0 km/h
964 05-06-2008 00:00:00 20.67731 C 12.57 g/m*3 20.68 C 0 km/h
965 06-06-2008 00:00:00 21.07333 C 10.91 g/m*3 21.07 C 0 km/h
966 07-06-2008 00:00:00 19.84417 C 10.51 g/m*3 19.84 C 0 km/h
967 08-06-2008 00:00:00 20.63167 C 10.52 g/m*3 20.63 C 0 km/h
968 09-06-2008 00:00:00 22.875 C 10.01 g/m*3 22.88 C 0 km/h
969 10-06-2008 00:00:00 23.51583 C 9.23 g/m*3 23.52 C 0 km/h
970 11-06-2008 00:00:00 18.4725 C 7.23 g/m*3 18.47 C 0 km/h
971 12-06-2008 00:00:00 12.7425 C 7.69 g/m*3 12.74 C 0 km/h
972 13-06-2008 00:00:00 13.67167 C 7.09 g/m*3 13.67 C 0 km/h
973 14-06-2008 00:00:00 13.75917 C 7.2 g/m*3 13.76 C 0 km/h
974 15-06-2008 00:00:00 13.75333 C 8.27 g/m*3 13.75 C 0 km/h
975 16-06-2008 00:00:00 16.2275 C 7.7 g/m*3 16.23 C 0 km/h
Sensor: Nr:Datum:Temp:Abs-Feuchte:Windchill:Wind:
Aussen-T/F 976 17-06-2008 00:00:00 17.34333 C 7.29 g/m*3 17.34 C 0 km/h
977 18-06-2008 00:00:00 20.30583 C 7.89 g/m*3 20.31 C 0 km/h
978 19-06-2008 00:00:00 20.67417 C 8.05 g/m*3 20.67 C 0 km/h
979 20-06-2008 00:00:00 18.32 C 8.63 g/m*3 18.32 C 0 km/h
980 21-06-2008 00:00:00 23.24706 C 9.11 g/m*3 23.25 C 0 km/h
981 22-06-2008 00:00:00 24.30833 C 11.76 g/m*3 24.31 C 0 km/h
982 23-06-2008 00:00:00 22.40417 C 8.41 g/m*3 22.4 C 0 km/h
983 24-06-2008 00:00:00 23.6325 C 8.33 g/m*3 23.63 C 0 km/h
984 25-06-2008 00:00:00 22.66833 C 12.11 g/m*3 22.67 C 0 km/h
985 26-06-2008 00:00:00 20.39833 C 8.44 g/m*3 20.4 C 0 km/h
986 27-06-2008 00:00:00 18.72167 C 8.67 g/m*3 18.72 C 0 km/h
987 28-06-2008 00:00:00 21.21 C 9.93 g/m*3 21.21 C 0 km/h
988 29-06-2008 00:00:00 22.68667 C 9.85 g/m*3 22.69 C 0 km/h
989 30-06-2008 00:00:00 22.95083 C 8.73 g/m*3 22.95 C 0 km/h
990 01-07-2008 00:00:00 24.35583 C 9.2 g/m*3 24.36 C 0 km/h
991 02-07-2008 00:00:00 26.47583 C 10.39 g/m*3 26.48 C 0 km/h
992 03-07-2008 00:00:00 20.18992 C 12.77 g/m*3 20.19 C 0 km/h
993 04-07-2008 00:00:00 19.38083 C 9.22 g/m*3 19.38 C 0 km/h
994 05-07-2008 00:00:00 21.0575 C 8.87 g/m*3 21.06 C 0 km/h
995 06-07-2008 00:00:00 21.2225 C 8.99 g/m*3 21.22 C 0 km/h
996 07-07-2008 00:00:00 18.24917 C 8.13 g/m*3 18.25 C 0 km/h
997 08-07-2008 00:00:00 17.2125 C 8.69 g/m*3 17.21 C 0 km/h
998 09-07-2008 00:00:00 17.0525 C 8.83 g/m*3 17.05 C 0 km/h
999 10-07-2008 00:00:00 22.32833 C 10.77 g/m*3 22.33 C 0 km/h
1000 11-07-2008 00:00:00 20.48167 C 11.17 g/m*3 20.48 C 0 km/h
Sensor: Nr:Datum:Temp:Abs-Feuchte:Windchill:Wind:
Aussen-T/F 1001 12-07-2008 00:00:00 17.645 C 9.92 g/m*3 17.65 C 0 km/h
1002 13-07-2008 00:00:00 17.8375 C 8.02 g/m*3 17.84 C 0 km/h
1003 14-07-2008 00:00:00 18.38 C 7.76 g/m*3 18.38 C 0 km/h
1004 15-07-2008 00:00:00 19.61978 C 8.34 g/m*3 19.62 C 0 km/h
1005 16-07-2008 00:00:00 20.38298 C 10.82 g/m*3 20.38 C 0 km/h
1006 17-07-2008 00:00:00 17.22917 C 8.94 g/m*3 17.23 C 0 km/h
1007 18-07-2008 00:00:00 16.58125 C 9.74 g/m*3 16.58 C 0 km/h
1008 19-07-2008 00:00:00 19.61667 C 9.94 g/m*3 19.62 C 0 km/h
1009 20-07-2008 00:00:00 15.48542 C 9.13 g/m*3 15.49 C 0 km/h
1010 21-07-2008 00:00:00 12.62917 C 8.41 g/m*3 12.63 C 0 km/h
1011 22-07-2008 00:00:00 14.56042 C 9.4 g/m*3 14.56 C 0 km/h
1012 23-07-2008 00:00:00 18.94375 C 9.57 g/m*3 18.94 C 0 km/h
1013 24-07-2008 00:00:00 22.13958 C 9.31 g/m*3 22.14 C 0 km/h
1014 25-07-2008 00:00:00 24.55625 C 9.56 g/m*3 24.56 C 0 km/h
1015 26-07-2008 00:00:00 23.54792 C 12.42 g/m*3 23.55 C 0 km/h
1016 27-07-2008 00:00:00 23.20625 C 13.92 g/m*3 23.21 C 0 km/h
1017 28-07-2008 00:00:00 25.10833 C 12.45 g/m*3 25.11 C 0 km/h
1018 29-07-2008 00:00:00 24.49792 C 12.1 g/m*3 24.5 C 0 km/h
1019 30-07-2008 00:00:00 23.67292 C 12.74 g/m*3 23.67 C 0 km/h
1020 31-07-2008 00:00:00 24.69792 C 13.38 g/m*3 24.7 C 0 km/h
1021 01-08-2008 00:00:00 24.97917 C 10.83 g/m*3 24.98 C 0 km/h
1022 02-08-2008 00:00:00 21.29792 C 9.43 g/m*3 21.3 C 0 km/h
1023 03-08-2008 00:00:00 23.42561 C 10.97 g/m*3 23.43 C 0 km/h
1024 04-08-2008 00:00:00 21.85083 C 10.01 g/m*3 21.85 C 0 km/h
1025 05-08-2008 00:00:00 20.3125 C 8.72 g/m*3 20.31 C 0 km/h
Sensor: Nr:Datum:Temp:Abs-Feuchte:Windchill:Wind:
Aussen-T/F 1026 06-08-2008 00:00:00 24.05417 C 10.21 g/m*3 24.05 C 0 km/h
1027 07-08-2008 00:00:00 24.29583 C 11.12 g/m*3 24.3 C 0 km/h
1028 08-08-2008 00:00:00 18.50948 C 11.78 g/m*3 18.51 C 0 km/h
1029 09-08-2008 00:00:00 19.32 C 9.06 g/m*3 19.32 C 0 km/h
1030 10-08-2008 00:00:00 20.1 C 9.41 g/m*3 20.1 C 0 km/h
1031 11-08-2008 00:00:00 20.59748 C 9.44 g/m*3 20.6 C 0 km/h
1032 12-08-2008 00:00:00 18.91833 C 12.54 g/m*3 18.92 C 0 km/h
1033 13-08-2008 00:00:00 18.3525 C 8.74 g/m*3 18.35 C 0 km/h
1034 14-08-2008 00:00:00 19.14917 C 7.79 g/m*3 19.15 C 0 km/h
1035 15-08-2008 00:00:00 18.3625 C 8.19 g/m*3 18.36 C 0 km/h
1036 16-08-2008 00:00:00 18.89 C 8.44 g/m*3 18.89 C 0 km/h
1037 17-08-2008 00:00:00 19.10252 C 8.4 g/m*3 19.1 C 0 km/h
1038 18-08-2008 00:00:00 21.21 C 10.7 g/m*3 21.21 C 0 km/h
1039 19-08-2008 00:00:00 20.7925 C 9.67 g/m*3 20.79 C 0 km/h
1040 20-08-2008 00:00:00 18.82 C 9.37 g/m*3 18.82 C 0 km/h
1041 21-08-2008 00:00:00 19.6375 C 8.99 g/m*3 19.64 C 0 km/h
1042 22-08-2008 00:00:00 18.45333 C 11.1 g/m*3 18.45 C 0 km/h
1043 23-08-2008 00:00:00 14.95083 C 9.15 g/m*3 14.95 C 0 km/h
1044 24-08-2008 00:00:00 16.59333 C 8.67 g/m*3 16.59 C 0 km/h
1045 25-08-2008 00:00:00 17.43583 C 10.93 g/m*3 17.44 C 0 km/h
1046 26-08-2008 00:00:00 19.2725 C 10.13 g/m*3 19.27 C 0 km/h
1047 27-08-2008 00:00:00 19.89833 C 10.62 g/m*3 19.9 C 0 km/h
1048 28-08-2008 00:00:00 20.35417 C 9.37 g/m*3 20.35 C 0 km/h
1049 29-08-2008 00:00:00 20.84454 C 9.74 g/m*3 20.84 C 0 km/h
1050 30-08-2008 00:00:00 21.35167 C 10.94 g/m*3 21.35 C 0 km/h
Sensor: Nr:Datum:Temp:Abs-Feuchte:Windchill:Wind:
Aussen-T/F 1051 31-08-2008 00:00:00 22.25917 C 10.49 g/m*3 22.26 C 0 km/h
1052 01-09-2008 00:00:00 20.93917 C 10.36 g/m*3 20.94 C 0 km/h
1053 02-09-2008 00:00:00 19.11333 C 9.31 g/m*3 19.11 C 0 km/h
1054 03-09-2008 00:00:00 15.21083 C 10.42 g/m*3 15.21 C 0 km/h
1055 04-09-2008 00:00:00 13.7025 C 7.94 g/m*3 13.7 C 0 km/h
1056 05-09-2008 00:00:00 16.9775 C 10.5 g/m*3 16.98 C 0 km/h
1057 06-09-2008 00:00:00 17.5625 C 11.38 g/m*3 17.56 C 0 km/h
1058 07-09-2008 00:00:00 16.83583 C 9.34 g/m*3 16.84 C 0 km/h
1059 08-09-2008 00:00:00 17.9741 C 8.43 g/m*3 17.97 C 0 km/h
1060 09-09-2008 00:00:00 18.12014 C 9.04 g/m*3 18.12 C 0 km/h
1061 10-09-2008 00:00:00 21.10243 C 10.72 g/m*3 21.1 C 0 km/h
1062 11-09-2008 00:00:00 19.94479 C 12.52 g/m*3 19.94 C 0 km/h
1063 12-09-2008 00:00:00 16.69236 C 12.91 g/m*3 16.69 C 0 km/h
1064 13-09-2008 00:00:00 12.63937 C 10.07 g/m*3 12.64 C 0 km/h
1065 14-09-2008 00:00:00 11.66215 C 6.19 g/m*3 11.66 C 0 km/h
1066 15-09-2008 00:00:00 10.27153 C 7.08 g/m*3 10.27 C 0 km/h
1067 16-09-2008 00:00:00 11.32014 C 7.11 g/m*3 11.32 C 0 km/h
1068 17-09-2008 00:00:00 11.34948 C 5.77 g/m*3 11.35 C 0 km/h
1069 18-09-2008 00:00:00 10.63264 C 5.3 g/m*3 10.63 C 0 km/h
1070 19-09-2008 00:00:00 10.48333 C 6.14 g/m*3 10.48 C 0 km/h
1071 20-09-2008 00:00:00 11.00556 C 6.26 g/m*3 11.01 C 0 km/h
1072 21-09-2008 00:00:00 11.67222 C 6.89 g/m*3 11.67 C 0 km/h
1073 22-09-2008 00:00:00 12.57108 C 7.54 g/m*3 12.57 C 0 km/h
1074 23-09-2008 00:00:00 12.21111 C 8.35 g/m*3 12.21 C 0 km/h
1075 24-09-2008 00:00:00 13.30799 C 9.32 g/m*3 13.31 C 0 km/h
Sensor: Nr:Datum:Temp:Abs-Feuchte:Windchill:Wind:
Aussen-T/F 1076 25-09-2008 00:00:00 12.56736 C 7.77 g/m*3 12.57 C 0 km/h
1077 26-09-2008 00:00:00 12.00521 C 7.09 g/m*3 12.01 C 0 km/h
1078 27-09-2008 00:00:00 11.93693 C 7.15 g/m*3 11.94 C 0 km/h
1079 28-09-2008 00:00:00 11.96493 C 7.21 g/m*3 11.96 C 0 km/h
1080 29-09-2008 00:00:00 11.47396 C 7.33 g/m*3 11.47 C 0 km/h
1081 30-09-2008 00:00:00 10.38611 C 7.67 g/m*3 10.39 C 0 km/h
1082 01-10-2008 00:00:00 13.07222 C 8.43 g/m*3 13.07 C 0 km/h
1083 02-10-2008 00:00:00 10.70244 C 6.41 g/m*3 10.7 C 0 km/h
1084 03-10-2008 00:00:00 8.94063 C 6.04 g/m*3 8.94 C 0 km/h
1085 04-10-2008 00:00:00 9.76632 C 5.66 g/m*3 9.77 C 0 km/h
1086 05-10-2008 00:00:00 11.69062 C 6.1 g/m*3 11.69 C 0 km/h
1087 06-10-2008 00:00:00 14.79306 C 10.16 g/m*3 14.79 C 0 km/h
1088 07-10-2008 00:00:00 15.17875 C 10.24 g/m*3 15.18 C 0 km/h
1089 08-10-2008 00:00:00 13.26389 C 10.6 g/m*3 13.26 C 0 km/h
1090 09-10-2008 00:00:00 13.20937 C 8.82 g/m*3 13.21 C 0 km/h
1091 10-10-2008 00:00:00 13.01806 C 8.66 g/m*3 13.02 C 0 km/h
1092 11-10-2008 00:00:00 13.2125 C 9 g/m*3 13.21 C 0 km/h
1093 12-10-2008 00:00:00 15.40729 C 9.68 g/m*3 15.41 C 0 km/h
1094 13-10-2008 00:00:00 14.40976 C 9.47 g/m*3 14.41 C 0 km/h
1095 14-10-2008 00:00:00 15.63438 C 9.35 g/m*3 15.63 C 0 km/h
1096 15-10-2008 00:00:00 13.57361 C 8.88 g/m*3 13.57 C 0 km/h
1097 16-10-2008 00:00:00 11.59444 C 8.43 g/m*3 11.59 C 0 km/h
1098 17-10-2008 00:00:00 8.00313 C 6.15 g/m*3 8 C 0 km/h
1099 18-10-2008 00:00:00 7.10488 C 5.92 g/m*3 7.1 C 0 km/h
1100 19-10-2008 00:00:00 8.10521 C 6.25 g/m*3 8.11 C 0 km/h
Sensor: Nr:Datum:Temp:Abs-Feuchte:Windchill:Wind:
Aussen-T/F 1101 20-10-2008 00:00:00 9.83646 C 7.21 g/m*3 9.84 C 0 km/h
1102 21-10-2008 00:00:00 13.12986 C 9.32 g/m*3 13.13 C 0 km/h
1103 22-10-2008 00:00:00 9.36528 C 7.49 g/m*3 9.37 C 0 km/h
1104 23-10-2008 00:00:00 9.2115 C 6.5 g/m*3 9.21 C 0 km/h
1105 24-10-2008 00:00:00 7.4434 C 6.07 g/m*3 7.44 C 0 km/h
1106 25-10-2008 00:00:00 10.48151 C 7.39 g/m*3 10.48 C 0 km/h
1107 26-10-2008 00:00:00 10.725 C 6.55 g/m*3 10.73 C 0 km/h
1108 27-10-2008 00:00:00 10.21724 C 7.98 g/m*3 10.22 C 0 km/h
1109 28-10-2008 00:00:00 6.92456 C 6.29 g/m*3 6.92 C 0 km/h
1110 29-10-2008 00:00:00 5.45 C 5.63 g/m*3 5.45 C 0 km/h
1111 30-10-2008 00:00:00 4.78947 C 6 g/m*3 4.79 C 0 km/h
1112 31-10-2008 00:00:00 5.97414 C 6.34 g/m*3 5.97 C 0 km/h
1113 01-11-2008 00:00:00 7.97414 C 7.15 g/m*3 7.97 C 0 km/h
1114 02-11-2008 00:00:00 9.98772 C 7.86 g/m*3 9.99 C 0 km/h
1115 03-11-2008 00:00:00 9.82241 C 7.83 g/m*3 9.82 C 0 km/h
1116 04-11-2008 00:00:00 9.00351 C 7.82 g/m*3 9 C 0 km/h
1117 05-11-2008 00:00:00 9.79828 C 7.68 g/m*3 9.8 C 0 km/h
1118 06-11-2008 00:00:00 10.54483 C 7.37 g/m*3 10.54 C 0 km/h
1119 07-11-2008 00:00:00 10.79123 C 7.22 g/m*3 10.79 C 0 km/h
1120 08-11-2008 00:00:00 8.24828 C 6.77 g/m*3 8.25 C 0 km/h
1121 09-11-2008 00:00:00 8.89583 C 7.31 g/m*3 8.9 C 0 km/h
1122 10-11-2008 00:00:00 13.98833 C 7.91 g/m*3 13.99 C 0 km/h
1123 11-11-2008 00:00:00 12.73917 C 6.46 g/m*3 12.74 C 0 km/h
1124 12-11-2008 00:00:00 8.5175 C 6.56 g/m*3 8.52 C 0 km/h
1125 13-11-2008 00:00:00 6.40667 C 6.06 g/m*3 6.41 C 0 km/h
Sensor: Nr:Datum:Temp:Abs-Feuchte:Windchill:Wind:
Aussen-T/F 1126 14-11-2008 00:00:00 5.60833 C 5.47 g/m*3 5.61 C 0 km/h
1127 15-11-2008 00:00:00 9.82083 C 7.04 g/m*3 9.82 C 0 km/h
1128 16-11-2008 00:00:00 9.9375 C 7.83 g/m*3 9.94 C 0 km/h
1129 17-11-2008 00:00:00 4.03167 C 5.46 g/m*3 4.03 C 0 km/h
1130 18-11-2008 00:00:00 4.76417 C 5.59 g/m*3 4.76 C 0 km/h
1131 19-11-2008 00:00:00 7.7775 C 6.09 g/m*3 7.78 C 0 km/h
1132 20-11-2008 00:00:00 9.54 C 6.58 g/m*3 9.54 C 0 km/h
1133 21-11-2008 00:00:00 5.21083 C 5.22 g/m*3 5.21 C 0 km/h
1134 22-11-2008 00:00:00 1.08571 C 3.81 g/m*3 1.09 C 0 km/h
1135 23-11-2008 00:00:00 0.81333 C 4.11 g/m*3 0.81 C 0 km/h
1136 24-11-2008 00:00:00 1.92667 C 4.67 g/m*3 1.93 C 0 km/h
1137 25-11-2008 00:00:00 0.79667 C 4.51 g/m*3 0.8 C 0 km/h
1138 26-11-2008 00:00:00 2.38333 C 4.91 g/m*3 2.38 C 0 km/h
1139 27-11-2008 00:00:00 3.435 C 4.58 g/m*3 3.44 C 0 km/h
1140 28-11-2008 00:00:00 0.47667 C 3.78 g/m*3 0.48 C 0 km/h
1141 29-11-2008 00:00:00 0.98 C 4.13 g/m*3 0.98 C 0 km/h
1142 30-11-2008 00:00:00 1.12 C 4.72 g/m*3 1.12 C 0 km/h
1143 01-12-2008 00:00:00 0.30417 C 4.54 g/m*3 0.3 C 0 km/h
1144 02-12-2008 00:00:00 2.80917 C 4.97 g/m*3 2.81 C 0 km/h
1145 03-12-2008 00:00:00 1.785 C 4.91 g/m*3 1.79 C 0 km/h
1146 04-12-2008 00:00:00 1.92353 C 5.05 g/m*3 1.92 C 0 km/h
1147 05-12-2008 00:00:00 5.36 C 6.01 g/m*3 5.36 C 0 km/h
1148 06-12-2008 00:00:00 4.73 C 5.89 g/m*3 4.73 C 0 km/h
1149 07-12-2008 00:00:00 3.85333 C 5.78 g/m*3 3.85 C 0 km/h
1150 08-12-2008 00:00:00 0.26917 C 4.58 g/m*3 0.27 C 0 km/h
Sensor: Nr:Datum:Temp:Abs-Feuchte:Windchill:Wind:
Aussen-T/F 1151 09-12-2008 00:00:00 0.56667 C 4.36 g/m*3 0.57 C 0 km/h
1152 10-12-2008 00:00:00 1.97667 C 5.17 g/m*3 1.98 C 0 km/h
1153 11-12-2008 00:00:00 1.4775 C 4.54 g/m*3 1.48 C 0 km/h
1154 12-12-2008 00:00:00 -0.23583 C 3.8 g/m*3 -0.24 C 0 km/h
1155 13-12-2008 00:00:00 -0.26167 C 3.56 g/m*3 -0.26 C 0 km/h
1156 14-12-2008 00:00:00 0.28083 C 4.24 g/m*3 0.28 C 0 km/h
1157 15-12-2008 00:00:00 -0.1075 C 4.53 g/m*3 -0.11 C 0 km/h
1158 16-12-2008 00:00:00 0.42521 C 4.59 g/m*3 0.43 C 0 km/h
1159 17-12-2008 00:00:00 -0.0375 C 4.31 g/m*3 -0.04 C 0 km/h
1160 18-12-2008 00:00:00 2.15083 C 5.01 g/m*3 2.15 C 0 km/h
1161 19-12-2008 00:00:00 4.22333 C 5.23 g/m*3 4.22 C 0 km/h
1162 20-12-2008 00:00:00 6.45667 C 6.48 g/m*3 6.46 C 0 km/h
1163 21-12-2008 00:00:00 7.94917 C 6.81 g/m*3 7.95 C 0 km/h
1164 22-12-2008 00:00:00 8.47167 C 6.7 g/m*3 8.47 C 0 km/h
1165 23-12-2008 00:00:00 6.21417 C 5.86 g/m*3 6.21 C 0 km/h
1166 24-12-2008 00:00:00 4.55833 C 5.62 g/m*3 4.56 C 0 km/h
1167 25-12-2008 00:00:00 4.40252 C 4.56 g/m*3 4.4 C 0 km/h
1168 26-12-2008 00:00:00 -1.1875 C 2.6 g/m*3 -1.19 C 0 km/h
1169 27-12-2008 00:00:00 -1.85667 C 2.56 g/m*3 -1.86 C 0 km/h
1170 28-12-2008 00:00:00 -3.02917 C 2.53 g/m*3 -3.03 C 0 km/h
1171 29-12-2008 00:00:00 -5.49833 C 2.6 g/m*3 -5.5 C 0 km/h
1172 30-12-2008 00:00:00 -6.21833 C 2.53 g/m*3 -6.22 C 0 km/h
1173 31-12-2008 00:00:00 -4.32583 C 2.92 g/m*3 -4.33 C 0 km/h
1174 01-01-2009 00:00:00 -3.46417 C 2.96 g/m*3 -3.46 C 0 km/h
1175 02-01-2009 00:00:00 -2.03917 C 3.39 g/m*3 -2.04 C 0 km/h
Sensor: Nr:Datum:Temp:Abs-Feuchte:Windchill:Wind:
Aussen-T/F 1176 03-01-2009 00:00:00 -3.57 C 2.96 g/m*3 -3.57 C 0 km/h
1177 04-01-2009 00:00:00 -1.06833 C 2.96 g/m*3 -1.07 C 0 km/h
1178 05-01-2009 00:00:00 -1.23866 C 3.28 g/m*3 -1.24 C 0 km/h
1179 06-01-2009 00:00:00 -6.97 C 1.26 g/m*3 -6.97 C 0 km/h
1180 07-01-2009 00:00:00 -10.99167 C 1.39 g/m*3 -10.99 C 0 km/h
1181 08-01-2009 00:00:00 -6.02083 C 2.27 g/m*3 -6.02 C 0 km/h
1182 09-01-2009 00:00:00 -11.165 C 1.54 g/m*3 -11.17 C 0 km/h
1183 10-01-2009 00:00:00 -11.3175 C 1.53 g/m*3 -11.32 C 0 km/h
1184 11-01-2009 00:00:00 -8.9975 C 1.92 g/m*3 -9 C 0 km/h
1185 12-01-2009 00:00:00 -7.30417 C 2.15 g/m*3 -7.3 C 0 km/h
1186 13-01-2009 00:00:00 -0.17833 C 3.29 g/m*3 -0.18 C 0 km/h
1187 14-01-2009 00:00:00 -0.15917 C 4.05 g/m*3 -0.16 C 0 km/h
1188 15-01-2009 00:00:00 0.77417 C 4.28 g/m*3 0.77 C 0 km/h
1189 16-01-2009 00:00:00 0.69833 C 3.9 g/m*3 0.7 C 0 km/h
1190 17-01-2009 00:00:00 2.97833 C 4.9 g/m*3 2.98 C 0 km/h
1191 18-01-2009 00:00:00 4.50924 C 5.1 g/m*3 4.51 C 0 km/h
1192 19-01-2009 00:00:00 5.4575 C 5.21 g/m*3 5.46 C 0 km/h
1193 20-01-2009 00:00:00 3.6475 C 4.19 g/m*3 3.65 C 0 km/h
1194 21-01-2009 00:00:00 0.32 C 4.11 g/m*3 0.32 C 0 km/h
1195 22-01-2009 00:00:00 2.825 C 4.02 g/m*3 2.83 C 0 km/h
1196 23-01-2009 00:00:00 4.345 C 5.29 g/m*3 4.35 C 0 km/h
1197 24-01-2009 00:00:00 3.13 C 4.29 g/m*3 3.13 C 0 km/h
1198 25-01-2009 00:00:00 0.15167 C 4.08 g/m*3 0.15 C 0 km/h
1199 26-01-2009 00:00:00 -2.16917 C 3.69 g/m*3 -2.17 C 0 km/h
1200 27-01-2009 00:00:00 -0.93167 C 3.93 g/m*3 -0.93 C 0 km/h
Sensor: Nr:Datum:Temp:Abs-Feuchte:Windchill:Wind:
Aussen-T/F 1201 28-01-2009 00:00:00 0.50833 C 4.02 g/m*3 0.51 C 0 km/h
1202 29-01-2009 00:00:00 1.15667 C 3.12 g/m*3 1.16 C 0 km/h
1203 30-01-2009 00:00:00 -1.50917 C 3.06 g/m*3 -1.51 C 0 km/h
1204 31-01-2009 00:00:00 0.06303 C 2.59 g/m*3 0.06 C 0 km/h
1205 01-02-2009 00:00:00 -0.11167 C 2.24 g/m*3 -0.11 C 0 km/h
1206 02-02-2009 00:00:00 1.085 C 2.84 g/m*3 1.09 C 0 km/h
1207 03-02-2009 00:00:00 0.63833 C 3.81 g/m*3 0.64 C 0 km/h
1208 04-02-2009 00:00:00 3.0025 C 4.61 g/m*3 3 C 0 km/h
1209 05-02-2009 00:00:00 3.2325 C 4.69 g/m*3 3.23 C 0 km/h
1210 06-02-2009 00:00:00 4.3 C 5.03 g/m*3 4.3 C 0 km/h
1211 07-02-2009 00:00:00 4.03417 C 5.27 g/m*3 4.03 C 0 km/h
1212 08-02-2009 00:00:00 2.6525 C 3.3 g/m*3 2.65 C 0 km/h
1213 09-02-2009 00:00:00 2.3775 C 3.79 g/m*3 2.38 C 0 km/h
1214 10-02-2009 00:00:00 4.155 C 5.17 g/m*3 4.16 C 0 km/h
1215 11-02-2009 00:00:00 2.90333 C 3.62 g/m*3 2.9 C 0 km/h
1216 12-02-2009 00:00:00 0.68908 C 3.9 g/m*3 0.69 C 0 km/h
1217 13-02-2009 00:00:00 0.51333 C 4.05 g/m*3 0.51 C 0 km/h
1218 14-02-2009 00:00:00 0.46083 C 3.41 g/m*3 0.46 C 0 km/h
1219 15-02-2009 00:00:00 -1.63583 C 2.82 g/m*3 -1.64 C 0 km/h
1220 16-02-2009 00:00:00 1.96417 C 4.68 g/m*3 1.96 C 0 km/h
1221 17-02-2009 00:00:00 3.77167 C 5.13 g/m*3 3.77 C 0 km/h
1222 18-02-2009 00:00:00 -1.62667 C 2.39 g/m*3 -1.63 C 0 km/h
1223 19-02-2009 00:00:00 1.01417 C 2.7 g/m*3 1.01 C 0 km/h
1224 20-02-2009 00:00:00 3.41917 C 5.01 g/m*3 3.42 C 0 km/h
1225 21-02-2009 00:00:00 4.72083 C 4.87 g/m*3 4.72 C 0 km/h
Sensor: Nr:Datum:Temp:Abs-Feuchte:Windchill:Wind:
Aussen-T/F 1226 22-02-2009 00:00:00 5.24667 C 5.76 g/m*3 5.25 C 0 km/h
1227 23-02-2009 00:00:00 5.50083 C 4.72 g/m*3 5.5 C 0 km/h
1228 24-02-2009 00:00:00 4.8325 C 4.1 g/m*3 4.83 C 0 km/h
1229 25-02-2009 00:00:00 3.34286 C 4 g/m*3 3.34 C 0 km/h
1230 26-02-2009 00:00:00 6.7377 C 4.3 g/m*3 6.74 C 0 km/h
1231 27-02-2009 00:00:00 7.10417 C 5.5 g/m*3 7.1 C 0 km/h
1232 28-02-2009 00:00:00 10.0375 C 5.89 g/m*3 10.04 C 0 km/h
1233 01-03-2009 00:00:00 9.95 C 5.76 g/m*3 9.95 C 0 km/h
1234 02-03-2009 00:00:00 7.98 C 5.85 g/m*3 7.98 C 0 km/h
1235 03-03-2009 00:00:00 5.05583 C 3.94 g/m*3 5.06 C 0 km/h
1236 04-03-2009 00:00:00 7.27917 C 3.96 g/m*3 7.28 C 0 km/h
1237 05-03-2009 00:00:00 4.42917 C 5.35 g/m*3 4.43 C 0 km/h
1238 06-03-2009 00:00:00 3.82417 C 5.35 g/m*3 3.82 C 0 km/h
1239 07-03-2009 00:00:00 5.72167 C 3.85 g/m*3 5.72 C 0 km/h
1240 08-03-2009 00:00:00 7.50833 C 5.49 g/m*3 7.51 C 0 km/h
1241 09-03-2009 00:00:00 5.1521 C 4.17 g/m*3 5.15 C 0 km/h
1242 10-03-2009 00:00:00 5.4275 C 4.82 g/m*3 5.43 C 0 km/h
1243 11-03-2009 00:00:00 5.60417 C 4.35 g/m*3 5.6 C 0 km/h
1244 12-03-2009 00:00:00 5.67083 C 5.13 g/m*3 5.67 C 0 km/h
1245 13-03-2009 00:00:00 8.68167 C 5.63 g/m*3 8.68 C 0 km/h
1246 14-03-2009 00:00:00 8.925 C 5.68 g/m*3 8.93 C 0 km/h
1247 15-03-2009 00:00:00 9.41667 C 4.91 g/m*3 9.42 C 0 km/h
1248 16-03-2009 00:00:00 8.23417 C 5.83 g/m*3 8.23 C 0 km/h
1249 17-03-2009 00:00:00 7.73833 C 5.15 g/m*3 7.74 C 0 km/h
1250 18-03-2009 00:00:00 5.82417 C 3.93 g/m*3 5.82 C 0 km/h
Sensor: Nr:Datum:Temp:Abs-Feuchte:Windchill:Wind:
Aussen-T/F 1251 19-03-2009 00:00:00 5.41917 C 3.04 g/m*3 5.42 C 0 km/h
1252 20-03-2009 00:00:00 4.59917 C 2.69 g/m*3 4.6 C 0 km/h
1253 21-03-2009 00:00:00 5.07 C 2.81 g/m*3 5.07 C 0 km/h
1254 22-03-2009 00:00:00 5.16639 C 3.79 g/m*3 5.17 C 0 km/h
1255 23-03-2009 00:00:00 7.82917 C 4.91 g/m*3 7.83 C 0 km/h
1256 24-03-2009 00:00:00 3.67333 C 4.24 g/m*3 3.67 C 0 km/h
1257 25-03-2009 00:00:00 3.18417 C 4.69 g/m*3 3.18 C 0 km/h
1258 26-03-2009 00:00:00 6.40083 C 5.48 g/m*3 6.4 C 0 km/h
1259 27-03-2009 00:00:00 7.28333 C 5.31 g/m*3 7.28 C 0 km/h
1260 28-03-2009 00:00:00 6.97583 C 5.39 g/m*3 6.98 C 0 km/h
1261 29-03-2009 00:00:00 6.18435 C 4.96 g/m*3 6.18 C 0 km/h
1262 30-03-2009 00:00:00 6.41833 C 4.78 g/m*3 6.42 C 0 km/h
1263 31-03-2009 00:00:00 8.3325 C 4.49 g/m*3 8.33 C 0 km/h
1264 01-04-2009 00:00:00 10.89833 C 4.57 g/m*3 10.9 C 0 km/h
1265 02-04-2009 00:00:00 15.335 C 5.18 g/m*3 15.34 C 0 km/h
1266 03-04-2009 00:00:00 15.87143 C 6.71 g/m*3 15.87 C 0 km/h
1267 04-04-2009 00:00:00 16.68333 C 7.32 g/m*3 16.68 C 0 km/h
1268 05-04-2009 00:00:00 14.9675 C 6.93 g/m*3 14.97 C 0 km/h
1269 06-04-2009 00:00:00 14.72833 C 6.98 g/m*3 14.73 C 0 km/h
1270 07-04-2009 00:00:00 14.57333 C 7.41 g/m*3 14.57 C 0 km/h
1271 08-04-2009 00:00:00 14.20167 C 6.07 g/m*3 14.2 C 0 km/h
1272 09-04-2009 00:00:00 16.28067 C 7.49 g/m*3 16.28 C 0 km/h
1273 10-04-2009 00:00:00 18.55372 C 7.45 g/m*3 18.55 C 0 km/h
1274 11-04-2009 00:00:00 17.3525 C 7.29 g/m*3 17.35 C 0 km/h
1275 12-04-2009 00:00:00 16.79 C 8.39 g/m*3 16.79 C 0 km/h
Sensor: Nr:Datum:Temp:Abs-Feuchte:Windchill:Wind:
Aussen-T/F 1276 13-04-2009 00:00:00 15.65167 C 9.22 g/m*3 15.65 C 0 km/h
1277 14-04-2009 00:00:00 16.16167 C 8.27 g/m*3 16.16 C 0 km/h
1278 15-04-2009 00:00:00 16.94202 C 7.01 g/m*3 16.94 C 0 km/h
1279 16-04-2009 00:00:00 14.94583 C 6.79 g/m*3 14.95 C 0 km/h
1280 17-04-2009 00:00:00 10.0825 C 8.69 g/m*3 10.08 C 0 km/h
1281 18-04-2009 00:00:00 9.84 C 8.53 g/m*3 9.84 C 0 km/h
1282 19-04-2009 00:00:00 14.95667 C 7.61 g/m*3 14.96 C 0 km/h
1283 20-04-2009 00:00:00 15.16917 C 7.23 g/m*3 15.17 C 0 km/h
1284 21-04-2009 00:00:00 15.74583 C 6.35 g/m*3 15.75 C 0 km/h
1285 22-04-2009 00:00:00 13.68833 C 5.48 g/m*3 13.69 C 0 km/h
1286 23-04-2009 00:00:00 11.645 C 5.16 g/m*3 11.65 C 0 km/h
1287 24-04-2009 00:00:00 14.11333 C 5.96 g/m*3 14.11 C 0 km/h
1288 25-04-2009 00:00:00 14.64833 C 7.16 g/m*3 14.65 C 0 km/h
1289 26-04-2009 00:00:00 18.35 C 8.19 g/m*3 18.35 C 0 km/h
1290 27-04-2009 00:00:00 14.89496 C 7.27 g/m*3 14.89 C 0 km/h
1291 28-04-2009 00:00:00 11.07833 C 8.01 g/m*3 11.08 C 0 km/h
1292 29-04-2009 00:00:00 11.9025 C 7.14 g/m*3 11.9 C 0 km/h
1293 30-04-2009 00:00:00 12.85833 C 7.53 g/m*3 12.86 C 0 km/h
1294 01-05-2009 00:00:00 16.25583 C 8.09 g/m*3 16.26 C 0 km/h
1295 02-05-2009 00:00:00 17.60167 C 7.7 g/m*3 17.6 C 0 km/h
1296 03-05-2009 00:00:00 14.58333 C 7.12 g/m*3 14.58 C 0 km/h
1297 04-05-2009 00:00:00 11.88333 C 4.53 g/m*3 11.88 C 0 km/h
1298 05-05-2009 00:00:00 10.50917 C 6.68 g/m*3 10.51 C 0 km/h
1299 06-05-2009 00:00:00 13.85625 C 7.25 g/m*3 13.86 C 0 km/h
1300 07-05-2009 00:00:00 16.47708 C 7.43 g/m*3 16.48 C 0 km/h
Sensor: Nr:Datum:Temp:Abs-Feuchte:Windchill:Wind:
Aussen-T/F 1301 08-05-2009 00:00:00 16.58021 C 8.46 g/m*3 16.58 C 0 km/h
1302 09-05-2009 00:00:00 14.3875 C 8.01 g/m*3 14.39 C 0 km/h
1303 10-05-2009 00:00:00 17.72083 C 9.72 g/m*3 17.72 C 0 km/h
1304 11-05-2009 00:00:00 13.57188 C 11.06 g/m*3 13.57 C 0 km/h
1305 12-05-2009 00:00:00 11.83333 C 9.17 g/m*3 11.83 C 0 km/h
1306 13-05-2009 00:00:00 15.51771 C 8.96 g/m*3 15.52 C 0 km/h
1307 14-05-2009 00:00:00 16.00104 C 9.44 g/m*3 16 C 0 km/h
1308 15-05-2009 00:00:00 15.12255 C 10.34 g/m*3 15.12 C 0 km/h
1309 16-05-2009 00:00:00 13.80333 C 7.38 g/m*3 13.8 C 0 km/h
1310 17-05-2009 00:00:00 17.02083 C 7.92 g/m*3 17.02 C 0 km/h
1311 18-05-2009 00:00:00 16.95083 C 6.63 g/m*3 16.95 C 0 km/h
1312 19-05-2009 00:00:00 16.49333 C 7.85 g/m*3 16.49 C 0 km/h
1313 20-05-2009 00:00:00 18.70167 C 9.55 g/m*3 18.7 C 0 km/h
1314 21-05-2009 00:00:00 19.21167 C 10.72 g/m*3 19.21 C 0 km/h
1315 22-05-2009 00:00:00 17.97917 C 7.45 g/m*3 17.98 C 0 km/h
1316 23-05-2009 00:00:00 18.72083 C 7.4 g/m*3 18.72 C 0 km/h
1317 24-05-2009 00:00:00 22.53417 C 9.1 g/m*3 22.53 C 0 km/h
1318 25-05-2009 00:00:00 23.49833 C 10.6 g/m*3 23.5 C 0 km/h
1319 26-05-2009 00:00:00 19.86583 C 9.97 g/m*3 19.87 C 0 km/h
1320 27-05-2009 00:00:00 14.4425 C 6.18 g/m*3 14.44 C 0 km/h
1321 28-05-2009 00:00:00 15.5325 C 8.21 g/m*3 15.53 C 0 km/h
1322 29-05-2009 00:00:00 17.81765 C 6.76 g/m*3 17.82 C 0 km/h
1323 30-05-2009 00:00:00 18.43417 C 6.45 g/m*3 18.43 C 0 km/h
1324 31-05-2009 00:00:00 20.3075 C 7.55 g/m*3 20.31 C 0 km/h
1325 01-06-2009 00:00:00 19.42541 C 9.1 g/m*3 19.43 C 0 km/h
Sensor: Nr:Datum:Temp:Abs-Feuchte:Windchill:Wind:
Aussen-T/F 1326 02-06-2009 00:00:00 19.91917 C 8.16 g/m*3 19.92 C 0 km/h
1327 03-06-2009 00:00:00 16.3775 C 5.31 g/m*3 16.38 C 0 km/h
1328 04-06-2009 00:00:00 13.435 C 4.59 g/m*3 13.44 C 0 km/h
1329 05-06-2009 00:00:00 13.4075 C 5 g/m*3 13.41 C 0 km/h
1330 06-06-2009 00:00:00 9.18333 C 7.41 g/m*3 9.18 C 0 km/h
1331 07-06-2009 00:00:00 13.71083 C 8.43 g/m*3 13.71 C 0 km/h
1332 08-06-2009 00:00:00 16.58667 C 7.38 g/m*3 16.59 C 0 km/h
1333 09-06-2009 00:00:00 17.9275 C 9.37 g/m*3 17.93 C 0 km/h
1334 10-06-2009 00:00:00 17.24454 C 8.99 g/m*3 17.24 C 0 km/h
1335 11-06-2009 00:00:00 14.60417 C 9.26 g/m*3 14.6 C 0 km/h
1336 12-06-2009 00:00:00 15.915 C 7.28 g/m*3 15.92 C 0 km/h
1337 13-06-2009 00:00:00 18.29417 C 7.64 g/m*3 18.29 C 0 km/h
1338 14-06-2009 00:00:00 20.3875 C 10.19 g/m*3 20.39 C 0 km/h
1339 15-06-2009 00:00:00 16.76083 C 12.71 g/m*3 16.76 C 0 km/h
1340 16-06-2009 00:00:00 16.58083 C 9.69 g/m*3 16.58 C 0 km/h
1341 17-06-2009 00:00:00 19.89 C 9.38 g/m*3 19.89 C 0 km/h
1342 18-06-2009 00:00:00 19.45417 C 10.3 g/m*3 19.45 C 0 km/h
1343 19-06-2009 00:00:00 18.45583 C 7.96 g/m*3 18.46 C 0 km/h
1344 20-06-2009 00:00:00 13.84583 C 7.89 g/m*3 13.85 C 0 km/h
1345 21-06-2009 00:00:00 13.40167 C 8.61 g/m*3 13.4 C 0 km/h
1346 22-06-2009 00:00:00 15.23697 C 7.62 g/m*3 15.24 C 0 km/h
1347 23-06-2009 00:00:00 18.58583 C 7.92 g/m*3 18.59 C 0 km/h
1348 24-06-2009 00:00:00 22.29167 C 7.85 g/m*3 22.29 C 0 km/h
1349 25-06-2009 00:00:00 24.10583 C 9.67 g/m*3 24.11 C 0 km/h
1350 26-06-2009 00:00:00 24.31083 C 10.7 g/m*3 24.31 C 0 km/h
Sensor: Nr:Datum:Temp:Abs-Feuchte:Windchill:Wind:
Aussen-T/F 1351 27-06-2009 00:00:00 22.1625 C 12.54 g/m*3 22.16 C 0 km/h
1352 28-06-2009 00:00:00 25.04417 C 11.78 g/m*3 25.04 C 0 km/h
1353 29-06-2009 00:00:00 24.71583 C 12 g/m*3 24.72 C 0 km/h
1354 30-06-2009 00:00:00 22.55083 C 13.98 g/m*3 22.55 C 0 km/h
1355 01-07-2009 00:00:00 23.6175 C 13.73 g/m*3 23.62 C 0 km/h
1356 02-07-2009 00:00:00 25.95917 C 12.87 g/m*3 25.96 C 0 km/h
1357 03-07-2009 00:00:00 23.36083 C 13.72 g/m*3 23.36 C 0 km/h
1358 04-07-2009 00:00:00 24.17479 C 11.83 g/m*3 24.17 C 0 km/h
1359 05-07-2009 00:00:00 23.89917 C 11.07 g/m*3 23.9 C 0 km/h
1360 06-07-2009 00:00:00 21.82333 C 11.98 g/m*3 21.82 C 0 km/h
1361 07-07-2009 00:00:00 18.7625 C 10.11 g/m*3 18.76 C 0 km/h
1362 08-07-2009 00:00:00 16.39 C 9.61 g/m*3 16.39 C 0 km/h
1363 09-07-2009 00:00:00 16.38583 C 8.58 g/m*3 16.39 C 0 km/h
1364 10-07-2009 00:00:00 15.17083 C 7.78 g/m*3 15.17 C 0 km/h
1365 11-07-2009 00:00:00 17.55667 C 8.2 g/m*3 17.56 C 0 km/h
1366 12-07-2009 00:00:00 19.3525 C 10.57 g/m*3 19.35 C 0 km/h
1367 13-07-2009 00:00:00 21.76917 C 12.23 g/m*3 21.77 C 0 km/h
1368 14-07-2009 00:00:00 23.4 C 13.46 g/m*3 23.4 C 0 km/h
1369 15-07-2009 00:00:00 24.0475 C 10.2 g/m*3 24.05 C 0 km/h
1370 16-07-2009 00:00:00 23.37479 C 9.98 g/m*3 23.37 C 0 km/h
1371 17-07-2009 00:00:00 20.90917 C 9.78 g/m*3 20.91 C 0 km/h
1372 18-07-2009 00:00:00 17.575 C 8.46 g/m*3 17.58 C 0 km/h
1373 19-07-2009 00:00:00 17.92167 C 8.71 g/m*3 17.92 C 0 km/h
1374 20-07-2009 00:00:00 19.82583 C 7.87 g/m*3 19.83 C 0 km/h
1375 21-07-2009 00:00:00 23.22833 C 11.03 g/m*3 23.23 C 0 km/h
Sensor: Nr:Datum:Temp:Abs-Feuchte:Windchill:Wind:
Aussen-T/F 1376 22-07-2009 00:00:00 25.10583 C 12 g/m*3 25.11 C 0 km/h
1377 23-07-2009 00:00:00 22.65417 C 12.31 g/m*3 22.65 C 0 km/h
1378 24-07-2009 00:00:00 20.33167 C 9.89 g/m*3 20.33 C 0 km/h
1379 25-07-2009 00:00:00 18.03083 C 9.21 g/m*3 18.03 C 0 km/h
1380 26-07-2009 00:00:00 19.94833 C 9.75 g/m*3 19.95 C 0 km/h
1381 27-07-2009 00:00:00 20.60667 C 10.4 g/m*3 20.61 C 0 km/h
1382 28-07-2009 00:00:00 20.41513 C 8.48 g/m*3 20.42 C 0 km/h
1383 29-07-2009 00:00:00 21.77833 C 9.2 g/m*3 21.78 C 0 km/h
1384 30-07-2009 00:00:00 21.10583 C 8.72 g/m*3 21.11 C 0 km/h
1385 31-07-2009 00:00:00 20.32583 C 7.51 g/m*3 20.33 C 0 km/h
1386 01-08-2009 00:00:00 22.455 C 8.67 g/m*3 22.46 C 0 km/h
1387 02-08-2009 00:00:00 20.47167 C 10.91 g/m*3 20.47 C 0 km/h
1388 03-08-2009 00:00:00 19.3075 C 9.46 g/m*3 19.31 C 0 km/h
1389 04-08-2009 00:00:00 20.48917 C 8.95 g/m*3 20.49 C 0 km/h
1390 05-08-2009 00:00:00 22.0275 C 8.17 g/m*3 22.03 C 0 km/h
1391 06-08-2009 00:00:00 24.19667 C 9.51 g/m*3 24.2 C 0 km/h
1392 07-08-2009 00:00:00 25.2075 C 10.12 g/m*3 25.21 C 0 km/h
1393 08-08-2009 00:00:00 21.22583 C 12.28 g/m*3 21.23 C 0 km/h
1394 09-08-2009 00:00:00 22.82101 C 12.15 g/m*3 22.82 C 0 km/h
1395 10-08-2009 00:00:00 21.7025 C 11.79 g/m*3 21.7 C 0 km/h
1396 11-08-2009 00:00:00 20.44 C 11.61 g/m*3 20.44 C 0 km/h
1397 12-08-2009 00:00:00 20.9725 C 11.23 g/m*3 20.97 C 0 km/h
1398 13-08-2009 00:00:00 18.55917 C 12.82 g/m*3 18.56 C 0 km/h
1399 14-08-2009 00:00:00 19.44083 C 10.85 g/m*3 19.44 C 0 km/h
1400 15-08-2009 00:00:00 21.37917 C 10.5 g/m*3 21.38 C 0 km/h
Sensor: Nr:Datum:Temp:Abs-Feuchte:Windchill:Wind:
Aussen-T/F 1401 16-08-2009 00:00:00 23.84583 C 11 g/m*3 23.85 C 0 km/h
1402 17-08-2009 00:00:00 23.615 C 11.27 g/m*3 23.62 C 0 km/h
1403 18-08-2009 00:00:00 22.105 C 9.45 g/m*3 22.11 C 0 km/h
1404 19-08-2009 00:00:00 23.76 C 10.14 g/m*3 23.76 C 0 km/h
1405 20-08-2009 00:00:00 26.03167 C 11.39 g/m*3 26.03 C 0 km/h
1406 21-08-2009 00:00:00 20.32185 C 10.69 g/m*3 20.32 C 0 km/h
1407 22-08-2009 00:00:00 19.745 C 9.13 g/m*3 19.75 C 0 km/h
1408 23-08-2009 00:00:00 20.0375 C 8.31 g/m*3 20.04 C 0 km/h
1409 24-08-2009 00:00:00 22.19667 C 9.27 g/m*3 22.2 C 0 km/h
1410 25-08-2009 00:00:00 23.11917 C 10.67 g/m*3 23.12 C 0 km/h
1411 26-08-2009 00:00:00 21.68417 C 9.77 g/m*3 21.68 C 0 km/h
1412 27-08-2009 00:00:00 23.10167 C 10.48 g/m*3 23.1 C 0 km/h
1413 28-08-2009 00:00:00 21.60583 C 8.45 g/m*3 21.61 C 0 km/h
1414 29-08-2009 00:00:00 16.21167 C 6.62 g/m*3 16.21 C 0 km/h
1415 30-08-2009 00:00:00 16.655 C 6.94 g/m*3 16.66 C 0 km/h
1416 31-08-2009 00:00:00 19.54667 C 7.6 g/m*3 19.55 C 0 km/h
1417 01-09-2009 00:00:00 19.93167 C 10.19 g/m*3 19.93 C 0 km/h
1418 02-09-2009 00:00:00 18.765 C 9.38 g/m*3 18.77 C 0 km/h
1419 03-09-2009 00:00:00 17.39328 C 8.67 g/m*3 17.39 C 0 km/h
1420 04-09-2009 00:00:00 14.56333 C 8.22 g/m*3 14.56 C 0 km/h
1421 05-09-2009 00:00:00 15.10833 C 7.6 g/m*3 15.11 C 0 km/h
1422 06-09-2009 00:00:00 14.74583 C 8.27 g/m*3 14.75 C 0 km/h
1423 07-09-2009 00:00:00 17.63417 C 8.91 g/m*3 17.63 C 0 km/h
1424 08-09-2009 00:00:00 19.88167 C 9.54 g/m*3 19.88 C 0 km/h
1425 09-09-2009 00:00:00 19.7475 C 9.47 g/m*3 19.75 C 0 km/h
Sensor: Nr:Datum:Temp:Abs-Feuchte:Windchill:Wind:
Aussen-T/F 1426 10-09-2009 00:00:00 18.43917 C 10.33 g/m*3 18.44 C 0 km/h
1427 11-09-2009 00:00:00 17.6725 C 7.37 g/m*3 17.67 C 0 km/h
1428 12-09-2009 00:00:00 16.99083 C 7.3 g/m*3 16.99 C 0 km/h
1429 13-09-2009 00:00:00 14.23 C 8.62 g/m*3 14.23 C 0 km/h
1430 14-09-2009 00:00:00 12.17417 C 10.1 g/m*3 12.17 C 0 km/h
1431 15-09-2009 00:00:00 13.7563 C 10.75 g/m*3 13.76 C 0 km/h
1432 16-09-2009 00:00:00 16.725 C 11.49 g/m*3 16.73 C 0 km/h
1433 17-09-2009 00:00:00 18.47583 C 9.96 g/m*3 18.48 C 0 km/h
1434 18-09-2009 00:00:00 18.26083 C 9.85 g/m*3 18.26 C 0 km/h
1435 19-09-2009 00:00:00 20.78583 C 11.08 g/m*3 20.79 C 0 km/h
1436 20-09-2009 00:00:00 19.92833 C 11.89 g/m*3 19.93 C 0 km/h
1437 21-09-2009 00:00:00 18.85833 C 10.75 g/m*3 18.86 C 0 km/h
1438 22-09-2009 00:00:00 17.215 C 9.52 g/m*3 17.22 C 0 km/h
1439 23-09-2009 00:00:00 17.4225 C 9.72 g/m*3 17.42 C 0 km/h
1440 24-09-2009 00:00:00 17.19 C 10.45 g/m*3 17.19 C 0 km/h
1441 25-09-2009 00:00:00 15.16083 C 8.71 g/m*3 15.16 C 0 km/h
1442 26-09-2009 00:00:00 14.56333 C 8.19 g/m*3 14.56 C 0 km/h
1443 27-09-2009 00:00:00 14.64 C 8.22 g/m*3 14.64 C 0 km/h
1444 28-09-2009 00:00:00 14.21583 C 8.47 g/m*3 14.22 C 0 km/h
1445 29-09-2009 00:00:00 15.88319 C 8.68 g/m*3 15.88 C 0 km/h
1446 30-09-2009 00:00:00 16.535 C 9.98 g/m*3 16.54 C 0 km/h
1447 01-10-2009 00:00:00 14.71583 C 8.88 g/m*3 14.72 C 0 km/h
1448 02-10-2009 00:00:00 11.32167 C 6.59 g/m*3 11.32 C 0 km/h
1449 03-10-2009 00:00:00 11.72333 C 6.76 g/m*3 11.72 C 0 km/h
1450 04-10-2009 00:00:00 13.54167 C 7.94 g/m*3 13.54 C 0 km/h
Sensor: Nr:Datum:Temp:Abs-Feuchte:Windchill:Wind:
Aussen-T/F 1451 05-10-2009 00:00:00 12.4075 C 9.99 g/m*3 12.41 C 0 km/h
1452 06-10-2009 00:00:00 16.13417 C 12.08 g/m*3 16.13 C 0 km/h
1453 07-10-2009 00:00:00 19.57083 C 12.9 g/m*3 19.57 C 0 km/h
1454 08-10-2009 00:00:00 16.41167 C 9.99 g/m*3 16.41 C 0 km/h
1455 09-10-2009 00:00:00 11.88417 C 7.56 g/m*3 11.88 C 0 km/h
1456 10-10-2009 00:00:00 13.34667 C 9.66 g/m*3 13.35 C 0 km/h
1457 11-10-2009 00:00:00 12.35042 C 8.83 g/m*3 12.35 C 0 km/h
1458 12-10-2009 00:00:00 10.9275 C 6.43 g/m*3 10.93 C 0 km/h
1459 13-10-2009 00:00:00 9.24333 C 6.35 g/m*3 9.24 C 0 km/h
1460 14-10-2009 00:00:00 4.27333 C 4.38 g/m*3 4.27 C 0 km/h
1461 15-10-2009 00:00:00 3.45583 C 4.18 g/m*3 3.46 C 0 km/h
1462 16-10-2009 00:00:00 6.41083 C 5.8 g/m*3 6.41 C 0 km/h
1463 17-10-2009 00:00:00 8.52083 C 5.63 g/m*3 8.52 C 0 km/h
1464 18-10-2009 00:00:00 7.3775 C 5.38 g/m*3 7.38 C 0 km/h
1465 19-10-2009 00:00:00 4.59 C 4.71 g/m*3 4.59 C 0 km/h
1466 20-10-2009 00:00:00 5.17083 C 4.82 g/m*3 5.17 C 0 km/h
1467 21-10-2009 00:00:00 8.07333 C 5.02 g/m*3 8.07 C 0 km/h
1468 22-10-2009 00:00:00 9.4 C 5.91 g/m*3 9.4 C 0 km/h
1469 23-10-2009 00:00:00 8.34 C 7.02 g/m*3 8.34 C 0 km/h
1470 24-10-2009 00:00:00 10.5084 C 7.81 g/m*3 10.51 C 0 km/h
1471 25-10-2009 00:00:00 12.6096 C 8.4 g/m*3 12.61 C 0 km/h
1472 26-10-2009 00:00:00 11.8875 C 7.56 g/m*3 11.89 C 0 km/h
1473 27-10-2009 00:00:00 11.82417 C 7.63 g/m*3 11.82 C 0 km/h
1474 28-10-2009 00:00:00 8.37917 C 7.06 g/m*3 8.38 C 0 km/h
1475 29-10-2009 00:00:00 8.69333 C 7.48 g/m*3 8.69 C 0 km/h
Sensor: Nr:Datum:Temp:Abs-Feuchte:Windchill:Wind:
Aussen-T/F 1476 30-10-2009 00:00:00 10.54083 C 7.59 g/m*3 10.54 C 0 km/h
1477 31-10-2009 00:00:00 7.03083 C 5.82 g/m*3 7.03 C 0 km/h
1478 01-11-2009 00:00:00 9.17333 C 6.74 g/m*3 9.17 C 0 km/h
1479 02-11-2009 00:00:00 10.32333 C 8.29 g/m*3 10.32 C 0 km/h
1480 03-11-2009 00:00:00 8.06167 C 6.19 g/m*3 8.06 C 0 km/h
1481 04-11-2009 00:00:00 8.75 C 7.01 g/m*3 8.75 C 0 km/h
1482 05-11-2009 00:00:00 9.29748 C 6.2 g/m*3 9.3 C 0 km/h
1483 06-11-2009 00:00:00 9.43333 C 6.28 g/m*3 9.43 C 0 km/h
1484 07-11-2009 00:00:00 8.11583 C 5.94 g/m*3 8.12 C 0 km/h
1485 08-11-2009 00:00:00 6.9 C 6.33 g/m*3 6.9 C 0 km/h
1486 09-11-2009 00:00:00 6.21167 C 6.26 g/m*3 6.21 C 0 km/h
1487 10-11-2009 00:00:00 6.03 C 6.79 g/m*3 6.03 C 0 km/h
1488 11-11-2009 00:00:00 6.2525 C 6.18 g/m*3 6.25 C 0 km/h
1489 12-11-2009 00:00:00 4.66 C 6.06 g/m*3 4.66 C 0 km/h
1490 13-11-2009 00:00:00 11.27583 C 8.27 g/m*3 11.28 C 0 km/h
1491 14-11-2009 00:00:00 11.7125 C 7.87 g/m*3 11.71 C 0 km/h
1492 15-11-2009 00:00:00 11.2125 C 6.89 g/m*3 11.21 C 0 km/h
1493 16-11-2009 00:00:00 10.92667 C 8.53 g/m*3 10.93 C 0 km/h
1494 17-11-2009 00:00:00 10.88235 C 8.48 g/m*3 10.88 C 0 km/h
1495 18-11-2009 00:00:00 10.245 C 6.24 g/m*3 10.25 C 0 km/h
1496 19-11-2009 00:00:00 9.77667 C 6.57 g/m*3 9.78 C 0 km/h
1497 20-11-2009 00:00:00 7.87917 C 6.83 g/m*3 7.88 C 0 km/h
1498 21-11-2009 00:00:00 11.67333 C 7.8 g/m*3 11.67 C 0 km/h
1499 22-11-2009 00:00:00 11.84167 C 6.48 g/m*3 11.84 C 0 km/h
1500 23-11-2009 00:00:00 10.33417 C 6.93 g/m*3 10.33 C 0 km/h
Sensor: Nr:Datum:Temp:Abs-Feuchte:Windchill:Wind:
Aussen-T/F 1501 24-11-2009 00:00:00 11.89833 C 7.31 g/m*3 11.9 C 0 km/h
1502 25-11-2009 00:00:00 12.0875 C 6.36 g/m*3 12.09 C 0 km/h
1503 26-11-2009 00:00:00 9.98917 C 5.73 g/m*3 9.99 C 0 km/h
1504 27-11-2009 00:00:00 9.0425 C 5.58 g/m*3 9.04 C 0 km/h
1505 28-11-2009 00:00:00 8.79 C 5.95 g/m*3 8.79 C 0 km/h
1506 29-11-2009 00:00:00 9.41597 C 6.1 g/m*3 9.42 C 0 km/h
1507 30-11-2009 00:00:00 6.46 C 6.32 g/m*3 6.46 C 0 km/h
1508 01-12-2009 00:00:00 5.65583 C 5.93 g/m*3 5.66 C 0 km/h
1509 02-12-2009 00:00:00 5.96 C 5.22 g/m*3 5.96 C 0 km/h
1510 03-12-2009 00:00:00 8.53667 C 6.07 g/m*3 8.54 C 0 km/h
1511 04-12-2009 00:00:00 4.73917 C 4.37 g/m*3 4.74 C 0 km/h
1512 05-12-2009 00:00:00 5.3975 C 5.13 g/m*3 5.4 C 0 km/h
1513 06-12-2009 00:00:00 9.83 C 7.53 g/m*3 9.83 C 0 km/h
1514 07-12-2009 00:00:00 5.59917 C 6.01 g/m*3 5.6 C 0 km/h
1515 08-12-2009 00:00:00 6.95833 C 6.27 g/m*3 6.96 C 0 km/h
1516 09-12-2009 00:00:00 7.2525 C 6.19 g/m*3 7.25 C 0 km/h
1517 10-12-2009 00:00:00 8.78583 C 6.99 g/m*3 8.79 C 0 km/h
1518 11-12-2009 00:00:00 6.665 C 6.16 g/m*3 6.67 C 0 km/h
1519 12-12-2009 00:00:00 3.47833 C 5.29 g/m*3 3.48 C 0 km/h
1520 13-12-2009 00:00:00 1.50924 C 3.54 g/m*3 1.51 C 0 km/h
1521 14-12-2009 00:00:00 -0.80667 C 2.67 g/m*3 -0.81 C 0 km/h
1522 15-12-2009 00:00:00 -0.50083 C 2.88 g/m*3 -0.5 C 0 km/h
1523 16-12-2009 00:00:00 -1.19917 C 2.79 g/m*3 -1.2 C 0 km/h
1524 17-12-2009 00:00:00 -4.445 C 2.62 g/m*3 -4.45 C 0 km/h
1525 18-12-2009 00:00:00 -5.04417 C 2.34 g/m*3 -5.04 C 0 km/h
Sensor: Nr:Datum:Temp:Abs-Feuchte:Windchill:Wind:
Aussen-T/F 1526 19-12-2009 00:00:00 -12.79 C 1.12 g/m*3 -12.79 C 0 km/h
1527 20-12-2009 00:00:00 -8.03917 C 1.87 g/m*3 -8.04 C 0 km/h
1528 21-12-2009 00:00:00 -2.18417 C 3.25 g/m*3 -2.18 C 0 km/h
1529 22-12-2009 00:00:00 2.7175 C 5.09 g/m*3 2.72 C 0 km/h
1530 23-12-2009 00:00:00 0.49333 C 4.68 g/m*3 0.49 C 0 km/h
1531 24-12-2009 00:00:00 2.31333 C 5.15 g/m*3 2.31 C 0 km/h
1532 25-12-2009 00:00:00 4.38824 C 5.08 g/m*3 4.39 C 0 km/h
1533 26-12-2009 00:00:00 2.04583 C 4.45 g/m*3 2.05 C 0 km/h
1534 27-12-2009 00:00:00 0.5475 C 4.38 g/m*3 0.55 C 0 km/h
1535 28-12-2009 00:00:00 3.1425 C 4.49 g/m*3 3.14 C 0 km/h
1536 29-12-2009 00:00:00 0.4625 C 4.61 g/m*3 0.46 C 0 km/h
1537 30-12-2009 00:00:00 7.05667 C 7.27 g/m*3 7.06 C 0 km/h
1538 31-12-2009 00:00:00 5.32667 C 6.59 g/m*3 5.33 C 0 km/h
1539 01-01-2010 00:00:00 -0.1725 C 4.38 g/m*3 -0.17 C 0 km/h
1540 02-01-2010 00:00:00 -1.51083 C 3.34 g/m*3 -1.51 C 0 km/h
1541 03-01-2010 00:00:00 -1.79667 C 3.45 g/m*3 -1.8 C 0 km/h
1542 04-01-2010 00:00:00 -5.24083 C 2.41 g/m*3 -5.24 C 0 km/h
1543 05-01-2010 00:00:00 -8.00083 C 2.22 g/m*3 -8 C 0 km/h
1544 06-01-2010 00:00:00 -6.88917 C 2.25 g/m*3 -6.89 C 0 km/h
1545 07-01-2010 00:00:00 -3.75966 C 2.79 g/m*3 -3.76 C 0 km/h
1546 08-01-2010 00:00:00 -4.82167 C 2.54 g/m*3 -4.82 C 0 km/h
1547 09-01-2010 00:00:00 -2.655 C 3.05 g/m*3 -2.66 C 0 km/h
1548 10-01-2010 00:00:00 -1.87083 C 3.27 g/m*3 -1.87 C 0 km/h
1549 11-01-2010 00:00:00 -1.42833 C 3.62 g/m*3 -1.43 C 0 km/h
1550 12-01-2010 00:00:00 -1.65833 C 3.4 g/m*3 -1.66 C 0 km/h
Sensor: Nr:Datum:Temp:Abs-Feuchte:Windchill:Wind:
Aussen-T/F 1551 13-01-2010 00:00:00 -2.2325 C 2.99 g/m*3 -2.23 C 0 km/h
1552 14-01-2010 00:00:00 0.35417 C 3.98 g/m*3 0.35 C 0 km/h
1553 15-01-2010 00:00:00 0.87333 C 4.07 g/m*3 0.87 C 0 km/h
1554 16-01-2010 00:00:00 -0.11833 C 3.75 g/m*3 -0.12 C 0 km/h
1555 17-01-2010 00:00:00 2.09667 C 5.1 g/m*3 2.1 C 0 km/h
1556 18-01-2010 00:00:00 3.38333 C 5.07 g/m*3 3.38 C 0 km/h
1557 19-01-2010 00:00:00 2.24583 C 5.1 g/m*3 2.25 C 0 km/h
1558 20-01-2010 00:00:00 1.97417 C 4.66 g/m*3 1.97 C 0 km/h
1559 21-01-2010 00:00:00 2.45126 C 4.02 g/m*3 2.45 C 0 km/h
1560 22-01-2010 00:00:00 2.93667 C 4.24 g/m*3 2.94 C 0 km/h
1561 23-01-2010 00:00:00 -0.41333 C 3.36 g/m*3 -0.41 C 0 km/h
1562 24-01-2010 00:00:00 0.27167 C 4.06 g/m*3 0.27 C 0 km/h
1563 25-01-2010 00:00:00 0.01667 C 4.19 g/m*3 0.02 C 0 km/h
1564 26-01-2010 00:00:00 -3.325 C 2.8 g/m*3 -3.33 C 0 km/h
1565 27-01-2010 00:00:00 -5.54083 C 2.18 g/m*3 -5.54 C 0 km/h
1566 28-01-2010 00:00:00 1.20667 C 4.04 g/m*3 1.21 C 0 km/h
1567 29-01-2010 00:00:00 1.39083 C 4.5 g/m*3 1.39 C 0 km/h
1568 30-01-2010 00:00:00 -1.54583 C 3.39 g/m*3 -1.55 C 0 km/h
1569 31-01-2010 00:00:00 -1.62333 C 3.2 g/m*3 -1.62 C 0 km/h
1570 01-02-2010 00:00:00 0.20167 C 3.69 g/m*3 0.2 C 0 km/h
1571 02-02-2010 00:00:00 0.69916 C 4 g/m*3 0.7 C 0 km/h
1572 03-02-2010 00:00:00 2.28899 C 5.05 g/m*3 2.29 C 0 km/h
1573 04-02-2010 00:00:00 4.17018 C 5.55 g/m*3 4.17 C 0 km/h
1574 05-02-2010 00:00:00 3.29649 C 4.9 g/m*3 3.3 C 0 km/h
1575 06-02-2010 00:00:00 4.55172 C 5.47 g/m*3 4.55 C 0 km/h
Sensor: Nr:Datum:Temp:Abs-Feuchte:Windchill:Wind:
Aussen-T/F 1576 07-02-2010 00:00:00 4.17018 C 5.02 g/m*3 4.17 C 0 km/h
1577 08-02-2010 00:00:00 -0.75 C 2.85 g/m*3 -0.75 C 0 km/h
1578 09-02-2010 00:00:00 -3.74483 C 2.17 g/m*3 -3.74 C 0 km/h
1579 10-02-2010 00:00:00 -4.8 C 2.32 g/m*3 -4.8 C 0 km/h
1580 11-02-2010 00:00:00 -3.79828 C 2.62 g/m*3 -3.8 C 0 km/h
1581 12-02-2010 00:00:00 -2.14737 C 2.95 g/m*3 -2.15 C 0 km/h
1582 13-02-2010 00:00:00 -2.57414 C 2.82 g/m*3 -2.57 C 0 km/h
1583 14-02-2010 00:00:00 -2.13621 C 3.1 g/m*3 -2.14 C 0 km/h
1584 15-02-2010 00:00:00 -1.12632 C 3.21 g/m*3 -1.13 C 0 km/h
1585 16-02-2010 00:00:00 -1.16379 C 3.02 g/m*3 -1.16 C 0 km/h
1586 17-02-2010 00:00:00 -1.61754 C 3.18 g/m*3 -1.62 C 0 km/h
1587 18-02-2010 00:00:00 3.2569 C 4.56 g/m*3 3.26 C 0 km/h
1588 19-02-2010 00:00:00 3.59375 C 4.12 g/m*3 3.59 C 0 km/h
1589 20-02-2010 00:00:00 1.69333 C 3.53 g/m*3 1.69 C 0 km/h
1590 21-02-2010 00:00:00 2.87833 C 4.25 g/m*3 2.88 C 0 km/h
1591 22-02-2010 00:00:00 6.76417 C 5.24 g/m*3 6.76 C 0 km/h
1592 23-02-2010 00:00:00 9.7875 C 7.07 g/m*3 9.79 C 0 km/h
1593 24-02-2010 00:00:00 9.55 C 6.5 g/m*3 9.55 C 0 km/h
1594 25-02-2010 00:00:00 9.58 C 5.92 g/m*3 9.58 C 0 km/h
1595 26-02-2010 00:00:00 8.62667 C 5.33 g/m*3 8.63 C 0 km/h
1596 27-02-2010 00:00:00 8.4025 C 4.07 g/m*3 8.4 C 0 km/h
1597 28-02-2010 00:00:00 8.30667 C 5.5 g/m*3 8.31 C 0 km/h
1598 01-03-2010 00:00:00 5.40917 C 3.85 g/m*3 5.41 C 0 km/h
1599 02-03-2010 00:00:00 3.135 C 3.87 g/m*3 3.14 C 0 km/h
1600 03-03-2010 00:00:00 2.9925 C 3.33 g/m*3 2.99 C 0 km/h
Sensor: Nr:Datum:Temp:Abs-Feuchte:Windchill:Wind:
Aussen-T/F 1601 04-03-2010 00:00:00 2.47395 C 2.67 g/m*3 2.47 C 0 km/h
1602 05-03-2010 00:00:00 0.77667 C 2.41 g/m*3 0.78 C 0 km/h
1603 06-03-2010 00:00:00 -0.47083 C 3.38 g/m*3 -0.47 C 0 km/h
1604 07-03-2010 00:00:00 -1.6825 C 2.27 g/m*3 -1.68 C 0 km/h
1605 08-03-2010 00:00:00 -1.21083 C 1.92 g/m*3 -1.21 C 0 km/h
1606 09-03-2010 00:00:00 -0.87167 C 1.76 g/m*3 -0.87 C 0 km/h
1607 10-03-2010 00:00:00 1.41667 C 1.75 g/m*3 1.42 C 0 km/h
1608 11-03-2010 00:00:00 0.40167 C 2.56 g/m*3 0.4 C 0 km/h
1609 12-03-2010 00:00:00 1.61167 C 3.86 g/m*3 1.61 C 0 km/h
1610 13-03-2010 00:00:00 4.36583 C 4.23 g/m*3 4.37 C 0 km/h
1611 14-03-2010 00:00:00 5.79833 C 4.06 g/m*3 5.8 C 0 km/h
1612 15-03-2010 00:00:00 6.445 C 5.04 g/m*3 6.45 C 0 km/h
1613 16-03-2010 00:00:00 6.08067 C 5.63 g/m*3 6.08 C 0 km/h
1614 17-03-2010 00:00:00 6.69417 C 4.48 g/m*3 6.69 C 0 km/h
1615 18-03-2010 00:00:00 10.12333 C 4.54 g/m*3 10.12 C 0 km/h
1616 19-03-2010 00:00:00 15.0225 C 4.66 g/m*3 15.02 C 0 km/h
1617 20-03-2010 00:00:00 14.37667 C 8.46 g/m*3 14.38 C 0 km/h
1618 21-03-2010 00:00:00 11.23667 C 8.65 g/m*3 11.24 C 0 km/h
1619 22-03-2010 00:00:00 9.7575 C 7.03 g/m*3 9.76 C 0 km/h
1620 23-03-2010 00:00:00 8.94 C 6.12 g/m*3 8.94 C 0 km/h
1621 24-03-2010 00:00:00 11.9975 C 6.24 g/m*3 12 C 0 km/h
1622 25-03-2010 00:00:00 14.27083 C 6.52 g/m*3 14.27 C 0 km/h
1623 26-03-2010 00:00:00 10.0325 C 7.02 g/m*3 10.03 C 0 km/h
1624 27-03-2010 00:00:00 9.34333 C 5.7 g/m*3 9.34 C 0 km/h
1625 28-03-2010 00:00:00 9.93478 C 6.19 g/m*3 9.93 C 0 km/h
Sensor: Nr:Datum:Temp:Abs-Feuchte:Windchill:Wind:
Aussen-T/F 1626 29-03-2010 00:00:00 11.88167 C 8.04 g/m*3 11.88 C 0 km/h
1627 30-03-2010 00:00:00 12.70672 C 6.43 g/m*3 12.71 C 0 km/h
1628 31-03-2010 00:00:00 8.18667 C 4.45 g/m*3 8.19 C 0 km/h
1629 01-04-2010 00:00:00 5.84333 C 3.76 g/m*3 5.84 C 0 km/h
1630 02-04-2010 00:00:00 6.48583 C 4.37 g/m*3 6.49 C 0 km/h
1631 03-04-2010 00:00:00 9.73667 C 5.47 g/m*3 9.74 C 0 km/h
1632 04-04-2010 00:00:00 8.98833 C 5.25 g/m*3 8.99 C 0 km/h
1633 05-04-2010 00:00:00 9.15083 C 4.56 g/m*3 9.15 C 0 km/h
1634 06-04-2010 00:00:00 10.38167 C 4.41 g/m*3 10.38 C 0 km/h
1635 07-04-2010 00:00:00 13.61167 C 5.07 g/m*3 13.61 C 0 km/h
1636 08-04-2010 00:00:00 12.375 C 6.96 g/m*3 12.38 C 0 km/h
1637 09-04-2010 00:00:00 11.49917 C 5.91 g/m*3 11.5 C 0 km/h
1638 10-04-2010 00:00:00 11.3575 C 4.66 g/m*3 11.36 C 0 km/h
1639 11-04-2010 00:00:00 7.86667 C 4.35 g/m*3 7.87 C 0 km/h
1640 12-04-2010 00:00:00 7.44958 C 5.35 g/m*3 7.45 C 0 km/h
1641 13-04-2010 00:00:00 11.85583 C 6.16 g/m*3 11.86 C 0 km/h
1642 14-04-2010 00:00:00 11.76417 C 4.66 g/m*3 11.76 C 0 km/h
1643 15-04-2010 00:00:00 11.8575 C 5 g/m*3 11.86 C 0 km/h
1644 16-04-2010 00:00:00 9.71583 C 4.32 g/m*3 9.72 C 0 km/h
1645 17-04-2010 00:00:00 11.1225 C 4.54 g/m*3 11.12 C 0 km/h
1646 18-04-2010 00:00:00 13.27917 C 4.52 g/m*3 13.28 C 0 km/h
1647 19-04-2010 00:00:00 11.18333 C 5.12 g/m*3 11.18 C 0 km/h
1648 20-04-2010 00:00:00 11.13833 C 5.11 g/m*3 11.14 C 0 km/h
1649 21-04-2010 00:00:00 7.34417 C 3.84 g/m*3 7.34 C 0 km/h
1650 22-04-2010 00:00:00 8.35333 C 3.82 g/m*3 8.35 C 0 km/h
Sensor: Nr:Datum:Temp:Abs-Feuchte:Windchill:Wind:
Aussen-T/F 1651 23-04-2010 00:00:00 11.44917 C 4.09 g/m*3 11.45 C 0 km/h
1652 24-04-2010 00:00:00 14.91167 C 4.56 g/m*3 14.91 C 0 km/h
1653 25-04-2010 00:00:00 17.1075 C 5.25 g/m*3 17.11 C 0 km/h
1654 26-04-2010 00:00:00 15.72269 C 7.07 g/m*3 15.72 C 0 km/h
1655 27-04-2010 00:00:00 15.50417 C 6.31 g/m*3 15.5 C 0 km/h
1656 28-04-2010 00:00:00 16.8925 C 6.33 g/m*3 16.89 C 0 km/h
1657 29-04-2010 00:00:00 19.21417 C 6.68 g/m*3 19.21 C 0 km/h
1658 30-04-2010 00:00:00 18.69583 C 7.11 g/m*3 18.7 C 0 km/h
1659 01-05-2010 00:00:00 15.09917 C 6.78 g/m*3 15.1 C 0 km/h
1660 02-05-2010 00:00:00 13.48583 C 7.64 g/m*3 13.49 C 0 km/h
1661 03-05-2010 00:00:00 10.01667 C 6.94 g/m*3 10.02 C 0 km/h
1662 04-05-2010 00:00:00 9.78833 C 5.53 g/m*3 9.79 C 0 km/h
1663 05-05-2010 00:00:00 10.09083 C 3.78 g/m*3 10.09 C 0 km/h
1664 06-05-2010 00:00:00 6.68167 C 6.78 g/m*3 6.68 C 0 km/h
1665 07-05-2010 00:00:00 6.49417 C 6.66 g/m*3 6.49 C 0 km/h
1666 08-05-2010 00:00:00 11.06218 C 6.38 g/m*3 11.06 C 0 km/h
1667 09-05-2010 00:00:00 12.575 C 6.93 g/m*3 12.58 C 0 km/h
1668 10-05-2010 00:00:00 11.99917 C 6.67 g/m*3 12 C 0 km/h
1669 11-05-2010 00:00:00 11.53167 C 6.84 g/m*3 11.53 C 0 km/h
1670 12-05-2010 00:00:00 8.62333 C 6.33 g/m*3 8.62 C 0 km/h
1671 13-05-2010 00:00:00 8.07667 C 6.31 g/m*3 8.08 C 0 km/h
1672 14-05-2010 00:00:00 8.97333 C 7.22 g/m*3 8.97 C 0 km/h
1673 15-05-2010 00:00:00 10.6825 C 5.92 g/m*3 10.68 C 0 km/h
1674 16-05-2010 00:00:00 13.32917 C 5.32 g/m*3 13.33 C 0 km/h
1675 17-05-2010 00:00:00 10.56917 C 7.13 g/m*3 10.57 C 0 km/h
Sensor: Nr:Datum:Temp:Abs-Feuchte:Windchill:Wind:
Aussen-T/F 1676 18-05-2010 00:00:00 11.44333 C 6.07 g/m*3 11.44 C 0 km/h
1677 19-05-2010 00:00:00 10.30583 C 6.32 g/m*3 10.31 C 0 km/h
1678 20-05-2010 00:00:00 12.64034 C 6.31 g/m*3 12.64 C 0 km/h
1679 21-05-2010 00:00:00 16.54333 C 7.66 g/m*3 16.54 C 0 km/h
1680 22-05-2010 00:00:00 18.32583 C 7.75 g/m*3 18.33 C 0 km/h
1681 23-05-2010 00:00:00 20.32083 C 8.65 g/m*3 20.32 C 0 km/h
1682 24-05-2010 00:00:00 21.23 C 8.94 g/m*3 21.23 C 0 km/h
1683 25-05-2010 00:00:00 20.64583 C 7.99 g/m*3 20.65 C 0 km/h
1684 26-05-2010 00:00:00 15.41917 C 9.07 g/m*3 15.42 C 0 km/h
1685 27-05-2010 00:00:00 15.6175 C 8.18 g/m*3 15.62 C 0 km/h
1686 28-05-2010 00:00:00 17.3075 C 7.94 g/m*3 17.31 C 0 km/h
1687 29-05-2010 00:00:00 16.34 C 7.23 g/m*3 16.34 C 0 km/h
1688 30-05-2010 00:00:00 14.5975 C 8.93 g/m*3 14.6 C 0 km/h
1689 31-05-2010 00:00:00 11.56667 C 8.16 g/m*3 11.57 C 0 km/h
1690 01-06-2010 00:00:00 16.01833 C 8.41 g/m*3 16.02 C 0 km/h
1691 02-06-2010 00:00:00 17.66471 C 7.79 g/m*3 17.66 C 0 km/h
1692 03-06-2010 00:00:00 20.49083 C 7.88 g/m*3 20.49 C 0 km/h
1693 04-06-2010 00:00:00 21.43 C 7.91 g/m*3 21.43 C 0 km/h
1694 05-06-2010 00:00:00 22.97667 C 8.82 g/m*3 22.98 C 0 km/h
1695 06-06-2010 00:00:00 20.91333 C 11.1 g/m*3 20.91 C 0 km/h
1696 07-06-2010 00:00:00 19.58833 C 9.05 g/m*3 19.59 C 0 km/h
1697 08-06-2010 00:00:00 19.76833 C 9.52 g/m*3 19.77 C 0 km/h
1698 09-06-2010 00:00:00 22.5625 C 11.34 g/m*3 22.56 C 0 km/h
1699 10-06-2010 00:00:00 22.76417 C 13.55 g/m*3 22.76 C 0 km/h
1700 11-06-2010 00:00:00 22.89167 C 11.59 g/m*3 22.89 C 0 km/h
Sensor: Nr:Datum:Temp:Abs-Feuchte:Windchill:Wind:
Aussen-T/F 1701 12-06-2010 00:00:00 18.84917 C 10.25 g/m*3 18.85 C 0 km/h
1702 13-06-2010 00:00:00 18.25083 C 7.8 g/m*3 18.25 C 0 km/h
1703 14-06-2010 00:00:00 19.76667 C 7.8 g/m*3 19.77 C 0 km/h
1704 15-06-2010 00:00:00 18.9 C 8.06 g/m*3 18.9 C 0 km/h
1705 16-06-2010 00:00:00 18.82833 C 6.18 g/m*3 18.83 C 0 km/h
1706 17-06-2010 00:00:00 15.08583 C 9.23 g/m*3 15.09 C 0 km/h
1707 18-06-2010 00:00:00 15.2325 C 9.35 g/m*3 15.23 C 0 km/h
1708 19-06-2010 00:00:00 14.2725 C 6.27 g/m*3 14.27 C 0 km/h
1709 20-06-2010 00:00:00 13.20333 C 6.8 g/m*3 13.2 C 0 km/h
1710 21-06-2010 00:00:00 14.11083 C 6.37 g/m*3 14.11 C 0 km/h
1711 22-06-2010 00:00:00 17.38667 C 7.03 g/m*3 17.39 C 0 km/h
1712 23-06-2010 00:00:00 19.75917 C 8.12 g/m*3 19.76 C 0 km/h
1713 24-06-2010 00:00:00 22.54833 C 8.68 g/m*3 22.55 C 0 km/h
1714 25-06-2010 00:00:00 23.37 C 8.65 g/m*3 23.37 C 0 km/h
1715 26-06-2010 00:00:00 23.635 C 8.77 g/m*3 23.64 C 0 km/h
1716 27-06-2010 00:00:00 24.49417 C 9.01 g/m*3 24.49 C 0 km/h
1717 28-06-2010 00:00:00 25.25546 C 9.1 g/m*3 25.26 C 0 km/h
1718 29-06-2010 00:00:00 24.86167 C 9.83 g/m*3 24.86 C 0 km/h
1719 30-06-2010 00:00:00 24.6175 C 10.06 g/m*3 24.62 C 0 km/h
1720 01-07-2010 00:00:00 25.8425 C 9.72 g/m*3 25.84 C 0 km/h
1721 02-07-2010 00:00:00 26.96667 C 9.63 g/m*3 26.97 C 0 km/h
1722 03-07-2010 00:00:00 26.33 C 11.31 g/m*3 26.33 C 0 km/h
1723 04-07-2010 00:00:00 26.44833 C 12.05 g/m*3 26.45 C 0 km/h
1724 05-07-2010 00:00:00 22.02083 C 9.04 g/m*3 22.02 C 0 km/h
1725 06-07-2010 00:00:00 20.17833 C 8.34 g/m*3 20.18 C 0 km/h
Sensor: Nr:Datum:Temp:Abs-Feuchte:Windchill:Wind:
Aussen-T/F 1726 07-07-2010 00:00:00 22.53417 C 8.16 g/m*3 22.53 C 0 km/h
1727 08-07-2010 00:00:00 26.43417 C 8.69 g/m*3 26.43 C 0 km/h
1728 09-07-2010 00:00:00 27.51333 C 9.42 g/m*3 27.51 C 0 km/h
1729 10-07-2010 00:00:00 29.25667 C 10.76 g/m*3 29.26 C 0 km/h
1730 11-07-2010 00:00:00 28.48319 C 12.85 g/m*3 28.48 C 0 km/h
1731 12-07-2010 00:00:00 27.1175 C 11.1 g/m*3 27.12 C 0 km/h
1732 13-07-2010 00:00:00 25.36083 C 10.39 g/m*3 25.36 C 0 km/h
1733 14-07-2010 00:00:00 25.98917 C 11.73 g/m*3 25.99 C 0 km/h
1734 15-07-2010 00:00:00 22.6525 C 8.81 g/m*3 22.65 C 0 km/h
1735 16-07-2010 00:00:00 23.97667 C 8.47 g/m*3 23.98 C 0 km/h
1736 17-07-2010 00:00:00 21.99167 C 10.18 g/m*3 21.99 C 0 km/h
1737 18-07-2010 00:00:00 21.73833 C 7.35 g/m*3 21.74 C 0 km/h
1738 19-07-2010 00:00:00 23.63167 C 8.01 g/m*3 23.63 C 0 km/h
1739 20-07-2010 00:00:00 25.03833 C 8.46 g/m*3 25.04 C 0 km/h
1740 21-07-2010 00:00:00 24.73833 C 9.31 g/m*3 24.74 C 0 km/h
1741 22-07-2010 00:00:00 21.34917 C 11.61 g/m*3 21.35 C 0 km/h
1742 23-07-2010 00:00:00 20.17059 C 11.52 g/m*3 20.17 C 0 km/h
1743 24-07-2010 00:00:00 19.00667 C 9.15 g/m*3 19.01 C 0 km/h
1744 25-07-2010 00:00:00 17.26833 C 7.8 g/m*3 17.27 C 0 km/h
1745 26-07-2010 00:00:00 17.2925 C 11.46 g/m*3 17.29 C 0 km/h
1746 27-07-2010 00:00:00 19.815 C 10.06 g/m*3 19.82 C 0 km/h
1747 28-07-2010 00:00:00 20.5075 C 11.17 g/m*3 20.51 C 0 km/h
1748 29-07-2010 00:00:00 16.32417 C 11.42 g/m*3 16.32 C 0 km/h
1749 30-07-2010 00:00:00 19.665 C 9.34 g/m*3 19.67 C 0 km/h
1750 31-07-2010 00:00:00 20.62417 C 9.08 g/m*3 20.62 C 0 km/h
Sensor: Nr:Datum:Temp:Abs-Feuchte:Windchill:Wind:
Aussen-T/F 1751 01-08-2010 00:00:00 22.90833 C 11.98 g/m*3 22.91 C 0 km/h
1752 02-08-2010 00:00:00 19.60917 C 11.25 g/m*3 19.61 C 0 km/h
1753 03-08-2010 00:00:00 18.94167 C 10.12 g/m*3 18.94 C 0 km/h
1754 04-08-2010 00:00:00 19.62269 C 9.16 g/m*3 19.62 C 0 km/h
1755 05-08-2010 00:00:00 18.49417 C 10 g/m*3 18.49 C 0 km/h
1756 06-08-2010 00:00:00 19.04667 C 8.08 g/m*3 19.05 C 0 km/h
1757 07-08-2010 00:00:00 19.46583 C 7.91 g/m*3 19.47 C 0 km/h
1758 08-08-2010 00:00:00 18.485 C 11.68 g/m*3 18.49 C 0 km/h
1759 09-08-2010 00:00:00 19.515 C 10.42 g/m*3 19.52 C 0 km/h
1760 10-08-2010 00:00:00 22.13583 C 9.74 g/m*3 22.14 C 0 km/h
1761 11-08-2010 00:00:00 20.32833 C 12.64 g/m*3 20.33 C 0 km/h
1762 12-08-2010 00:00:00 19.10917 C 11.28 g/m*3 19.11 C 0 km/h
1763 13-08-2010 00:00:00 18.77833 C 9.07 g/m*3 18.78 C 0 km/h
1764 14-08-2010 00:00:00 19.9675 C 9.59 g/m*3 19.97 C 0 km/h
1765 15-08-2010 00:00:00 16.88667 C 11.8 g/m*3 16.89 C 0 km/h
1766 16-08-2010 00:00:00 17.07479 C 11.15 g/m*3 17.07 C 0 km/h
1767 17-08-2010 00:00:00 16.06667 C 10.71 g/m*3 16.07 C 0 km/h
1768 18-08-2010 00:00:00 18.40917 C 9.91 g/m*3 18.41 C 0 km/h
1769 19-08-2010 00:00:00 18.88917 C 8.2 g/m*3 18.89 C 0 km/h
1770 20-08-2010 00:00:00 20.42605 C 9.9 g/m*3 20.43 C 0 km/h
1771 21-08-2010 00:00:00 23.76417 C 11.32 g/m*3 23.76 C 0 km/h
1772 22-08-2010 00:00:00 23.01667 C 12.14 g/m*3 23.02 C 0 km/h
1773 23-08-2010 00:00:00 21.205 C 13.12 g/m*3 21.21 C 0 km/h
1774 24-08-2010 00:00:00 19.27083 C 7.86 g/m*3 19.27 C 0 km/h
1775 25-08-2010 00:00:00 17.61917 C 7.68 g/m*3 17.62 C 0 km/h
Sensor: Nr:Datum:Temp:Abs-Feuchte:Windchill:Wind:
Aussen-T/F 1776 26-08-2010 00:00:00 20.68083 C 11.52 g/m*3 20.68 C 0 km/h
1777 27-08-2010 00:00:00 18.37667 C 13.18 g/m*3 18.38 C 0 km/h
1778 28-08-2010 00:00:00 14.0675 C 8.89 g/m*3 14.07 C 0 km/h
1779 29-08-2010 00:00:00 13.03167 C 8.58 g/m*3 13.03 C 0 km/h
1780 30-08-2010 00:00:00 12.5675 C 8.53 g/m*3 12.57 C 0 km/h
1781 31-08-2010 00:00:00 15.42917 C 8.4 g/m*3 15.43 C 0 km/h
1782 01-09-2010 00:00:00 14.82437 C 8.4 g/m*3 14.82 C 0 km/h
1783 02-09-2010 00:00:00 14.95333 C 8.79 g/m*3 14.95 C 0 km/h
1784 03-09-2010 00:00:00 15.91417 C 9.06 g/m*3 15.91 C 0 km/h
1785 04-09-2010 00:00:00 16.71417 C 8.43 g/m*3 16.71 C 0 km/h
1786 05-09-2010 00:00:00 15.205 C 7.52 g/m*3 15.21 C 0 km/h
1787 06-09-2010 00:00:00 15.675 C 6.76 g/m*3 15.68 C 0 km/h
1788 07-09-2010 00:00:00 13.36083 C 8.36 g/m*3 13.36 C 0 km/h
1789 08-09-2010 00:00:00 15.545 C 10.94 g/m*3 15.55 C 0 km/h
1790 09-09-2010 00:00:00 16.20583 C 9.61 g/m*3 16.21 C 0 km/h
1791 10-09-2010 00:00:00 16.18 C 10.13 g/m*3 16.18 C 0 km/h
1792 11-09-2010 00:00:00 18.13417 C 10.44 g/m*3 18.13 C 0 km/h
1793 12-09-2010 00:00:00 16.21667 C 10.52 g/m*3 16.22 C 0 km/h
1794 13-09-2010 00:00:00 15.67583 C 9.31 g/m*3 15.68 C 0 km/h
1795 14-09-2010 00:00:00 16.63697 C 8.96 g/m*3 16.64 C 0 km/h
1796 15-09-2010 00:00:00 16.3175 C 7.82 g/m*3 16.32 C 0 km/h
1797 16-09-2010 00:00:00 14.07 C 8.33 g/m*3 14.07 C 0 km/h
1798 17-09-2010 00:00:00 13.76667 C 7.53 g/m*3 13.77 C 0 km/h
1799 18-09-2010 00:00:00 11.45083 C 6.84 g/m*3 11.45 C 0 km/h
1800 19-09-2010 00:00:00 11.7425 C 6.69 g/m*3 11.74 C 0 km/h
Sensor: Nr:Datum:Temp:Abs-Feuchte:Windchill:Wind:
Aussen-T/F 1801 20-09-2010 00:00:00 14.01 C 7.27 g/m*3 14.01 C 0 km/h
1802 21-09-2010 00:00:00 14.27 C 8.52 g/m*3 14.27 C 0 km/h
1803 22-09-2010 00:00:00 15.86667 C 9.22 g/m*3 15.87 C 0 km/h
1804 23-09-2010 00:00:00 16.56167 C 9.98 g/m*3 16.56 C 0 km/h
1805 24-09-2010 00:00:00 14.165 C 11.47 g/m*3 14.17 C 0 km/h
1806 25-09-2010 00:00:00 12.41833 C 7.9 g/m*3 12.42 C 0 km/h
1807 26-09-2010 00:00:00 11.2425 C 7.29 g/m*3 11.24 C 0 km/h
1808 27-09-2010 00:00:00 9.86807 C 7.48 g/m*3 9.87 C 0 km/h
1809 28-09-2010 00:00:00 10.93083 C 9.4 g/m*3 10.93 C 0 km/h
1810 29-09-2010 00:00:00 13.39417 C 8.9 g/m*3 13.39 C 0 km/h
1811 30-09-2010 00:00:00 11.89667 C 8.83 g/m*3 11.9 C 0 km/h
1812 01-10-2010 00:00:00 12.33667 C 9.1 g/m*3 12.34 C 0 km/h
1813 02-10-2010 00:00:00 13.4525 C 10.36 g/m*3 13.45 C 0 km/h
1814 03-10-2010 00:00:00 17.83583 C 10.56 g/m*3 17.84 C 0 km/h
1815 04-10-2010 00:00:00 16.905 C 9.67 g/m*3 16.91 C 0 km/h
1816 05-10-2010 00:00:00 15.64833 C 10.9 g/m*3 15.65 C 0 km/h
1817 06-10-2010 00:00:00 17.22333 C 9.99 g/m*3 17.22 C 0 km/h
1818 07-10-2010 00:00:00 16.31167 C 10.3 g/m*3 16.31 C 0 km/h
1819 08-10-2010 00:00:00 16.02917 C 9.37 g/m*3 16.03 C 0 km/h
1820 09-10-2010 00:00:00 13.1475 C 8.13 g/m*3 13.15 C 0 km/h
1821 10-10-2010 00:00:00 11.6125 C 6.4 g/m*3 11.61 C 0 km/h
1822 11-10-2010 00:00:00 10.90084 C 5.45 g/m*3 10.9 C 0 km/h
1823 12-10-2010 00:00:00 8.71917 C 5.9 g/m*3 8.72 C 0 km/h
1824 13-10-2010 00:00:00 7.475 C 5.54 g/m*3 7.48 C 0 km/h
1825 14-10-2010 00:00:00 7.55583 C 5.99 g/m*3 7.56 C 0 km/h
Sensor: Nr:Datum:Temp:Abs-Feuchte:Windchill:Wind:
Aussen-T/F 1826 15-10-2010 00:00:00 10.475 C 7.36 g/m*3 10.48 C 0 km/h
1827 16-10-2010 00:00:00 8.375 C 7.62 g/m*3 8.38 C 0 km/h
1828 17-10-2010 00:00:00 7.22667 C 6.33 g/m*3 7.23 C 0 km/h
1829 18-10-2010 00:00:00 6.71833 C 5.58 g/m*3 6.72 C 0 km/h
1830 19-10-2010 00:00:00 7.28167 C 6.47 g/m*3 7.28 C 0 km/h
1831 20-10-2010 00:00:00 6.14167 C 5.97 g/m*3 6.14 C 0 km/h
1832 21-10-2010 00:00:00 5.27 C 4.63 g/m*3 5.27 C 0 km/h
1833 22-10-2010 00:00:00 4.20167 C 4.11 g/m*3 4.2 C 0 km/h
1834 23-10-2010 00:00:00 4.37899 C 4.82 g/m*3 4.38 C 0 km/h
1835 24-10-2010 00:00:00 8.55667 C 5.66 g/m*3 8.56 C 0 km/h
1836 25-10-2010 00:00:00 6.1525 C 5.22 g/m*3 6.15 C 0 km/h
1837 26-10-2010 00:00:00 3.62417 C 5.12 g/m*3 3.62 C 0 km/h
1838 27-10-2010 00:00:00 8.14917 C 4.91 g/m*3 8.15 C 0 km/h
1839 28-10-2010 00:00:00 9.1725 C 5.55 g/m*3 9.17 C 0 km/h
1840 29-10-2010 00:00:00 6.48333 C 6.48 g/m*3 6.48 C 0 km/h
1841 02-11-2010 00:00:00 11.31548 C 6.81 g/m*3 11.32 C 0 km/h
1842 03-11-2010 00:00:00 13.10333 C 7.84 g/m*3 13.1 C 0 km/h
1843 04-11-2010 00:00:00 16.41167 C 8.7 g/m*3 16.41 C 0 km/h
1844 05-11-2010 00:00:00 14.51917 C 7.32 g/m*3 14.52 C 0 km/h
1845 06-11-2010 00:00:00 10.40917 C 7.73 g/m*3 10.41 C 0 km/h
1846 07-11-2010 00:00:00 6.86917 C 7.11 g/m*3 6.87 C 0 km/h
1847 08-11-2010 00:00:00 4.65583 C 5.68 g/m*3 4.66 C 0 km/h
1848 09-11-2010 00:00:00 6.65667 C 6.48 g/m*3 6.66 C 0 km/h
1849 10-11-2010 00:00:00 7.08319 C 6.48 g/m*3 7.08 C 0 km/h
1850 11-11-2010 00:00:00 5.84167 C 5.32 g/m*3 5.84 C 0 km/h
Sensor: Nr:Datum:Temp:Abs-Feuchte:Windchill:Wind:
Aussen-T/F 1851 12-11-2010 00:00:00 11.04083 C 6.73 g/m*3 11.04 C 0 km/h
1852 13-11-2010 00:00:00 14.51917 C 8.83 g/m*3 14.52 C 0 km/h
1853 14-11-2010 00:00:00 14.60833 C 7.79 g/m*3 14.61 C 0 km/h
1854 15-11-2010 00:00:00 9.47833 C 6.15 g/m*3 9.48 C 0 km/h
1855 16-11-2010 00:00:00 6.0125 C 5.77 g/m*3 6.01 C 0 km/h
1856 17-11-2010 00:00:00 5.3125 C 5.17 g/m*3 5.31 C 0 km/h
1857 18-11-2010 00:00:00 5.61917 C 5.95 g/m*3 5.62 C 0 km/h
1858 19-11-2010 00:00:00 6.4275 C 6.1 g/m*3 6.43 C 0 km/h
1859 20-11-2010 00:00:00 4.8325 C 5.94 g/m*3 4.83 C 0 km/h
1860 21-11-2010 00:00:00 4.48333 C 4.84 g/m*3 4.48 C 0 km/h
1861 22-11-2010 00:00:00 4.47417 C 4.96 g/m*3 4.47 C 0 km/h
1862 23-11-2010 00:00:00 4.54118 C 4.59 g/m*3 4.54 C 0 km/h
1863 24-11-2010 00:00:00 3.415 C 4.9 g/m*3 3.42 C 0 km/h
1864 25-11-2010 00:00:00 1.74083 C 4.39 g/m*3 1.74 C 0 km/h
1865 26-11-2010 00:00:00 -0.29083 C 4.18 g/m*3 -0.29 C 0 km/h
1866 27-11-2010 00:00:00 -1.99167 C 3.56 g/m*3 -1.99 C 0 km/h
1867 28-11-2010 00:00:00 -1.325 C 3.55 g/m*3 -1.33 C 0 km/h
1868 29-11-2010 00:00:00 -1.55833 C 3.51 g/m*3 -1.56 C 0 km/h
1869 30-11-2010 00:00:00 -1.9425 C 3.4 g/m*3 -1.94 C 0 km/h
1870 01-12-2010 00:00:00 -5.7325 C 1.99 g/m*3 -5.73 C 0 km/h
1871 02-12-2010 00:00:00 -7.03167 C 2.03 g/m*3 -7.03 C 0 km/h
1872 03-12-2010 00:00:00 -7.38583 C 2.19 g/m*3 -7.39 C 0 km/h
1873 04-12-2010 00:00:00 -3.48167 C 2.61 g/m*3 -3.48 C 0 km/h
1874 05-12-2010 00:00:00 0.91667 C 3.38 g/m*3 0.92 C 0 km/h
1875 06-12-2010 00:00:00 0.24538 C 4.01 g/m*3 0.25 C 0 km/h
Sensor: Nr:Datum:Temp:Abs-Feuchte:Windchill:Wind:
Aussen-T/F 1876 07-12-2010 00:00:00 -0.20833 C 3.88 g/m*3 -0.21 C 0 km/h
1877 08-12-2010 00:00:00 -0.25917 C 4.32 g/m*3 -0.26 C 0 km/h
1878 09-12-2010 00:00:00 0.61333 C 3.92 g/m*3 0.61 C 0 km/h
1879 10-12-2010 00:00:00 1.73333 C 4.69 g/m*3 1.73 C 0 km/h
1880 11-12-2010 00:00:00 4.07583 C 5.18 g/m*3 4.08 C 0 km/h
1881 12-12-2010 00:00:00 3.085 C 4.57 g/m*3 3.09 C 0 km/h
1882 13-12-2010 00:00:00 -4.44833 C 2.51 g/m*3 -4.45 C 0 km/h
1883 14-12-2010 00:00:00 -3.65833 C 2.82 g/m*3 -3.66 C 0 km/h
1884 15-12-2010 00:00:00 -3.1275 C 2.86 g/m*3 -3.13 C 0 km/h
1885 16-12-2010 00:00:00 -3.4675 C 2.96 g/m*3 -3.47 C 0 km/h
1886 17-12-2010 00:00:00 -2.77417 C 2.92 g/m*3 -2.77 C 0 km/h
1887 18-12-2010 00:00:00 -4.65833 C 2.74 g/m*3 -4.66 C 0 km/h
1888 19-12-2010 00:00:00 -0.7125 C 3.86 g/m*3 -0.71 C 0 km/h
1889 20-12-2010 00:00:00 -1.53667 C 3.48 g/m*3 -1.54 C 0 km/h
1890 21-12-2010 00:00:00 -0.65546 C 4 g/m*3 -0.66 C 0 km/h
1891 22-12-2010 00:00:00 0.9225 C 4.66 g/m*3 0.92 C 0 km/h
1892 23-12-2010 00:00:00 -0.36833 C 4.23 g/m*3 -0.37 C 0 km/h
1893 24-12-2010 00:00:00 -1.77438 C 3.53 g/m*3 -1.77 C 0 km/h
1894 25-12-2010 00:00:00 -5.4775 C 2.37 g/m*3 -5.48 C 0 km/h
1895 26-12-2010 00:00:00 -4.87833 C 2.59 g/m*3 -4.88 C 0 km/h
1896 27-12-2010 00:00:00 -2.21833 C 3.28 g/m*3 -2.22 C 0 km/h
1897 28-12-2010 00:00:00 -2.07899 C 3.35 g/m*3 -2.08 C 0 km/h
1898 29-12-2010 00:00:00 -0.255 C 3.76 g/m*3 -0.26 C 0 km/h
1899 30-12-2010 00:00:00 -0.55333 C 3.62 g/m*3 -0.55 C 0 km/h
1900 31-12-2010 00:00:00 -1.09187 C 3.57 g/m*3 -1.09 C 0 km/h
Sensor: Nr:Datum:Temp:Abs-Feuchte:Windchill:Wind:
Aussen-T/F 1901 01-01-2011 00:00:00 1.07311 C 4.52 g/m*3 1.07 C 0 km/h
1902 02-01-2011 00:00:00 0.8025 C 4.39 g/m*3 0.8 C 0 km/h
1903 03-01-2011 00:00:00 -0.9125 C 3.88 g/m*3 -0.91 C 0 km/h
1904 04-01-2011 00:00:00 -2.36667 C 3.35 g/m*3 -2.37 C 0 km/h
1905 05-01-2011 00:00:00 -3.83583 C 2.66 g/m*3 -3.84 C 0 km/h
1906 06-01-2011 00:00:00 3.72667 C 5.49 g/m*3 3.73 C 0 km/h
1907 07-01-2011 00:00:00 6.91833 C 6.93 g/m*3 6.92 C 0 km/h
1908 08-01-2011 00:00:00 10.5675 C 7.09 g/m*3 10.57 C 0 km/h
1909 09-01-2011 00:00:00 5.08655 C 5.84 g/m*3 5.09 C 0 km/h
1910 10-01-2011 00:00:00 0.7175 C 4.39 g/m*3 0.72 C 0 km/h
1911 11-01-2011 00:00:00 3.43667 C 4.81 g/m*3 3.44 C 0 km/h
1912 12-01-2011 00:00:00 5.44 C 5.5 g/m*3 5.44 C 0 km/h
1913 13-01-2011 00:00:00 11.80333 C 8.2 g/m*3 11.8 C 0 km/h
1914 14-01-2011 00:00:00 11.77417 C 6.94 g/m*3 11.77 C 0 km/h
1915 15-01-2011 00:00:00 8.68167 C 5.98 g/m*3 8.68 C 0 km/h
1916 16-01-2011 00:00:00 6.84167 C 5.88 g/m*3 6.84 C 0 km/h
1917 17-01-2011 00:00:00 3.62917 C 5.41 g/m*3 3.63 C 0 km/h
1918 18-01-2011 00:00:00 7.28833 C 6.01 g/m*3 7.29 C 0 km/h
1919 19-01-2011 00:00:00 3.30833 C 4.71 g/m*3 3.31 C 0 km/h
1920 20-01-2011 00:00:00 1.7 C 4.36 g/m*3 1.7 C 0 km/h
1921 21-01-2011 00:00:00 -0.0675 C 3.06 g/m*3 -0.07 C 0 km/h
1922 22-01-2011 00:00:00 0.39664 C 3.9 g/m*3 0.4 C 0 km/h
1923 23-01-2011 00:00:00 1.50167 C 4.65 g/m*3 1.5 C 0 km/h
1924 24-01-2011 00:00:00 3.10167 C 5.07 g/m*3 3.1 C 0 km/h
1925 25-01-2011 00:00:00 2.49833 C 4.56 g/m*3 2.5 C 0 km/h
Sensor: Nr:Datum:Temp:Abs-Feuchte:Windchill:Wind:
Aussen-T/F 1926 26-01-2011 00:00:00 0.84083 C 4.26 g/m*3 0.84 C 0 km/h
1927 27-01-2011 00:00:00 -0.28583 C 3.4 g/m*3 -0.29 C 0 km/h
1928 28-01-2011 00:00:00 -1.27083 C 2.87 g/m*3 -1.27 C 0 km/h
1929 29-01-2011 00:00:00 -4.9 C 2.7 g/m*3 -4.9 C 0 km/h
1930 30-01-2011 00:00:00 -6.20917 C 2.48 g/m*3 -6.21 C 0 km/h
1931 31-01-2011 00:00:00 -5.73833 C 2.59 g/m*3 -5.74 C 0 km/h
1932 01-02-2011 00:00:00 -4.03917 C 2.66 g/m*3 -4.04 C 0 km/h
1933 02-02-2011 00:00:00 -0.865 C 3.47 g/m*3 -0.87 C 0 km/h
1934 03-02-2011 00:00:00 1.94454 C 4.48 g/m*3 1.94 C 0 km/h
1935 04-02-2011 00:00:00 6.18583 C 5.15 g/m*3 6.19 C 0 km/h
1936 05-02-2011 00:00:00 9.25833 C 5.56 g/m*3 9.26 C 0 km/h
1937 06-02-2011 00:00:00 8.62 C 5.16 g/m*3 8.62 C 0 km/h
1938 07-02-2011 00:00:00 6.48083 C 4.13 g/m*3 6.48 C 0 km/h
1939 08-02-2011 00:00:00 5.48833 C 4.56 g/m*3 5.49 C 0 km/h
1940 09-02-2011 00:00:00 -0.23333 C 3.95 g/m*3 -0.23 C 0 km/h
1941 10-02-2011 00:00:00 3.9425 C 4.99 g/m*3 3.94 C 0 km/h
1942 11-02-2011 00:00:00 10.23917 C 7.08 g/m*3 10.24 C 0 km/h
1943 12-02-2011 00:00:00 6.88 C 6.26 g/m*3 6.88 C 0 km/h
1944 13-02-2011 00:00:00 5.13417 C 5.66 g/m*3 5.13 C 0 km/h
1945 14-02-2011 00:00:00 5.215 C 5.63 g/m*3 5.22 C 0 km/h
1946 15-02-2011 00:00:00 5.14958 C 5.71 g/m*3 5.15 C 0 km/h
1947 16-02-2011 00:00:00 4.90417 C 5.38 g/m*3 4.9 C 0 km/h
1948 17-02-2011 00:00:00 1.96333 C 4.29 g/m*3 1.96 C 0 km/h
1949 18-02-2011 00:00:00 2.23667 C 4.1 g/m*3 2.24 C 0 km/h
1950 19-02-2011 00:00:00 2.82833 C 4.31 g/m*3 2.83 C 0 km/h
Sensor: Nr:Datum:Temp:Abs-Feuchte:Windchill:Wind:
Aussen-T/F 1951 20-02-2011 00:00:00 0.7 C 3.16 g/m*3 0.7 C 0 km/h
1952 21-02-2011 00:00:00 -1.8125 C 2.2 g/m*3 -1.81 C 0 km/h
1953 22-02-2011 00:00:00 -3.39167 C 1.99 g/m*3 -3.39 C 0 km/h
1954 23-02-2011 00:00:00 -2.66583 C 2.02 g/m*3 -2.67 C 0 km/h
1955 24-02-2011 00:00:00 0.91083 C 3.9 g/m*3 0.91 C 0 km/h
1956 25-02-2011 00:00:00 3.445 C 5.16 g/m*3 3.45 C 0 km/h
1957 26-02-2011 00:00:00 5.07167 C 5.18 g/m*3 5.07 C 0 km/h
1958 27-02-2011 00:00:00 5.47731 C 5.17 g/m*3 5.48 C 0 km/h
1959 28-02-2011 00:00:00 4.52333 C 4.47 g/m*3 4.52 C 0 km/h
1960 01-03-2011 00:00:00 4.31167 C 4.54 g/m*3 4.31 C 0 km/h
1961 02-03-2011 00:00:00 3.41 C 3.07 g/m*3 3.41 C 0 km/h
1962 03-03-2011 00:00:00 1.585 C 2.66 g/m*3 1.59 C 0 km/h
1963 04-03-2011 00:00:00 2.1825 C 3.4 g/m*3 2.18 C 0 km/h
1964 05-03-2011 00:00:00 0.19833 C 3.69 g/m*3 0.2 C 0 km/h
1965 06-03-2011 00:00:00 1.7325 C 3.29 g/m*3 1.73 C 0 km/h
1966 07-03-2011 00:00:00 1.05667 C 2.45 g/m*3 1.06 C 0 km/h
1967 08-03-2011 00:00:00 1.92583 C 2.89 g/m*3 1.93 C 0 km/h
1968 09-03-2011 00:00:00 6.48333 C 4.63 g/m*3 6.48 C 0 km/h
1969 10-03-2011 00:00:00 7.3 C 4.55 g/m*3 7.3 C 0 km/h
1970 11-03-2011 00:00:00 8.78571 C 4.65 g/m*3 8.79 C 0 km/h
1971 12-03-2011 00:00:00 7.3525 C 4.83 g/m*3 7.35 C 0 km/h
1972 13-03-2011 00:00:00 11.07917 C 6.51 g/m*3 11.08 C 0 km/h
1973 14-03-2011 00:00:00 10.09917 C 7.33 g/m*3 10.1 C 0 km/h
1974 15-03-2011 00:00:00 10.73917 C 6.79 g/m*3 10.74 C 0 km/h
1975 16-03-2011 00:00:00 8.73583 C 5.74 g/m*3 8.74 C 0 km/h
Sensor: Nr:Datum:Temp:Abs-Feuchte:Windchill:Wind:
Aussen-T/F 1976 17-03-2011 00:00:00 6.295 C 5.87 g/m*3 6.3 C 0 km/h
1977 18-03-2011 00:00:00 6.41833 C 5.24 g/m*3 6.42 C 0 km/h
1978 19-03-2011 00:00:00 6.63 C 4.93 g/m*3 6.63 C 0 km/h
1979 20-03-2011 00:00:00 3.39167 C 3.78 g/m*3 3.39 C 0 km/h
1980 21-03-2011 00:00:00 4.66333 C 3.99 g/m*3 4.66 C 0 km/h
1981 22-03-2011 00:00:00 6.83333 C 4.54 g/m*3 6.83 C 0 km/h
1982 23-03-2011 00:00:00 8.59333 C 5.59 g/m*3 8.59 C 0 km/h
1983 24-03-2011 00:00:00 9.14417 C 5.42 g/m*3 9.14 C 0 km/h
1984 25-03-2011 00:00:00 9.65798 C 5.14 g/m*3 9.66 C 0 km/h
1985 26-03-2011 00:00:00 8.11917 C 4.97 g/m*3 8.12 C 0 km/h
1986 27-03-2011 00:00:00 9.62174 C 4.9 g/m*3 9.62 C 0 km/h
1987 28-03-2011 00:00:00 7.7225 C 4.66 g/m*3 7.72 C 0 km/h
1988 29-03-2011 00:00:00 7.42083 C 4.65 g/m*3 7.42 C 0 km/h
1989 30-03-2011 00:00:00 8.36333 C 5.61 g/m*3 8.36 C 0 km/h
1990 31-03-2011 00:00:00 12.03833 C 7.81 g/m*3 12.04 C 0 km/h
1991 01-04-2011 00:00:00 13.985 C 8.25 g/m*3 13.99 C 0 km/h
1992 02-04-2011 00:00:00 14.21833 C 8.12 g/m*3 14.22 C 0 km/h
1993 03-04-2011 00:00:00 11.81167 C 8.04 g/m*3 11.81 C 0 km/h
1994 04-04-2011 00:00:00 10.68333 C 6.57 g/m*3 10.68 C 0 km/h
1995 05-04-2011 00:00:00 9.30833 C 6.12 g/m*3 9.31 C 0 km/h
1996 06-04-2011 00:00:00 15.69167 C 8.48 g/m*3 15.69 C 0 km/h
1997 07-04-2011 00:00:00 16.35294 C 8.33 g/m*3 16.35 C 0 km/h
1998 08-04-2011 00:00:00 13.4925 C 6.55 g/m*3 13.49 C 0 km/h
1999 09-04-2011 00:00:00 12.96917 C 5.63 g/m*3 12.97 C 0 km/h
2000 10-04-2011 00:00:00 12.2825 C 6.01 g/m*3 12.28 C 0 km/h
Sensor: Nr:Datum:Temp:Abs-Feuchte:Windchill:Wind:
Aussen-T/F 2001 11-04-2011 00:00:00 14.76333 C 6.76 g/m*3 14.76 C 0 km/h
2002 12-04-2011 00:00:00 10.27917 C 5.45 g/m*3 10.28 C 0 km/h
2003 13-04-2011 00:00:00 7.60083 C 4.45 g/m*3 7.6 C 0 km/h
2004 14-04-2011 00:00:00 8.3025 C 4.49 g/m*3 8.3 C 0 km/h
2005 15-04-2011 00:00:00 7.43583 C 4.66 g/m*3 7.44 C 0 km/h
2006 16-04-2011 00:00:00 8.14667 C 4.58 g/m*3 8.15 C 0 km/h
2007 17-04-2011 00:00:00 11.61917 C 4.82 g/m*3 11.62 C 0 km/h
2008 18-04-2011 00:00:00 10.9521 C 5.51 g/m*3 10.95 C 0 km/h
2009 19-04-2011 00:00:00 12.87583 C 6.2 g/m*3 12.88 C 0 km/h
2010 20-04-2011 00:00:00 13.54917 C 6.5 g/m*3 13.55 C 0 km/h
2011 21-04-2011 00:00:00 14.49333 C 6.84 g/m*3 14.49 C 0 km/h
2012 22-04-2011 00:00:00 16.35083 C 7.67 g/m*3 16.35 C 0 km/h
2013 23-04-2011 00:00:00 18.26083 C 9.25 g/m*3 18.26 C 0 km/h
2014 24-04-2011 00:00:00 16.74333 C 7.71 g/m*3 16.74 C 0 km/h
2015 25-04-2011 00:00:00 15.975 C 6.16 g/m*3 15.98 C 0 km/h
2016 26-04-2011 00:00:00 12.8275 C 6.81 g/m*3 12.83 C 0 km/h
2017 27-04-2011 00:00:00 11.27167 C 7.84 g/m*3 11.27 C 0 km/h
2018 28-04-2011 00:00:00 13.99 C 8.66 g/m*3 13.99 C 0 km/h
2019 29-04-2011 00:00:00 15.08333 C 8.49 g/m*3 15.08 C 0 km/h
2020 30-04-2011 00:00:00 15.42 C 7.44 g/m*3 15.42 C 0 km/h
2021 01-05-2011 00:00:00 15.09328 C 4.89 g/m*3 15.09 C 0 km/h
2022 02-05-2011 00:00:00 11.83333 C 4.67 g/m*3 11.83 C 0 km/h
2023 03-05-2011 00:00:00 10.93167 C 4.17 g/m*3 10.93 C 0 km/h
2024 04-05-2011 00:00:00 8.28 C 4.54 g/m*3 8.28 C 0 km/h
2025 05-05-2011 00:00:00 10.32333 C 5.35 g/m*3 10.32 C 0 km/h
Sensor: Nr:Datum:Temp:Abs-Feuchte:Windchill:Wind:
Aussen-T/F 2026 06-05-2011 00:00:00 13.52917 C 6.22 g/m*3 13.53 C 0 km/h
2027 07-05-2011 00:00:00 17.6125 C 7.44 g/m*3 17.61 C 0 km/h
2028 08-05-2011 00:00:00 19.07167 C 6.15 g/m*3 19.07 C 0 km/h
2029 09-05-2011 00:00:00 18.40083 C 6.19 g/m*3 18.4 C 0 km/h
2030 10-05-2011 00:00:00 17.95833 C 7.69 g/m*3 17.96 C 0 km/h
2031 11-05-2011 00:00:00 18.40667 C 9.52 g/m*3 18.41 C 0 km/h
2032 12-05-2011 00:00:00 15.77833 C 7.19 g/m*3 15.78 C 0 km/h
2033 13-05-2011 00:00:00 13.68403 C 6.25 g/m*3 13.68 C 0 km/h
2034 14-05-2011 00:00:00 12.59917 C 5.87 g/m*3 12.6 C 0 km/h
2035 15-05-2011 00:00:00 10.34333 C 6.13 g/m*3 10.34 C 0 km/h
2036 16-05-2011 00:00:00 12.58667 C 6.68 g/m*3 12.59 C 0 km/h
2037 17-05-2011 00:00:00 17.04083 C 7.51 g/m*3 17.04 C 0 km/h
2038 18-05-2011 00:00:00 16.60583 C 7.79 g/m*3 16.61 C 0 km/h
2039 19-05-2011 00:00:00 17.10833 C 9.04 g/m*3 17.11 C 0 km/h
2040 20-05-2011 00:00:00 16.53 C 10.17 g/m*3 16.53 C 0 km/h
2041 21-05-2011 00:00:00 19.16077 C 9.98 g/m*3 19.16 C 0 km/h
2042 22-05-2011 00:00:00 16.79593 C 8.96 g/m*3 16.8 C 0 km/h
2043 23-05-2011 00:00:00 16.00167 C 6.77 g/m*3 16 C 0 km/h
2044 24-05-2011 00:00:00 15.90583 C 6.52 g/m*3 15.91 C 0 km/h
2045 25-05-2011 00:00:00 15.29333 C 5.83 g/m*3 15.29 C 0 km/h
2046 26-05-2011 00:00:00 16.04833 C 5.88 g/m*3 16.05 C 0 km/h
2047 27-05-2011 00:00:00 14.61 C 5.61 g/m*3 14.61 C 0 km/h
2048 28-05-2011 00:00:00 15.2875 C 6.34 g/m*3 15.29 C 0 km/h
2049 29-05-2011 00:00:00 19.21849 C 6.84 g/m*3 19.22 C 0 km/h
2050 30-05-2011 00:00:00 20.91333 C 8.63 g/m*3 20.91 C 0 km/h
Sensor: Nr:Datum:Temp:Abs-Feuchte:Windchill:Wind:
Aussen-T/F 2051 31-05-2011 00:00:00 14.84583 C 9.06 g/m*3 14.85 C 0 km/h
2052 01-06-2011 00:00:00 14.86083 C 7 g/m*3 14.86 C 0 km/h
2053 02-06-2011 00:00:00 19.79167 C 7.15 g/m*3 19.79 C 0 km/h
2054 03-06-2011 00:00:00 20.65583 C 6.79 g/m*3 20.66 C 0 km/h
2055 04-06-2011 00:00:00 21.20417 C 10.39 g/m*3 21.2 C 0 km/h
2056 05-06-2011 00:00:00 18.63333 C 12.99 g/m*3 18.63 C 0 km/h
2057 06-06-2011 00:00:00 18.38667 C 11.93 g/m*3 18.39 C 0 km/h
2058 07-06-2011 00:00:00 20.62417 C 10.99 g/m*3 20.62 C 0 km/h
2059 08-06-2011 00:00:00 15.695 C 8.9 g/m*3 15.7 C 0 km/h
2060 09-06-2011 00:00:00 14.09328 C 8.28 g/m*3 14.09 C 0 km/h
2061 10-06-2011 00:00:00 14.6563 C 8.82 g/m*3 14.66 C 0 km/h
2062 11-06-2011 00:00:00 15.99417 C 8.05 g/m*3 15.99 C 0 km/h
2063 12-06-2011 00:00:00 15.21167 C 7.37 g/m*3 15.21 C 0 km/h
2064 13-06-2011 00:00:00 16.92167 C 8.46 g/m*3 16.92 C 0 km/h
2065 14-06-2011 00:00:00 20.63333 C 10.65 g/m*3 20.63 C 0 km/h
2066 15-06-2011 00:00:00 19.88909 C 10.18 g/m*3 19.89 C 0 km/h
2067 16-06-2011 00:00:00 15.99375 C 8.34 g/m*3 15.99 C 0 km/h
2068 17-06-2011 00:00:00 15.96417 C 8.11 g/m*3 15.96 C 0 km/h
2069 18-06-2011 00:00:00 15.91083 C 7.98 g/m*3 15.91 C 0 km/h
2070 19-06-2011 00:00:00 14.57917 C 7.13 g/m*3 14.58 C 0 km/h
2071 20-06-2011 00:00:00 13.67417 C 9.25 g/m*3 13.67 C 0 km/h
2072 21-06-2011 00:00:00 19.2575 C 11.21 g/m*3 19.26 C 0 km/h
2073 22-06-2011 00:00:00 18.02773 C 11.1 g/m*3 18.03 C 0 km/h
2074 23-06-2011 00:00:00 16.265 C 8.2 g/m*3 16.27 C 0 km/h
2075 24-06-2011 00:00:00 14.2775 C 7.18 g/m*3 14.28 C 0 km/h
Sensor: Nr:Datum:Temp:Abs-Feuchte:Windchill:Wind:
Aussen-T/F 2076 25-06-2011 00:00:00 13.42417 C 9.02 g/m*3 13.42 C 0 km/h
2077 26-06-2011 00:00:00 15 C 10.26 g/m*3 15 C 0 km/h
2078 27-06-2011 00:00:00 17.65667 C 10.91 g/m*3 17.66 C 0 km/h
2079 28-06-2011 00:00:00 25.33167 C 11.62 g/m*3 25.33 C 0 km/h
2080 29-06-2011 00:00:00 20.62 C 11.48 g/m*3 20.62 C 0 km/h
2081 30-06-2011 00:00:00 17.92833 C 7.15 g/m*3 17.93 C 0 km/h
2082 01-07-2011 00:00:00 15.115 C 8.01 g/m*3 15.12 C 0 km/h
2083 02-07-2011 00:00:00 14.5975 C 7.11 g/m*3 14.6 C 0 km/h
2084 03-07-2011 00:00:00 16.875 C 7.12 g/m*3 16.88 C 0 km/h
2085 04-07-2011 00:00:00 16.2 C 7.58 g/m*3 16.2 C 0 km/h
2086 05-07-2011 00:00:00 24.435 C 9.98 g/m*3 24.44 C 0 km/h
2087 06-07-2011 00:00:00 20.39333 C 9.1 g/m*3 20.39 C 0 km/h
2088 07-07-2011 00:00:00 19.52083 C 8.94 g/m*3 19.52 C 0 km/h
2089 08-07-2011 00:00:00 19.92333 C 8.54 g/m*3 19.92 C 0 km/h
2090 09-07-2011 00:00:00 21.28083 C 8.6 g/m*3 21.28 C 0 km/h
2091 10-07-2011 00:00:00 18.22833 C 9.4 g/m*3 18.23 C 0 km/h
2092 11-07-2011 00:00:00 20.90417 C 10.03 g/m*3 20.9 C 0 km/h
2093 12-07-2011 00:00:00 19.89917 C 10.56 g/m*3 19.9 C 0 km/h
2094 13-07-2011 00:00:00 15.985 C 10.63 g/m*3 15.99 C 0 km/h
2095 14-07-2011 00:00:00 15.70417 C 6.99 g/m*3 15.7 C 0 km/h
2096 15-07-2011 00:00:00 18.7025 C 6.71 g/m*3 18.7 C 0 km/h
2097 16-07-2011 00:00:00 18.92269 C 7.49 g/m*3 18.92 C 0 km/h
2098 17-07-2011 00:00:00 17.68667 C 9.94 g/m*3 17.69 C 0 km/h
2099 18-07-2011 00:00:00 16.98583 C 8.21 g/m*3 16.99 C 0 km/h
2100 19-07-2011 00:00:00 16.52167 C 9.22 g/m*3 16.52 C 0 km/h
Sensor: Nr:Datum:Temp:Abs-Feuchte:Windchill:Wind:
Aussen-T/F 2101 20-07-2011 00:00:00 15.91917 C 10.35 g/m*3 15.92 C 0 km/h
2102 21-07-2011 00:00:00 16.59583 C 10.82 g/m*3 16.6 C 0 km/h
2103 22-07-2011 00:00:00 16.87083 C 8.36 g/m*3 16.87 C 0 km/h
2104 23-07-2011 00:00:00 13.94417 C 7.47 g/m*3 13.94 C 0 km/h
2105 24-07-2011 00:00:00 12.63083 C 8.38 g/m*3 12.63 C 0 km/h
2106 25-07-2011 00:00:00 16.39417 C 8.85 g/m*3 16.39 C 0 km/h
2107 26-07-2011 00:00:00 16.5375 C 10.33 g/m*3 16.54 C 0 km/h
2108 27-07-2011 00:00:00 17.045 C 11.16 g/m*3 17.05 C 0 km/h
2109 28-07-2011 00:00:00 18.71345 C 11.5 g/m*3 18.71 C 0 km/h
2110 29-07-2011 00:00:00 17.87583 C 9.99 g/m*3 17.88 C 0 km/h
2111 30-07-2011 00:00:00 15.04833 C 8.6 g/m*3 15.05 C 0 km/h
2112 31-07-2011 00:00:00 15.27667 C 7.67 g/m*3 15.28 C 0 km/h
2113 01-08-2011 00:00:00 16.885 C 8.98 g/m*3 16.89 C 0 km/h
2114 02-08-2011 00:00:00 20.45917 C 10.66 g/m*3 20.46 C 0 km/h
2115 03-08-2011 00:00:00 19.3425 C 12.45 g/m*3 19.34 C 0 km/h
2116 04-08-2011 00:00:00 21.59083 C 12.52 g/m*3 21.59 C 0 km/h
2117 05-08-2011 00:00:00 22.10417 C 12.9 g/m*3 22.1 C 0 km/h
2118 06-08-2011 00:00:00 19.43333 C 13.51 g/m*3 19.43 C 0 km/h
2119 07-08-2011 00:00:00 17.99583 C 9.29 g/m*3 18 C 0 km/h
2120 08-08-2011 00:00:00 15.61 C 8.66 g/m*3 15.61 C 0 km/h
2121 09-08-2011 00:00:00 15.21177 C 8.52 g/m*3 15.21 C 0 km/h
2122 10-08-2011 00:00:00 11.545 C 7.33 g/m*3 11.55 C 0 km/h
2123 11-08-2011 00:00:00 15.27417 C 7.81 g/m*3 15.27 C 0 km/h
2124 12-08-2011 00:00:00 17.7625 C 10.87 g/m*3 17.76 C 0 km/h
2125 13-08-2011 00:00:00 19.08833 C 11.8 g/m*3 19.09 C 0 km/h
Sensor: Nr:Datum:Temp:Abs-Feuchte:Windchill:Wind:
Aussen-T/F 2126 14-08-2011 00:00:00 18.79167 C 12.74 g/m*3 18.79 C 0 km/h
2127 15-08-2011 00:00:00 19.07917 C 10.51 g/m*3 19.08 C 0 km/h
2128 16-08-2011 00:00:00 18.73083 C 9.69 g/m*3 18.73 C 0 km/h
2129 17-08-2011 00:00:00 18.89 C 10.72 g/m*3 18.89 C 0 km/h
2130 18-08-2011 00:00:00 22.63167 C 12.33 g/m*3 22.63 C 0 km/h
2131 19-08-2011 00:00:00 19.24667 C 11.36 g/m*3 19.25 C 0 km/h
2132 20-08-2011 00:00:00 18.59833 C 10.46 g/m*3 18.6 C 0 km/h
2133 21-08-2011 00:00:00 20.63583 C 12.38 g/m*3 20.64 C 0 km/h
2134 22-08-2011 00:00:00 23.83613 C 13.38 g/m*3 23.84 C 0 km/h
2135 23-08-2011 00:00:00 23.46583 C 12.87 g/m*3 23.47 C 0 km/h
2136 24-08-2011 00:00:00 20.97833 C 12.32 g/m*3 20.98 C 0 km/h
2137 25-08-2011 00:00:00 20.68833 C 12.56 g/m*3 20.69 C 0 km/h
2138 26-08-2011 00:00:00 20.87 C 13.51 g/m*3 20.87 C 0 km/h
2139 27-08-2011 00:00:00 15.035 C 9.87 g/m*3 15.04 C 0 km/h
2140 28-08-2011 00:00:00 15.25583 C 8.29 g/m*3 15.26 C 0 km/h
2141 29-08-2011 00:00:00 14.68667 C 7.47 g/m*3 14.69 C 0 km/h
2142 30-08-2011 00:00:00 12.15833 C 7.48 g/m*3 12.16 C 0 km/h
2143 31-08-2011 00:00:00 13.1325 C 7.9 g/m*3 13.13 C 0 km/h
2144 01-09-2011 00:00:00 15.16083 C 8.72 g/m*3 15.16 C 0 km/h
2145 02-09-2011 00:00:00 17.55667 C 10.68 g/m*3 17.56 C 0 km/h
2146 03-09-2011 00:00:00 20.71597 C 12.56 g/m*3 20.72 C 0 km/h
2147 04-09-2011 00:00:00 21.65833 C 12.72 g/m*3 21.66 C 0 km/h
2148 05-09-2011 00:00:00 17.79667 C 7.96 g/m*3 17.8 C 0 km/h
2149 06-09-2011 00:00:00 15.93333 C 7.85 g/m*3 15.93 C 0 km/h
2150 07-09-2011 00:00:00 16.43 C 7.86 g/m*3 16.43 C 0 km/h
Sensor: Nr:Datum:Temp:Abs-Feuchte:Windchill:Wind:
Aussen-T/F 2151 08-09-2011 00:00:00 15.3775 C 7.81 g/m*3 15.38 C 0 km/h
2152 09-09-2011 00:00:00 18.46 C 11.77 g/m*3 18.46 C 0 km/h
2153 10-09-2011 00:00:00 21.15667 C 14.36 g/m*3 21.16 C 0 km/h
2154 11-09-2011 00:00:00 17.895 C 12.4 g/m*3 17.9 C 0 km/h
2155 12-09-2011 00:00:00 17.43583 C 10.22 g/m*3 17.44 C 0 km/h
2156 13-09-2011 00:00:00 18.005 C 10.27 g/m*3 18.01 C 0 km/h
2157 14-09-2011 00:00:00 14.43917 C 7.46 g/m*3 14.44 C 0 km/h
2158 15-09-2011 00:00:00 13.91583 C 7.97 g/m*3 13.92 C 0 km/h
2159 16-09-2011 00:00:00 12.79667 C 8.83 g/m*3 12.8 C 0 km/h
2160 17-09-2011 00:00:00 16.78824 C 9.66 g/m*3 16.79 C 0 km/h
2161 18-09-2011 00:00:00 12.7625 C 8.18 g/m*3 12.76 C 0 km/h
2162 19-09-2011 00:00:00 12.76833 C 7.68 g/m*3 12.77 C 0 km/h
2163 20-09-2011 00:00:00 12.41333 C 8.1 g/m*3 12.41 C 0 km/h
2164 21-09-2011 00:00:00 13.775 C 8.34 g/m*3 13.78 C 0 km/h
2165 22-09-2011 00:00:00 15.79167 C 7.98 g/m*3 15.79 C 0 km/h
2166 23-09-2011 00:00:00 14.20917 C 7.92 g/m*3 14.21 C 0 km/h
2167 24-09-2011 00:00:00 12.8025 C 8.32 g/m*3 12.8 C 0 km/h
2168 25-09-2011 00:00:00 14.1125 C 9.33 g/m*3 14.11 C 0 km/h
2169 26-09-2011 00:00:00 15.74917 C 10.22 g/m*3 15.75 C 0 km/h
2170 27-09-2011 00:00:00 17.1525 C 10.93 g/m*3 17.15 C 0 km/h
2171 28-09-2011 00:00:00 16.71 C 11.03 g/m*3 16.71 C 0 km/h
2172 29-09-2011 00:00:00 16.13167 C 10.33 g/m*3 16.13 C 0 km/h
2173 30-09-2011 00:00:00 14.48824 C 9.37 g/m*3 14.49 C 0 km/h
2174 01-10-2011 00:00:00 14.3525 C 9.54 g/m*3 14.35 C 0 km/h
2175 02-10-2011 00:00:00 14.74 C 9.74 g/m*3 14.74 C 0 km/h
Sensor: Nr:Datum:Temp:Abs-Feuchte:Windchill:Wind:
Aussen-T/F 2176 03-10-2011 00:00:00 15.125 C 9.75 g/m*3 15.13 C 0 km/h
2177 04-10-2011 00:00:00 16.96167 C 9.11 g/m*3 16.96 C 0 km/h
2178 05-10-2011 00:00:00 17.94667 C 9.13 g/m*3 17.95 C 0 km/h
2179 06-10-2011 00:00:00 14.175 C 8.46 g/m*3 14.18 C 0 km/h
2180 07-10-2011 00:00:00 9.92583 C 6.22 g/m*3 9.93 C 0 km/h
2181 08-10-2011 00:00:00 9.01167 C 6.47 g/m*3 9.01 C 0 km/h
2182 09-10-2011 00:00:00 9.11667 C 7.02 g/m*3 9.12 C 0 km/h
2183 10-10-2011 00:00:00 16.5475 C 9.61 g/m*3 16.55 C 0 km/h
2184 11-10-2011 00:00:00 16.37917 C 8.72 g/m*3 16.38 C 0 km/h
2185 12-10-2011 00:00:00 15.74333 C 8.96 g/m*3 15.74 C 0 km/h
2186 13-10-2011 00:00:00 10.145 C 6.96 g/m*3 10.15 C 0 km/h
2187 14-10-2011 00:00:00 6.14286 C 5.77 g/m*3 6.14 C 0 km/h
2188 15-10-2011 00:00:00 4.65417 C 5.23 g/m*3 4.65 C 0 km/h
2189 16-10-2011 00:00:00 4.29833 C 5.17 g/m*3 4.3 C 0 km/h
2190 17-10-2011 00:00:00 6.42917 C 6.14 g/m*3 6.43 C 0 km/h
2191 18-10-2011 00:00:00 8.99833 C 7.14 g/m*3 9 C 0 km/h
2192 19-10-2011 00:00:00 8.2025 C 5.92 g/m*3 8.2 C 0 km/h
2193 20-10-2011 00:00:00 5.4275 C 5.58 g/m*3 5.43 C 0 km/h
2194 21-10-2011 00:00:00 3.16333 C 5.27 g/m*3 3.16 C 0 km/h
2195 22-10-2011 00:00:00 3.45333 C 5.04 g/m*3 3.45 C 0 km/h
2196 23-10-2011 00:00:00 2.44833 C 4.92 g/m*3 2.45 C 0 km/h
2197 24-10-2011 00:00:00 5.85083 C 5.45 g/m*3 5.85 C 0 km/h
2198 25-10-2011 00:00:00 9.17417 C 6.55 g/m*3 9.17 C 0 km/h
2199 26-10-2011 00:00:00 9.305 C 6.4 g/m*3 9.31 C 0 km/h
2200 27-10-2011 00:00:00 5.69333 C 6.08 g/m*3 5.69 C 0 km/h
Sensor: Nr:Datum:Temp:Abs-Feuchte:Windchill:Wind:
Aussen-T/F 2201 28-10-2011 00:00:00 8.32857 C 7.33 g/m*3 8.33 C 0 km/h
2202 29-10-2011 00:00:00 10.61667 C 8.11 g/m*3 10.62 C 0 km/h
2203 30-10-2011 00:00:00 12.2192 C 9.31 g/m*3 12.22 C 0 km/h
2204 31-10-2011 00:00:00 11.39 C 8.86 g/m*3 11.39 C 0 km/h
2205 01-11-2011 00:00:00 9.17333 C 7.52 g/m*3 9.17 C 0 km/h
2206 02-11-2011 00:00:00 10.59667 C 7.89 g/m*3 10.6 C 0 km/h
2207 03-11-2011 00:00:00 11.35583 C 7.36 g/m*3 11.36 C 0 km/h
2208 04-11-2011 00:00:00 10.15333 C 7.6 g/m*3 10.15 C 0 km/h
2209 05-11-2011 00:00:00 10.31333 C 7.32 g/m*3 10.31 C 0 km/h
2210 06-11-2011 00:00:00 8.90583 C 7.36 g/m*3 8.91 C 0 km/h
2211 07-11-2011 00:00:00 8.85 C 7.07 g/m*3 8.85 C 0 km/h
2212 08-11-2011 00:00:00 5.84583 C 6.28 g/m*3 5.85 C 0 km/h
2213 09-11-2011 00:00:00 6.5025 C 6.49 g/m*3 6.5 C 0 km/h
2214 10-11-2011 00:00:00 6.29328 C 6.04 g/m*3 6.29 C 0 km/h
2215 11-11-2011 00:00:00 6.25417 C 5.61 g/m*3 6.25 C 0 km/h
2216 12-11-2011 00:00:00 4.20083 C 5.31 g/m*3 4.2 C 0 km/h
2217 13-11-2011 00:00:00 4.15833 C 5.51 g/m*3 4.16 C 0 km/h
2218 14-11-2011 00:00:00 0.35917 C 4.59 g/m*3 0.36 C 0 km/h
2219 15-11-2011 00:00:00 0.25583 C 4.55 g/m*3 0.26 C 0 km/h
2220 16-11-2011 00:00:00 -1.28871 C 4.06 g/m*3 -1.29 C 0 km/h
2221 17-11-2011 00:00:00 3.935 C 5.08 g/m*3 3.94 C 0 km/h
2222 18-11-2011 00:00:00 7.49833 C 6.7 g/m*3 7.5 C 0 km/h
2223 19-11-2011 00:00:00 5.435 C 6.26 g/m*3 5.44 C 0 km/h
2224 20-11-2011 00:00:00 6.58083 C 6.06 g/m*3 6.58 C 0 km/h
2225 21-11-2011 00:00:00 1.40917 C 4.92 g/m*3 1.41 C 0 km/h
Sensor: Nr:Datum:Temp:Abs-Feuchte:Windchill:Wind:
Aussen-T/F 2226 22-11-2011 00:00:00 1.14083 C 4.83 g/m*3 1.14 C 0 km/h
2227 23-11-2011 00:00:00 1.59583 C 5.02 g/m*3 1.6 C 0 km/h
2228 24-11-2011 00:00:00 2.37083 C 5.25 g/m*3 2.37 C 0 km/h
2229 25-11-2011 00:00:00 1.0775 C 4.47 g/m*3 1.08 C 0 km/h
2230 26-11-2011 00:00:00 6.25167 C 5.54 g/m*3 6.25 C 0 km/h
2231 27-11-2011 00:00:00 7.40833 C 5.63 g/m*3 7.41 C 0 km/h
2232 28-11-2011 00:00:00 0.83833 C 4.74 g/m*3 0.84 C 0 km/h
2233 29-11-2011 00:00:00 1.88167 C 4.94 g/m*3 1.88 C 0 km/h
2234 30-11-2011 00:00:00 4.85083 C 5.78 g/m*3 4.85 C 0 km/h
2235 01-12-2011 00:00:00 5.47459 C 6.17 g/m*3 5.47 C 0 km/h
2236 02-12-2011 00:00:00 7.12667 C 6.07 g/m*3 7.13 C 0 km/h
2237 03-12-2011 00:00:00 6.26583 C 5.67 g/m*3 6.27 C 0 km/h
2238 04-12-2011 00:00:00 8.2975 C 6.82 g/m*3 8.3 C 0 km/h
2239 05-12-2011 00:00:00 4.38417 C 4.68 g/m*3 4.38 C 0 km/h
2240 06-12-2011 00:00:00 4.445 C 4.4 g/m*3 4.45 C 0 km/h
2241 07-12-2011 00:00:00 5.57833 C 5 g/m*3 5.58 C 0 km/h
2242 08-12-2011 00:00:00 6.22333 C 4.58 g/m*3 6.22 C 0 km/h
2243 09-12-2011 00:00:00 5.94583 C 5.15 g/m*3 5.95 C 0 km/h
2244 10-12-2011 00:00:00 1.885 C 4.22 g/m*3 1.89 C 0 km/h
2245 11-12-2011 00:00:00 0.43667 C 4.15 g/m*3 0.44 C 0 km/h
2246 12-12-2011 00:00:00 5.94754 C 5.56 g/m*3 5.95 C 0 km/h
2247 13-12-2011 00:00:00 6.86417 C 5.29 g/m*3 6.86 C 0 km/h
2248 14-12-2011 00:00:00 6.68371 C 6.1 g/m*3 4.39 C 11.45758 km/h
2249 15-12-2011 00:00:00 6.13646 C 5.7 g/m*3 3.9 C 10.55208 km/h
2250 16-12-2011 00:00:00 6.07222 C 6.06 g/m*3 3.54 C 12.08819 km/h
Sensor: Nr:Datum:Temp:Abs-Feuchte:Windchill:Wind:
Aussen-T/F 2251 17-12-2011 00:00:00 3.63507 C 5.26 g/m*3 1.48 C 8.17431 km/h
2252 18-12-2011 00:00:00 2.25764 C 4.91 g/m*3 0.33 C 6.6875 km/h
2253 19-12-2011 00:00:00 1.70208 C 4.69 g/m*3 1.7 C 4.33715 km/h
2254 20-12-2011 00:00:00 2.28715 C 5.15 g/m*3 2.29 C 4.2434 km/h
2255 21-12-2011 00:00:00 4.19792 C 5.66 g/m*3 2.64 C 6.47639 km/h
2256 22-12-2011 00:00:00 6.57917 C 7.14 g/m*3 6.58 C 3.52847 km/h
2257 23-12-2011 00:00:00 8.41806 C 7.71 g/m*3 8.42 C 4.81424 km/h
2258 24-12-2011 00:00:00 5.63368 C 5.92 g/m*3 3.43 C 9.91007 km/h
2259 25-12-2011 00:00:00 5.68472 C 6.14 g/m*3 3.52 C 9.78507 km/h
2260 26-12-2011 00:00:00 8.12222 C 7.46 g/m*3 6.74 C 8.26389 km/h
2261 27-12-2011 00:00:00 8.25139 C 7.48 g/m*3 8.25 C 2.92604 km/h
2262 28-12-2011 00:00:00 5.71424 C 6.17 g/m*3 4.17 C 7.23854 km/h
2263 29-12-2011 00:00:00 5.51667 C 5.66 g/m*3 2.84 C 12.22257 km/h
2264 30-12-2011 00:00:00 4.24861 C 5.39 g/m*3 1.73 C 10.11736 km/h
2265 31-12-2011 00:00:00 5.15729 C 6.43 g/m*3 5.16 C 3.01632 km/h
2266 01-01-2012 00:00:00 12.02807 C 9.43 g/m*3 12.03 C 8.78386 km/h
2267 02-01-2012 00:00:00 8.87847 C 7.72 g/m*3 7.94 C 6.93264 km/h
2268 03-01-2012 00:00:00 7.43403 C 6.52 g/m*3 5.14 C 12.40729 km/h
2269 04-01-2012 00:00:00 6.56875 C 5.76 g/m*3 4.06 C 12.56285 km/h
2270 05-01-2012 00:00:00 6.88368 C 6.18 g/m*3 3.58 C 18.83542 km/h
2271 06-01-2012 00:00:00 5.40208 C 5.7 g/m*3 2.58 C 12.92361 km/h
2272 07-01-2012 00:00:00 5.54653 C 5.98 g/m*3 2.83 C 12.50278 km/h
2273 08-01-2012 00:00:00 5.96042 C 6.13 g/m*3 4.3 C 7.84514 km/h
2274 09-01-2012 00:00:00 6.11424 C 6.58 g/m*3 4.81 C 6.62743 km/h
2275 10-01-2012 00:00:00 6.93056 C 7.03 g/m*3 6.93 C 3.02882 km/h
Sensor: Nr:Datum:Temp:Abs-Feuchte:Windchill:Wind:
Aussen-T/F 2276 11-01-2012 00:00:00 8.11597 C 6.84 g/m*3 7.26 C 6.14826 km/h
2277 12-01-2012 00:00:00 8.18819 C 6.9 g/m*3 6.08 C 12.27049 km/h
2278 13-01-2012 00:00:00 5.12569 C 5.2 g/m*3 2.95 C 9.37569 km/h
2279 14-01-2012 00:00:00 3.95417 C 5 g/m*3 3.95 C 4.25694 km/h
2280 15-01-2012 00:00:00 -0.23715 C 4.52 g/m*3 -0.24 C 1.86111 km/h
2281 16-01-2012 00:00:00 -1.80312 C 4.02 g/m*3 -1.8 C 1.83333 km/h
2282 17-01-2012 00:00:00 -2.78368 C 3.69 g/m*3 -2.78 C 1.10556 km/h
2283 18-01-2012 00:00:00 -0.12708 C 4.32 g/m*3 -2.76 C 7.60694 km/h
2284 19-01-2012 00:00:00 6.67639 C 6.84 g/m*3 3.88 C 14.53819 km/h
2285 20-01-2012 00:00:00 4.025 C 5.54 g/m*3 1.91 C 8.28333 km/h
2286 21-01-2012 00:00:00 5.73681 C 6.39 g/m*3 3.58 C 9.81354 km/h
2287 22-01-2012 00:00:00 6.85764 C 5.84 g/m*3 4.26 C 13.54236 km/h
2288 23-01-2012 00:00:00 5.22708 C 5.7 g/m*3 3.41 C 7.97396 km/h
2289 24-01-2012 00:00:00 3.1191 C 5.44 g/m*3 3.12 C 3.95903 km/h
2290 25-01-2012 00:00:00 0.47708 C 4.75 g/m*3 0.48 C 1.85 km/h
2291 26-01-2012 00:00:00 1.84132 C 4.64 g/m*3 1.84 C 3.40451 km/h
2292 27-01-2012 00:00:00 2.58437 C 5.32 g/m*3 2.58 C 1.90104 km/h
2293 28-01-2012 00:00:00 2.69896 C 5.12 g/m*3 2.7 C 1.55729 km/h
2294 29-01-2012 00:00:00 0.84583 C 4.18 g/m*3 0.85 C 4.61007 km/h
2295 30-01-2012 00:00:00 -0.00208 C 3.89 g/m*3 0 C 2.62326 km/h
2296 31-01-2012 00:00:00 -1.90972 C 2.97 g/m*3 -4 C 5.50486 km/h
2297 01-02-2012 00:00:00 -5.28403 C 2.04 g/m*3 -8.99 C 8.11736 km/h
2298 02-02-2012 00:00:00 -7.12396 C 1.51 g/m*3 -10.34 C 6.25729 km/h
2299 03-02-2012 00:00:00 -8.52361 C 1.79 g/m*3 -8.52 C 2.86215 km/h
2300 04-02-2012 00:00:00 -8.31389 C 2.08 g/m*3 -8.31 C 2.1 km/h
Sensor: Nr:Datum:Temp:Abs-Feuchte:Windchill:Wind:
Aussen-T/F 2301 05-02-2012 00:00:00 -9.04861 C 1.83 g/m*3 -9.05 C 2.36215 km/h
2302 06-02-2012 00:00:00 -9.67674 C 1.68 g/m*3 -9.68 C 2.38958 km/h
2303 07-02-2012 00:00:00 -9.19832 C 1.73 g/m*3 -12.43 C 5.69706 km/h
2304 08-02-2012 00:00:00 -5.57083 C 2.37 g/m*3 -8.79 C 6.79792 km/h
2305 09-02-2012 00:00:00 -7.39479 C 2.48 g/m*3 -7.39 C 2.61215 km/h
2306 10-02-2012 00:00:00 -6.11875 C 2.37 g/m*3 -6.12 C 4.48194 km/h
2307 11-02-2012 00:00:00 -8.24931 C 1.89 g/m*3 -8.25 C 4.42743 km/h
2308 12-02-2012 00:00:00 -6.58063 C 2.2 g/m*3 -6.58 C 2.04269 km/h
2309 13-02-2012 00:00:00 -0.88993 C 3.76 g/m*3 -0.89 C 2.37813 km/h
2310 14-02-2012 00:00:00 1.59931 C 5.05 g/m*3 1.6 C 4.2559 km/h
2311 15-02-2012 00:00:00 3.97674 C 5.46 g/m*3 1 C 12.0816 km/h
2312 16-02-2012 00:00:00 3.54896 C 5.63 g/m*3 2.4 C 5.08507 km/h
2313 17-02-2012 00:00:00 5.57917 C 6.2 g/m*3 3.56 C 9.06771 km/h
2314 18-02-2012 00:00:00 6.37083 C 6.55 g/m*3 5.3 C 6.00278 km/h
2315 19-02-2012 00:00:00 2.99271 C 5.23 g/m*3 1.26 C 6.44375 km/h
2316 20-02-2012 00:00:00 1.18333 C 4.47 g/m*3 1.18 C 2.83542 km/h
2317 21-02-2012 00:00:00 1.84583 C 4.31 g/m*3 0.32 C 5.43472 km/h
2318 22-02-2012 00:00:00 3.17951 C 4.88 g/m*3 3.18 C 4.49236 km/h
2319 23-02-2012 00:00:00 6.17352 C 6 g/m*3 3.54 C 12.77909 km/h
2320 24-02-2012 00:00:00 9.38101 C 7.83 g/m*3 7.78 C 10.64767 km/h
2321 25-02-2012 00:00:00 8.6186 C 6.96 g/m*3 7.94 C 5.80281 km/h
2322 26-02-2012 00:00:00 5.29167 C 6.13 g/m*3 5.29 C 3.88611 km/h
2323 27-02-2012 00:00:00 5.83671 C 5.98 g/m*3 5.84 C 3.63392 km/h
2324 28-02-2012 00:00:00 8.57639 C 7.33 g/m*3 7.89 C 5.80451 km/h
2325 29-02-2012 00:00:00 9.50385 C 8.41 g/m*3 9.5 C 1.76783 km/h
Sensor: Nr:Datum:Temp:Abs-Feuchte:Windchill:Wind:
Aussen-T/F 2326 01-03-2012 00:00:00 9.01563 C 8.27 g/m*3 9.02 C 1.62292 km/h
2327 02-03-2012 00:00:00 8.57986 C 7.95 g/m*3 8.58 C 2.37986 km/h
2328 03-03-2012 00:00:00 7.91597 C 7.43 g/m*3 7.92 C 1.94653 km/h
2329 04-03-2012 00:00:00 8.65625 C 7.04 g/m*3 8.66 C 2.75069 km/h
2330 05-03-2012 00:00:00 5.81597 C 5.57 g/m*3 4.08 C 8.05174 km/h
2331 06-03-2012 00:00:00 5.43924 C 5.12 g/m*3 5.44 C 4.19063 km/h
2332 07-03-2012 00:00:00 2.93962 C 4.81 g/m*3 1.24 C 6.32906 km/h
2333 08-03-2012 00:00:00 5.35833 C 5.6 g/m*3 3.45 C 8.425 km/h
2334 09-03-2012 00:00:00 4.88437 C 5.29 g/m*3 4.88 C 3.76771 km/h
2335 10-03-2012 00:00:00 8.58541 C 6.77 g/m*3 8.59 C 4.07082 km/h
2336 11-03-2012 00:00:00 9.26775 C 7.44 g/m*3 9.27 C 4.08261 km/h
2337 12-03-2012 00:00:00 8.0632 C 7.18 g/m*3 8.06 C 4.78216 km/h
2338 13-03-2012 00:00:00 7.68299 C 6.78 g/m*3 7.68 C 2.73958 km/h
2339 14-03-2012 00:00:00 6.93542 C 6.09 g/m*3 6.94 C 2.55694 km/h
2340 15-03-2012 00:00:00 7.07812 C 6.17 g/m*3 7.08 C 2.43472 km/h
2341 16-03-2012 00:00:00 10.01696 C 6.56 g/m*3 10.02 C 2.57739 km/h
2342 17-03-2012 00:00:00 9.42917 C 6.8 g/m*3 8.99 C 5.38056 km/h
2343 18-03-2012 00:00:00 8.64931 C 7.23 g/m*3 8.65 C 4.38299 km/h
2344 19-03-2012 00:00:00 7.37083 C 5.72 g/m*3 7.37 C 4.39375 km/h
2345 20-03-2012 00:00:00 6.81088 C 5.19 g/m*3 6.81 C 2.84728 km/h
2346 21-03-2012 00:00:00 7.73902 C 5.64 g/m*3 7.74 C 2.80592 km/h
2347 22-03-2012 00:00:00 10.07666 C 6.73 g/m*3 10.08 C 3.77387 km/h
2348 23-03-2012 00:00:00 11.69132 C 7.52 g/m*3 11.69 C 2.95729 km/h
2349 24-03-2012 00:00:00 11.62674 C 7.38 g/m*3 11.63 C 2.56215 km/h
2350 25-03-2012 00:00:00 12.80873 C 7.04 g/m*3 12.81 C 3.29964 km/h
Sensor: Nr:Datum:Temp:Abs-Feuchte:Windchill:Wind:
Aussen-T/F 2351 26-03-2012 00:00:00 11.16806 C 5.93 g/m*3 11.17 C 3.51563 km/h
2352 27-03-2012 00:00:00 11.10694 C 6.65 g/m*3 11.11 C 4.18021 km/h
2353 28-03-2012 00:00:00 11.74201 C 7.1 g/m*3 11.74 C 3.72708 km/h
2354 29-03-2012 00:00:00 9.58194 C 6.51 g/m*3 8.4 C 8.56007 km/h
2355 30-03-2012 00:00:00 9.39062 C 7.16 g/m*3 8 C 9.48438 km/h
2356 31-03-2012 00:00:00 7.98706 C 6.3 g/m*3 6.73 C 7.63427 km/h
2357 01-04-2012 00:00:00 4.77396 C 4.26 g/m*3 4.77 C 4.45451 km/h
2358 02-04-2012 00:00:00 6.64685 C 5.4 g/m*3 6.65 C 3.51643 km/h
2359 03-04-2012 00:00:00 11.08125 C 6.34 g/m*3 11.08 C 3.84514 km/h
2360 04-04-2012 00:00:00 9.89722 C 7.68 g/m*3 9.9 C 4.97083 km/h
2361 05-04-2012 00:00:00 7.74514 C 6.58 g/m*3 7.75 C 4.3691 km/h
2362 06-04-2012 00:00:00 7.88679 C 5.55 g/m*3 7.89 C 3.89321 km/h
2363 07-04-2012 00:00:00 5.61389 C 5.15 g/m*3 4.49 C 5.80486 km/h
2364 08-04-2012 00:00:00 5.19194 C 3.73 g/m*3 5.19 C 4.34725 km/h
2365 09-04-2012 00:00:00 7.24583 C 6.56 g/m*3 7.25 C 4.80278 km/h
2366 10-04-2012 00:00:00 11.25451 C 7.92 g/m*3 11.25 C 5.78993 km/h
2367 11-04-2012 00:00:00 9.71215 C 6.72 g/m*3 9.19 C 5.81146 km/h
2368 12-04-2012 00:00:00 6.41736 C 6.3 g/m*3 6.42 C 3.28576 km/h
2369 13-04-2012 00:00:00 6.76632 C 6.2 g/m*3 6.77 C 3.36146 km/h
2370 14-04-2012 00:00:00 7.83021 C 5.85 g/m*3 7.83 C 3.32292 km/h
2371 15-04-2012 00:00:00 8.52361 C 6.33 g/m*3 7.06 C 9.00625 km/h
2372 16-04-2012 00:00:00 5.92438 C 4.62 g/m*3 3.99 C 8.9624 km/h
2373 17-04-2012 00:00:00 5.90382 C 4.31 g/m*3 5.03 C 5.20451 km/h
2374 18-04-2012 00:00:00 8.72674 C 6.28 g/m*3 7.96 C 6.1816 km/h
2375 19-04-2012 00:00:00 8.47422 C 6.89 g/m*3 8.47 C 4.56829 km/h
Sensor: Nr:Datum:Temp:Abs-Feuchte:Windchill:Wind:
Aussen-T/F 2376 20-04-2012 00:00:00 7.07115 C 6.66 g/m*3 7.07 C 3.15337 km/h
2377 21-04-2012 00:00:00 8.16701 C 6.8 g/m*3 7.41 C 5.84132 km/h
2378 22-04-2012 00:00:00 7.84306 C 6.56 g/m*3 6.44 C 8.12708 km/h
2379 23-04-2012 00:00:00 8.39097 C 6.75 g/m*3 7.92 C 5.03333 km/h
2380 24-04-2012 00:00:00 8.89757 C 7.41 g/m*3 8.28 C 5.73542 km/h
2381 25-04-2012 00:00:00 10.14167 C 7.42 g/m*3 9.44 C 6.77951 km/h
2382 26-04-2012 00:00:00 11.47083 C 8.24 g/m*3 11.47 C 6.83507 km/h
2383 27-04-2012 00:00:00 12.5625 C 9.11 g/m*3 12.56 C 2.90104 km/h
2384 28-04-2012 00:00:00 18.10903 C 11.21 g/m*3 18.11 C 3.17847 km/h
2385 29-04-2012 00:00:00 16.89826 C 10.53 g/m*3 16.9 C 4.97257 km/h
2386 30-04-2012 00:00:00 17.93194 C 9.73 g/m*3 17.93 C 5.83958 km/h
2387 01-05-2012 00:00:00 17.12465 C 10.46 g/m*3 17.12 C 5.35833 km/h
2388 02-05-2012 00:00:00 15.24479 C 11.32 g/m*3 15.24 C 4.1625 km/h
2389 03-05-2012 00:00:00 13.43472 C 9.03 g/m*3 13.43 C 4.52049 km/h
2390 04-05-2012 00:00:00 14.57083 C 9.2 g/m*3 14.57 C 4.31979 km/h
2391 05-05-2012 00:00:00 11.45069 C 9.57 g/m*3 11.45 C 2.0691 km/h
2392 06-05-2012 00:00:00 10.57674 C 9.04 g/m*3 10.58 C 2.72743 km/h
2393 07-05-2012 00:00:00 10.38681 C 8.05 g/m*3 10.39 C 2.83542 km/h
2394 08-05-2012 00:00:00 13.89063 C 8.76 g/m*3 13.89 C 4.06285 km/h
2395 09-05-2012 00:00:00 16.78229 C 11.72 g/m*3 16.78 C 4.3441 km/h
2396 10-05-2012 00:00:00 19.11111 C 12.91 g/m*3 19.11 C 3.2934 km/h
2397 11-05-2012 00:00:00 19.125 C 13.25 g/m*3 19.13 C 4.69688 km/h
2398 12-05-2012 00:00:00 11.31289 C 7.13 g/m*3 11.31 C 6.93972 km/h
2399 13-05-2012 00:00:00 9.38646 C 6.01 g/m*3 9.39 C 3.54444 km/h
2400 14-05-2012 00:00:00 11.40799 C 6.45 g/m*3 11.41 C 3.29792 km/h
Sensor: Nr:Datum:Temp:Abs-Feuchte:Windchill:Wind:
Aussen-T/F 2401 15-05-2012 00:00:00 9.5625 C 6.83 g/m*3 9.16 C 5.31528 km/h
2402 16-05-2012 00:00:00 8.66597 C 6.56 g/m*3 7.74 C 6.74236 km/h
2403 17-05-2012 00:00:00 9.38889 C 6.11 g/m*3 9.39 C 3.74201 km/h
2404 18-05-2012 00:00:00 12.68299 C 8.58 g/m*3 12.68 C 3.73611 km/h
2405 19-05-2012 00:00:00 15.71389 C 11.07 g/m*3 15.71 C 3.01667 km/h
2406 20-05-2012 00:00:00 17.6684 C 11.84 g/m*3 17.67 C 2.85521 km/h
2407 21-05-2012 00:00:00 18.51324 C 12.9 g/m*3 18.51 C 3.62056 km/h
2408 22-05-2012 00:00:00 21.31944 C 13.69 g/m*3 21.32 C 4.20417 km/h
2409 23-05-2012 00:00:00 18.79965 C 14.38 g/m*3 18.8 C 2.22951 km/h
2410 24-05-2012 00:00:00 20.67596 C 13.27 g/m*3 20.68 C 3.73554 km/h
2411 25-05-2012 00:00:00 19.43659 C 8.08 g/m*3 19.44 C 7.67038 km/h
2412 26-05-2012 00:00:00 18.11007 C 8.4 g/m*3 18.11 C 5.16944 km/h
2413 27-05-2012 00:00:00 18.05868 C 9.6 g/m*3 18.06 C 2.91215 km/h
2414 28-05-2012 00:00:00 18.89167 C 10.37 g/m*3 18.89 C 3.94348 km/h
2415 29-05-2012 00:00:00 18.3861 C 10.26 g/m*3 18.39 C 4.0695 km/h
2416 30-05-2012 00:00:00 17.68438 C 11.87 g/m*3 17.68 C 3.49167 km/h
2417 31-05-2012 00:00:00 16.03021 C 11.52 g/m*3 16.03 C 4.43785 km/h
2418 01-06-2012 00:00:00 15.75909 C 10.21 g/m*3 15.76 C 6.05315 km/h
2419 02-06-2012 00:00:00 15.19271 C 9.16 g/m*3 15.19 C 3.1559 km/h
2420 03-06-2012 00:00:00 12.59011 C 9.82 g/m*3 12.59 C 2.24762 km/h
2421 04-06-2012 00:00:00 13.31389 C 9.93 g/m*3 13.31 C 5.88403 km/h
2422 05-06-2012 00:00:00 12.15312 C 7.43 g/m*3 12.15 C 4.47674 km/h
2423 06-06-2012 00:00:00 13.09444 C 9.9 g/m*3 13.09 C 3.34722 km/h
2424 07-06-2012 00:00:00 16.45799 C 12.45 g/m*3 16.46 C 1.94236 km/h
2425 08-06-2012 00:00:00 17.34097 C 10.69 g/m*3 17.34 C 7.78056 km/h
Sensor: Nr:Datum:Temp:Abs-Feuchte:Windchill:Wind:
Aussen-T/F 2426 09-06-2012 00:00:00 14.79028 C 8.37 g/m*3 14.79 C 6.97674 km/h
2427 10-06-2012 00:00:00 15.29514 C 8.7 g/m*3 15.3 C 3.03576 km/h
2428 11-06-2012 00:00:00 14.57014 C 10.58 g/m*3 14.57 C 2.15208 km/h
2429 12-06-2012 00:00:00 14.40729 C 10.65 g/m*3 14.41 C 3.45451 km/h
2430 13-06-2012 00:00:00 12.57122 C 10.25 g/m*3 12.57 C 3.38081 km/h
2431 14-06-2012 00:00:00 14.15694 C 9.93 g/m*3 14.16 C 1.8191 km/h
2432 15-06-2012 00:00:00 16.11806 C 11.68 g/m*3 16.12 C 2.80417 km/h
2433 16-06-2012 00:00:00 15.40799 C 12.19 g/m*3 15.41 C 2.89306 km/h
2434 17-06-2012 00:00:00 17.28021 C 10.37 g/m*3 17.28 C 5.15313 km/h
2435 18-06-2012 00:00:00 18.57292 C 11.77 g/m*3 18.57 C 4.89653 km/h
2436 19-06-2012 00:00:00 17.44028 C 12.26 g/m*3 17.44 C 1.76389 km/h
2437 20-06-2012 00:00:00 16.35833 C 13.49 g/m*3 16.36 C 1.52674 km/h
2438 21-06-2012 00:00:00 18.41354 C 14.08 g/m*3 18.41 C 2.59965 km/h
2439 22-06-2012 00:00:00 16.36181 C 10.54 g/m*3 16.36 C 7.0059 km/h
2440 23-06-2012 00:00:00 16.63472 C 10.11 g/m*3 16.63 C 5.14444 km/h
2441 24-06-2012 00:00:00 14.73507 C 10.4 g/m*3 14.74 C 6.91354 km/h
2442 25-06-2012 00:00:00 15.09028 C 10.16 g/m*3 15.09 C 8.34479 km/h
2443 26-06-2012 00:00:00 16.43125 C 10.29 g/m*3 16.43 C 3.31285 km/h
2444 27-06-2012 00:00:00 18.07569 C 13.09 g/m*3 18.08 C 3.76944 km/h
2445 28-06-2012 00:00:00 21.87465 C 15.47 g/m*3 21.87 C 2.8309 km/h
2446 29-06-2012 00:00:00 20.49063 C 16.02 g/m*3 20.49 C 2.96215 km/h
2447 30-06-2012 00:00:00 20.14965 C 13.71 g/m*3 20.15 C 2.2625 km/h
2448 01-07-2012 00:00:00 17.98889 C 12.48 g/m*3 17.99 C 3.47257 km/h
2449 02-07-2012 00:00:00 15.24444 C 11.26 g/m*3 15.24 C 0.73889 km/h
2450 03-07-2012 00:00:00 18.02153 C 11.83 g/m*3 18.02 C 2.55382 km/h
Sensor: Nr:Datum:Temp:Abs-Feuchte:Windchill:Wind:
Aussen-T/F 2451 04-07-2012 00:00:00 19.87465 C 13.12 g/m*3 19.87 C 2.27778 km/h
2452 05-07-2012 00:00:00 19.09722 C 15.03 g/m*3 19.1 C 0.74479 km/h
2453 06-07-2012 00:00:00 19.21042 C 13.57 g/m*3 19.21 C 3.32431 km/h
2454 07-07-2012 00:00:00 19.57743 C 12.21 g/m*3 19.58 C 3.63854 km/h
2455 08-07-2012 00:00:00 17.84097 C 12.38 g/m*3 17.84 C 5.58993 km/h
2456 09-07-2012 00:00:00 18.63611 C 11.51 g/m*3 18.64 C 6.85972 km/h
2457 10-07-2012 00:00:00 19.1441 C 12.62 g/m*3 19.14 C 4.02951 km/h
2458 11-07-2012 00:00:00 16.03553 C 10.88 g/m*3 16.04 C 5.68791 km/h
2459 12-07-2012 00:00:00 14.8191 C 9.88 g/m*3 14.82 C 8.20799 km/h
2460 13-07-2012 00:00:00 15.50417 C 11.84 g/m*3 15.5 C 4.44132 km/h
2461 14-07-2012 00:00:00 15.27708 C 11.45 g/m*3 15.28 C 6.33438 km/h
2462 15-07-2012 00:00:00 14.52014 C 10.82 g/m*3 14.52 C 5.16597 km/h
2463 16-07-2012 00:00:00 15.02292 C 10.17 g/m*3 15.02 C 7.63264 km/h
2464 17-07-2012 00:00:00 17.55296 C 11.48 g/m*3 17.55 C 9.27003 km/h
2465 18-07-2012 00:00:00 19.90563 C 12.45 g/m*3 19.91 C 5.63345 km/h
2466 19-07-2012 00:00:00 18.1593 C 10.92 g/m*3 18.16 C 6.90807 km/h
2467 20-07-2012 00:00:00 14.84982 C 10.88 g/m*3 14.85 C 2.54767 km/h
2468 21-07-2012 00:00:00 15.04167 C 10.37 g/m*3 15.04 C 3.48403 km/h
2469 22-07-2012 00:00:00 14.62049 C 9.34 g/m*3 14.62 C 2.64549 km/h
2470 23-07-2012 00:00:00 17.15069 C 9.94 g/m*3 17.15 C 3.31076 km/h
2471 24-07-2012 00:00:00 19.81701 C 12.05 g/m*3 19.82 C 3.02049 km/h
2472 25-07-2012 00:00:00 22.08445 C 14.21 g/m*3 22.08 C 2.1053 km/h
2473 26-07-2012 00:00:00 23.10764 C 15.14 g/m*3 23.11 C 1.99514 km/h
2474 27-07-2012 00:00:00 22.26167 C 16.31 g/m*3 22.26 C 2.37143 km/h
2475 28-07-2012 00:00:00 19.03507 C 15.12 g/m*3 19.04 C 2.04826 km/h
Sensor: Nr:Datum:Temp:Abs-Feuchte:Windchill:Wind:
Aussen-T/F 2476 29-07-2012 00:00:00 17.61875 C 11.35 g/m*3 17.62 C 4.525 km/h
2477 30-07-2012 00:00:00 16.17396 C 9.66 g/m*3 16.17 C 5.72396 km/h
2478 31-07-2012 00:00:00 16.33993 C 11.03 g/m*3 16.34 C 3.13403 km/h
2479 01-08-2012 00:00:00 20.08194 C 13.03 g/m*3 20.08 C 3.05833 km/h
2480 02-08-2012 00:00:00 20.75938 C 13.57 g/m*3 20.76 C 4.57847 km/h
2481 03-08-2012 00:00:00 19.31771 C 11.89 g/m*3 19.32 C 4.20035 km/h
2482 04-08-2012 00:00:00 19.1 C 11.8 g/m*3 19.1 C 3.13889 km/h
2483 05-08-2012 00:00:00 19.0875 C 13.66 g/m*3 19.09 C 2.04722 km/h
2484 06-08-2012 00:00:00 18.40312 C 12.35 g/m*3 18.4 C 5.67882 km/h
2485 07-08-2012 00:00:00 17.15556 C 10.69 g/m*3 17.16 C 5.52535 km/h
2486 08-08-2012 00:00:00 16.59132 C 11.2 g/m*3 16.59 C 1.95243 km/h
2487 09-08-2012 00:00:00 18.49479 C 12.19 g/m*3 18.49 C 3.35035 km/h
2488 10-08-2012 00:00:00 17.33299 C 10.54 g/m*3 17.33 C 3.19965 km/h
2489 11-08-2012 00:00:00 16.29444 C 10.16 g/m*3 16.29 C 3.24028 km/h
2490 12-08-2012 00:00:00 17.40486 C 10.17 g/m*3 17.4 C 3.59653 km/h
2491 13-08-2012 00:00:00 18.22326 C 11.39 g/m*3 18.22 C 2.33056 km/h
2492 14-08-2012 00:00:00 19.78993 C 13.49 g/m*3 19.79 C 1.41667 km/h
2493 15-08-2012 00:00:00 22.31354 C 14.02 g/m*3 22.31 C 2.55694 km/h
2494 16-08-2012 00:00:00 21.27535 C 12.53 g/m*3 21.28 C 3.72917 km/h
2495 17-08-2012 00:00:00 20.12986 C 12.21 g/m*3 20.13 C 2.75521 km/h
2496 18-08-2012 00:00:00 23.0066 C 13.86 g/m*3 23.01 C 3.18229 km/h
2497 19-08-2012 00:00:00 24.67083 C 15.81 g/m*3 24.67 C 2.43264 km/h
2498 20-08-2012 00:00:00 23.43229 C 16.92 g/m*3 23.43 C 1.96354 km/h
2499 21-08-2012 00:00:00 22.65105 C 16.48 g/m*3 22.65 C 1.97483 km/h
2500 22-08-2012 00:00:00 20.95729 C 11.81 g/m*3 20.96 C 4.26389 km/h
Sensor: Nr:Datum:Temp:Abs-Feuchte:Windchill:Wind:
Aussen-T/F 2501 23-08-2012 00:00:00 17.78194 C 9.87 g/m*3 17.78 C 2.24444 km/h
2502 24-08-2012 00:00:00 18.61514 C 12.97 g/m*3 18.62 C 2.49155 km/h
2503 25-08-2012 00:00:00 18.46493 C 12.42 g/m*3 18.46 C 5.00035 km/h
2504 26-08-2012 00:00:00 16.26829 C 10.84 g/m*3 16.27 C 8.77944 km/h
2505 27-08-2012 00:00:00 16.33728 C 10.98 g/m*3 16.34 C 2.63066 km/h
2506 28-08-2012 00:00:00 18.01812 C 11.48 g/m*3 18.02 C 3.66864 km/h
2507 29-08-2012 00:00:00 20.02396 C 13.42 g/m*3 20.02 C 2.13264 km/h
2508 30-08-2012 00:00:00 17.48889 C 12.07 g/m*3 17.49 C 3.22465 km/h
2509 31-08-2012 00:00:00 13.93646 C 10.2 g/m*3 13.94 C 6.31146 km/h
2510 01-09-2012 00:00:00 14.49236 C 9.5 g/m*3 14.49 C 4.74896 km/h
2511 02-09-2012 00:00:00 13.96285 C 9.9 g/m*3 13.96 C 1.82257 km/h
2512 03-09-2012 00:00:00 16.22222 C 11.01 g/m*3 16.22 C 2.96493 km/h
2513 04-09-2012 00:00:00 16.86259 C 11.77 g/m*3 16.86 C 1.64021 km/h
2514 05-09-2012 00:00:00 16.4125 C 11.14 g/m*3 16.41 C 3.33681 km/h
2515 06-09-2012 00:00:00 14.61525 C 8.89 g/m*3 14.62 C 2.50035 km/h
2516 07-09-2012 00:00:00 14.4309 C 9.14 g/m*3 14.43 C 2.39931 km/h
2517 08-09-2012 00:00:00 16.83403 C 10.04 g/m*3 16.83 C 2.29444 km/h
2518 09-09-2012 00:00:00 18.54722 C 10.81 g/m*3 18.55 C 3.24271 km/h
2519 10-09-2012 00:00:00 19.67847 C 11.4 g/m*3 19.68 C 3.52361 km/h
2520 11-09-2012 00:00:00 17.74028 C 12.66 g/m*3 17.74 C 5.06389 km/h
2521 12-09-2012 00:00:00 11.13646 C 9.43 g/m*3 11.14 C 3.28194 km/h
2522 13-09-2012 00:00:00 10.78611 C 8.92 g/m*3 10.79 C 1.61944 km/h
2523 14-09-2012 00:00:00 13.01424 C 9.51 g/m*3 13.01 C 8.50729 km/h
2524 15-09-2012 00:00:00 13.44514 C 10.31 g/m*3 13.45 C 2.61597 km/h
2525 16-09-2012 00:00:00 13.24236 C 9.85 g/m*3 13.24 C 1.95903 km/h
Sensor: Nr:Datum:Temp:Abs-Feuchte:Windchill:Wind:
Aussen-T/F 2526 17-09-2012 00:00:00 15.15729 C 10.75 g/m*3 15.16 C 2.24271 km/h
2527 18-09-2012 00:00:00 14.10868 C 10.23 g/m*3 14.11 C 3.36389 km/h
2528 19-09-2012 00:00:00 11.7684 C 7.38 g/m*3 11.77 C 5.62153 km/h
2529 20-09-2012 00:00:00 9.9566 C 6.83 g/m*3 9.96 C 3.81424 km/h
2530 21-09-2012 00:00:00 10.62118 C 7.77 g/m*3 10.62 C 2.10278 km/h
2531 22-09-2012 00:00:00 11.53611 C 8.31 g/m*3 11.54 C 5.85486 km/h
2532 23-09-2012 00:00:00 11.58819 C 8.16 g/m*3 11.59 C 3.43542 km/h
2533 24-09-2012 00:00:00 14.89201 C 10.77 g/m*3 14.89 C 6.19201 km/h
2534 25-09-2012 00:00:00 12.86597 C 9.91 g/m*3 12.87 C 3.00486 km/h
2535 26-09-2012 00:00:00 12.27917 C 10.31 g/m*3 12.28 C 0.45625 km/h
2536 27-09-2012 00:00:00 12.68611 C 9.87 g/m*3 12.69 C 4.77465 km/h
2537 28-09-2012 00:00:00 12.56701 C 9.49 g/m*3 12.57 C 5.41771 km/h
2538 29-09-2012 00:00:00 11.68819 C 8.78 g/m*3 11.69 C 4.77674 km/h
2539 30-09-2012 00:00:00 9.30035 C 8.03 g/m*3 9.3 C 1.28924 km/h
2540 01-10-2012 00:00:00 9.46319 C 7.74 g/m*3 9.46 C 3.12986 km/h
2541 02-10-2012 00:00:00 12.25764 C 9.17 g/m*3 12.26 C 3.29653 km/h
2542 03-10-2012 00:00:00 14.55312 C 10.23 g/m*3 14.55 C 6.72014 km/h
2543 04-10-2012 00:00:00 12.89722 C 9.38 g/m*3 12.9 C 9.02361 km/h
2544 05-10-2012 00:00:00 13.57986 C 10.01 g/m*3 13.58 C 12.05486 km/h
2545 06-10-2012 00:00:00 14.99469 C 10.77 g/m*3 14.99 C 9.95714 km/h
2546 07-10-2012 00:00:00 10.63669 C 8.39 g/m*3 10.64 C 3.51583 km/h
2547 08-10-2012 00:00:00 8.1958 C 7.66 g/m*3 8.2 C 0.7395 km/h
2548 09-10-2012 00:00:00 10.60348 C 8.05 g/m*3 10.6 C 4.4204 km/h
2549 10-10-2012 00:00:00 6.21146 C 6.73 g/m*3 6.21 C 1.03958 km/h
2550 11-10-2012 00:00:00 6.67361 C 7 g/m*3 6.67 C 0.92778 km/h
Sensor: Nr:Datum:Temp:Abs-Feuchte:Windchill:Wind:
Aussen-T/F 2551 12-10-2012 00:00:00 10.79653 C 8.89 g/m*3 10.8 C 3.08889 km/h
2552 13-10-2012 00:00:00 9.08472 C 7.61 g/m*3 9.08 C 3.02778 km/h
2553 14-10-2012 00:00:00 8.15833 C 7.57 g/m*3 8.16 C 2.57882 km/h
2554 15-10-2012 00:00:00 7.43264 C 7.4 g/m*3 7.43 C 4.62292 km/h
2555 16-10-2012 00:00:00 7.85556 C 7.35 g/m*3 7.86 C 3.77708 km/h
2556 17-10-2012 00:00:00 10.85972 C 8.95 g/m*3 10.86 C 2.29583 km/h
2557 18-10-2012 00:00:00 14.37569 C 10.54 g/m*3 14.38 C 2.51806 km/h
2558 19-10-2012 00:00:00 14.37187 C 11 g/m*3 14.37 C 0.69618 km/h
2559 20-10-2012 00:00:00 13.74722 C 11.04 g/m*3 13.75 C 0.03889 km/h
2560 21-10-2012 00:00:00 13.32917 C 10.84 g/m*3 13.33 C 0.27222 km/h
2561 22-10-2012 00:00:00 11.79062 C 9.89 g/m*3 11.79 C 0 km/h
2562 23-10-2012 00:00:00 11.38403 C 9.01 g/m*3 11.38 C 1.95799 km/h
2563 24-10-2012 00:00:00 9.71528 C 8.48 g/m*3 9.72 C 0.81181 km/h
2564 25-10-2012 00:00:00 9.9441 C 8.7 g/m*3 9.94 C 1.19514 km/h
2565 26-10-2012 00:00:00 6.73542 C 7.11 g/m*3 6.74 C 3.17743 km/h
2566 27-10-2012 00:00:00 2.98993 C 4.65 g/m*3 0.8 C 7.91354 km/h
2567 28-10-2012 00:00:00 0.51181 C 4.52 g/m*3 0.51 C 1.97847 km/h
2568 29-10-2012 00:00:00 0.69306 C 4.69 g/m*3 0.69 C 2.28194 km/h
2569 30-10-2012 00:00:00 6.0566 C 6.62 g/m*3 4.29 C 8.35451 km/h
2570 31-10-2012 00:00:00 5.97118 C 6.61 g/m*3 5.97 C 1.67535 km/h
2571 01-11-2012 00:00:00 7.64965 C 6.94 g/m*3 7.65 C 4.97917 km/h
2572 02-11-2012 00:00:00 7.75417 C 6.62 g/m*3 6.3 C 8.2934 km/h
2573 03-11-2012 00:00:00 7.38542 C 7.47 g/m*3 7.39 C 3.34514 km/h
2574 04-11-2012 00:00:00 7.74028 C 7.51 g/m*3 7.74 C 2.64236 km/h
2575 05-11-2012 00:00:00 8.00382 C 6.98 g/m*3 7.32 C 5.5125 km/h
Sensor: Nr:Datum:Temp:Abs-Feuchte:Windchill:Wind:
Aussen-T/F 2576 06-11-2012 00:00:00 6.03264 C 6.38 g/m*3 5.16 C 5.26076 km/h
2577 07-11-2012 00:00:00 8.52535 C 7.42 g/m*3 6.72 C 10.84757 km/h
2578 08-11-2012 00:00:00 8.82222 C 7.04 g/m*3 7.73 C 7.52292 km/h
2579 09-11-2012 00:00:00 8.19861 C 7.03 g/m*3 8.2 C 3.10694 km/h
2580 10-11-2012 00:00:00 8.89201 C 8.14 g/m*3 8.89 C 0.45625 km/h
2581 11-11-2012 00:00:00 8.24097 C 7.75 g/m*3 8.24 C 0.73924 km/h
2582 12-11-2012 00:00:00 5.70868 C 6.31 g/m*3 5.71 C 3.19549 km/h
2583 13-11-2012 00:00:00 3.26076 C 5.7 g/m*3 3.26 C 0.92292 km/h
2584 14-11-2012 00:00:00 2.60312 C 5.46 g/m*3 2.6 C 1.14618 km/h
2585 15-11-2012 00:00:00 4.53958 C 5.82 g/m*3 4.54 C 1.51146 km/h
2586 16-11-2012 00:00:00 3.22222 C 5.28 g/m*3 3.22 C 2.14722 km/h
2587 17-11-2012 00:00:00 4.33472 C 6.08 g/m*3 4.33 C 2.10972 km/h
2588 18-11-2012 00:00:00 7.54704 C 7.71 g/m*3 7.55 C 0.36794 km/h
2589 19-11-2012 00:00:00 7.68403 C 7.7 g/m*3 7.68 C 0.77222 km/h
2590 20-11-2012 00:00:00 5.27188 C 6.48 g/m*3 5.27 C 3.14861 km/h
2591 21-11-2012 00:00:00 4.38681 C 5.99 g/m*3 4.39 C 3.3559 km/h
2592 22-11-2012 00:00:00 5.51111 C 6.67 g/m*3 5.51 C 2.11458 km/h
2593 23-11-2012 00:00:00 6.88472 C 7.16 g/m*3 6.88 C 1.10556 km/h
2594 24-11-2012 00:00:00 9.16042 C 7.96 g/m*3 9.16 C 1.59861 km/h
2595 25-11-2012 00:00:00 10.6066 C 7.12 g/m*3 9.06 C 11.94444 km/h
2596 26-11-2012 00:00:00 6.01493 C 6.93 g/m*3 6.01 C 1.30035 km/h
2597 27-11-2012 00:00:00 7.67986 C 7.22 g/m*3 7.68 C 1.75139 km/h
2598 28-11-2012 00:00:00 5.5184 C 6.41 g/m*3 5.52 C 3.27431 km/h
2599 29-11-2012 00:00:00 4.01319 C 5.52 g/m*3 1.9 C 8.29063 km/h
2600 30-11-2012 00:00:00 1.44375 C 5.03 g/m*3 1.44 C 1.75 km/h
Sensor: Nr:Datum:Temp:Abs-Feuchte:Windchill:Wind:
Aussen-T/F 2601 01-12-2012 00:00:00 -0.39861 C 4.43 g/m*3 -0.4 C 2.91806 km/h
2602 02-12-2012 00:00:00 2.39375 C 5.11 g/m*3 0.12 C 7.84375 km/h
2603 03-12-2012 00:00:00 2.27222 C 5.07 g/m*3 0.48 C 6.28542 km/h
2604 04-12-2012 00:00:00 3.75312 C 5.6 g/m*3 1.48 C 8.7184 km/h
2605 05-12-2012 00:00:00 2.86667 C 5.34 g/m*3 2.87 C 4.58889 km/h
2606 06-12-2012 00:00:00 0.5625 C 4.27 g/m*3 -1.72 C 6.90451 km/h
2607 07-12-2012 00:00:00 -1.00382 C 4.12 g/m*3 -1 C 2.15174 km/h
2608 08-12-2012 00:00:00 -4.66111 C 3.26 g/m*3 -4.66 C 0.08333 km/h
2609 09-12-2012 00:00:00 0.22326 C 4.47 g/m*3 -3.85 C 13.50035 km/h
2610 10-12-2012 00:00:00 2.70764 C 5.07 g/m*3 -0.25 C 10.75069 km/h
2611 11-12-2012 00:00:00 -0.72396 C 4.01 g/m*3 -2.87 C 6.02639 km/h
2612 12-12-2012 00:00:00 -3.40937 C 3.25 g/m*3 -3.41 C 4.13333 km/h
2613 13-12-2012 00:00:00 -3.53646 C 3.35 g/m*3 -3.54 C 1.1184 km/h
2614 14-12-2012 00:00:00 2.76076 C 5.42 g/m*3 1.54 C 5.00868 km/h
2615 15-12-2012 00:00:00 6.97153 C 7.13 g/m*3 6.18 C 5.41458 km/h
2616 16-12-2012 00:00:00 6.60868 C 6.88 g/m*3 5.71 C 5.58611 km/h
2617 17-12-2012 00:00:00 6.04792 C 6.82 g/m*3 6.05 C 2.96979 km/h
2618 18-12-2012 00:00:00 5.04583 C 6.35 g/m*3 5.05 C 3.31319 km/h
2619 19-12-2012 00:00:00 3.47361 C 5.91 g/m*3 3.47 C 0.92222 km/h
2620 20-12-2012 00:00:00 1.32396 C 4.98 g/m*3 1.32 C 2.29861 km/h
2621 21-12-2012 00:00:00 3.19236 C 5.89 g/m*3 3.19 C 0.36111 km/h
2622 22-12-2012 00:00:00 6.1691 C 6.99 g/m*3 6.17 C 1.84653 km/h
2623 23-12-2012 00:00:00 11.85 C 9.58 g/m*3 11.85 C 15.18264 km/h
2624 24-12-2012 00:00:00 11.08715 C 8.45 g/m*3 11.09 C 7.6184 km/h
2625 25-12-2012 00:00:00 9.61181 C 7.49 g/m*3 7.77 C 12.47222 km/h
Sensor: Nr:Datum:Temp:Abs-Feuchte:Windchill:Wind:
Aussen-T/F 2626 26-12-2012 00:00:00 8.15278 C 7.03 g/m*3 5.84 C 13.57049 km/h
2627 27-12-2012 00:00:00 7.84757 C 7.13 g/m*3 6.47 C 8.02882 km/h
2628 28-12-2012 00:00:00 6.19479 C 6.89 g/m*3 6.19 C 2.91771 km/h
2629 29-12-2012 00:00:00 8.19931 C 7.74 g/m*3 8.2 C 2.85938 km/h
2630 30-12-2012 00:00:00 8.44618 C 6.53 g/m*3 5.55 C 18.77326 km/h
2631 31-12-2012 00:00:00 8.92569 C 6.72 g/m*3 7.16 C 11.08194 km/h
2632 01-01-2013 00:00:00 6.59132 C 6.43 g/m*3 5.32 C 6.8066 km/h
2633 02-01-2013 00:00:00 4.69861 C 5.74 g/m*3 2.67 C 8.42431 km/h
2634 03-01-2013 00:00:00 7.62951 C 7.31 g/m*3 5.3 C 12.87639 km/h
2635 04-01-2013 00:00:00 9.87292 C 8.57 g/m*3 9.46 C 5.51701 km/h
2636 05-01-2013 00:00:00 7.8816 C 7.44 g/m*3 7.88 C 4.5375 km/h
2637 06-01-2013 00:00:00 8.15069 C 7.46 g/m*3 8.15 C 4.30521 km/h
2638 07-01-2013 00:00:00 7.30764 C 7 g/m*3 7.31 C 2.31007 km/h
2639 08-01-2013 00:00:00 6.15417 C 6.34 g/m*3 4.68 C 7.27049 km/h
2640 09-01-2013 00:00:00 4.72465 C 5.87 g/m*3 3 C 7.30729 km/h
2641 10-01-2013 00:00:00 4.44028 C 5.94 g/m*3 4.44 C 4.41563 km/h
2642 11-01-2013 00:00:00 1.09201 C 4.23 g/m*3 1.09 C 3.67083 km/h
2643 12-01-2013 00:00:00 -2.64514 C 3.5 g/m*3 -2.65 C 1.35035 km/h
2644 13-01-2013 00:00:00 -3.28368 C 3.21 g/m*3 -3.28 C 2.89653 km/h
2645 14-01-2013 00:00:00 -4.44028 C 3.18 g/m*3 -4.44 C 1.45625 km/h
2646 15-01-2013 00:00:00 -2.1941 C 3.71 g/m*3 -2.19 C 1.91424 km/h
2647 16-01-2013 00:00:00 -2.65521 C 3.62 g/m*3 -2.66 C 2.82674 km/h
2648 17-01-2013 00:00:00 -2.48542 C 3.6 g/m*3 -4.86 C 5.93854 km/h
2649 18-01-2013 00:00:00 -1.70729 C 3.7 g/m*3 -1.71 C 2.83785 km/h
2650 19-01-2013 00:00:00 -2.39375 C 3.33 g/m*3 -5.12 C 6.83021 km/h
Sensor: Nr:Datum:Temp:Abs-Feuchte:Windchill:Wind:
Aussen-T/F 2651 20-01-2013 00:00:00 -3.06146 C 3.42 g/m*3 -5.32 C 5.52014 km/h
2652 21-01-2013 00:00:00 -0.75938 C 4.25 g/m*3 -0.76 C 0.61111 km/h
2653 22-01-2013 00:00:00 -1.20382 C 4.09 g/m*3 -1.2 C 1.26667 km/h
2654 23-01-2013 00:00:00 -1.0566 C 4.13 g/m*3 -1.06 C 0.42222 km/h
2655 24-01-2013 00:00:00 -2.40833 C 3.53 g/m*3 -2.41 C 2.43021 km/h
2656 25-01-2013 00:00:00 -2.18368 C 3.5 g/m*3 -2.18 C 2.03056 km/h
2657 26-01-2013 00:00:00 -1.99549 C 3.56 g/m*3 -2 C 4.54028 km/h
2658 27-01-2013 00:00:00 2.22882 C 4.98 g/m*3 -0.2 C 8.26007 km/h
2659 28-01-2013 00:00:00 3.96389 C 5.56 g/m*3 1.79 C 8.49444 km/h
2660 29-01-2013 00:00:00 9.00868 C 7.7 g/m*3 6.03 C 20.92743 km/h
2661 30-01-2013 00:00:00 11.32361 C 8.43 g/m*3 11.32 C 18.11458 km/h
2662 31-01-2013 00:00:00 7.765 C 6.15 g/m*3 4.97 C 16.45909 km/h
2663 01-02-2013 00:00:00 6.26378 C 6.79 g/m*3 4.91 C 6.90236 km/h
2664 02-02-2013 00:00:00 3.24097 C 5.3 g/m*3 1.07 C 7.99201 km/h
2665 03-02-2013 00:00:00 3.41458 C 5.15 g/m*3 0.11 C 13.16319 km/h
2666 04-02-2013 00:00:00 5.84792 C 6.43 g/m*3 3.09 C 13.14201 km/h
2667 05-02-2013 00:00:00 4.44583 C 5.17 g/m*3 1.42 C 12.87951 km/h
2668 06-02-2013 00:00:00 1.58819 C 4.94 g/m*3 1.59 C 3.79479 km/h
2669 07-02-2013 00:00:00 1.88576 C 4.99 g/m*3 0.5 C 5.12014 km/h
2670 08-02-2013 00:00:00 0.56424 C 4.61 g/m*3 0.56 C 3.95035 km/h
2671 09-02-2013 00:00:00 -0.7941 C 4.06 g/m*3 -0.79 C 1.88576 km/h
2672 10-02-2013 00:00:00 -1.98681 C 3.49 g/m*3 -1.99 C 3.66701 km/h
2673 11-02-2013 00:00:00 -0.9316 C 3.22 g/m*3 -3.01 C 5.80868 km/h
2674 12-02-2013 00:00:00 -0.84618 C 3.3 g/m*3 -2.75 C 5.42778 km/h
2675 13-02-2013 00:00:00 -0.98125 C 3.33 g/m*3 -0.98 C 1.83924 km/h
Sensor: Nr:Datum:Temp:Abs-Feuchte:Windchill:Wind:
Aussen-T/F 2676 14-02-2013 00:00:00 -2.40382 C 3.43 g/m*3 -2.4 C 1.51736 km/h
2677 15-02-2013 00:00:00 0.91806 C 4.82 g/m*3 0.92 C 1.25625 km/h
2678 16-02-2013 00:00:00 2.92847 C 5.66 g/m*3 2.93 C 2.14479 km/h
2679 17-02-2013 00:00:00 2.97465 C 5.51 g/m*3 2.97 C 1.93715 km/h
2680 18-02-2013 00:00:00 0.52847 C 4.51 g/m*3 0.53 C 1.4066 km/h
2681 19-02-2013 00:00:00 0.79306 C 4.7 g/m*3 0.79 C 2.49583 km/h
2682 20-02-2013 00:00:00 0.4316 C 3.97 g/m*3 0.43 C 4.04931 km/h
2683 21-02-2013 00:00:00 -1.21979 C 3.42 g/m*3 -3.12 C 5.30104 km/h
2684 22-02-2013 00:00:00 -2.3066 C 3.01 g/m*3 -5.81 C 9.10521 km/h
2685 23-02-2013 00:00:00 -2.80139 C 3.42 g/m*3 -5.68 C 7.05833 km/h
2686 24-02-2013 00:00:00 -0.43958 C 4.27 g/m*3 -0.44 C 1.54444 km/h
2687 25-02-2013 00:00:00 0.88785 C 4.94 g/m*3 0.89 C 0.58333 km/h
2688 26-02-2013 00:00:00 2.31215 C 5.36 g/m*3 2.31 C 2.66389 km/h
2689 27-02-2013 00:00:00 1.69271 C 4.88 g/m*3 0.12 C 5.50451 km/h
2690 28-02-2013 00:00:00 2.41771 C 5.05 g/m*3 2.42 C 1.77847 km/h
2691 01-03-2013 00:00:00 2.75278 C 4.84 g/m*3 1.23 C 5.76181 km/h
2692 02-03-2013 00:00:00 2.60208 C 4.36 g/m*3 2.6 C 3.85451 km/h
2693 03-03-2013 00:00:00 1.90104 C 4.65 g/m*3 1.9 C 2.56319 km/h
2694 04-03-2013 00:00:00 1.8934 C 4.55 g/m*3 1.89 C 2.53299 km/h
2695 05-03-2013 00:00:00 2.56979 C 4.84 g/m*3 2.57 C 1.66806 km/h
2696 06-03-2013 00:00:00 5.45035 C 5.46 g/m*3 5.45 C 1.99132 km/h
2697 07-03-2013 00:00:00 8.96146 C 6.98 g/m*3 8.96 C 1.86111 km/h
2698 08-03-2013 00:00:00 10.92049 C 8.36 g/m*3 10.92 C 2.84097 km/h
2699 09-03-2013 00:00:00 10.42118 C 8.16 g/m*3 9.66 C 7.26875 km/h
2700 10-03-2013 00:00:00 3.88611 C 5.72 g/m*3 1.99 C 7.40486 km/h
Sensor: Nr:Datum:Temp:Abs-Feuchte:Windchill:Wind:
Aussen-T/F 2701 11-03-2013 00:00:00 -0.5191 C 4.16 g/m*3 -3.22 C 7.61493 km/h
2702 12-03-2013 00:00:00 -2.72153 C 3.62 g/m*3 -6.29 C 9.08611 km/h
2703 13-03-2013 00:00:00 -2.95907 C 3.2 g/m*3 -2.96 C 3.44164 km/h
2704 14-03-2013 00:00:00 -1.88944 C 3.66 g/m*3 -1.89 C 4.83803 km/h
2705 15-03-2013 00:00:00 -2.50139 C 3.23 g/m*3 -2.5 C 3.97569 km/h
2706 16-03-2013 00:00:00 2.40938 C 3.77 g/m*3 1.08 C 5.14097 km/h
2707 17-03-2013 00:00:00 3.22014 C 5.2 g/m*3 1.79 C 5.6934 km/h
2708 18-03-2013 00:00:00 4.14479 C 5.29 g/m*3 4.14 C 2.925 km/h
2709 19-03-2013 00:00:00 4.10313 C 5.3 g/m*3 2.37 C 6.99549 km/h
2710 20-03-2013 00:00:00 3.59201 C 5.62 g/m*3 2.05 C 6.15208 km/h
2711 21-03-2013 00:00:00 1.33993 C 4.61 g/m*3 1.34 C 3.61701 km/h
2712 22-03-2013 00:00:00 1.7441 C 4.27 g/m*3 -0.36 C 6.95208 km/h
2713 23-03-2013 00:00:00 1.46875 C 3.61 g/m*3 -1.64 C 10.31771 km/h
2714 24-03-2013 00:00:00 0.48854 C 2.55 g/m*3 -3.16 C 11.78299 km/h
2715 25-03-2013 00:00:00 0.18681 C 2.77 g/m*3 -3.31 C 10.87153 km/h
2716 26-03-2013 00:00:00 0.3309 C 2.72 g/m*3 -2.84 C 9.68924 km/h
2717 27-03-2013 00:00:00 1.19896 C 3.02 g/m*3 -0.78 C 6.36007 km/h
2718 28-03-2013 00:00:00 2.07639 C 3.83 g/m*3 2.08 C 4.95278 km/h
2719 29-03-2013 00:00:00 0.53715 C 4.37 g/m*3 0.54 C 2.69028 km/h
2720 30-03-2013 00:00:00 1.50903 C 4.04 g/m*3 0.09 C 5.07465 km/h
2721 31-03-2013 00:00:00 1.17246 C 4.09 g/m*3 1.17 C 3.63333 km/h
2722 01-04-2013 00:00:00 1.44201 C 3.69 g/m*3 -0.59 C 6.61632 km/h
2723 02-04-2013 00:00:00 2.12708 C 3.49 g/m*3 -0.4 C 8.57292 km/h
2724 03-04-2013 00:00:00 1.88194 C 3.86 g/m*3 -0.19 C 6.91979 km/h
2725 04-04-2013 00:00:00 3.97465 C 4.17 g/m*3 1.28 C 10.69167 km/h
Sensor: Nr:Datum:Temp:Abs-Feuchte:Windchill:Wind:
Aussen-T/F 2726 05-04-2013 00:00:00 2.45382 C 4.32 g/m*3 0.51 C 6.82708 km/h
2727 06-04-2013 00:00:00 3.55104 C 5.15 g/m*3 3.55 C 3.75382 km/h
2728 07-04-2013 00:00:00 3.40382 C 4.38 g/m*3 3.4 C 3.99861 km/h
2729 08-04-2013 00:00:00 4.46979 C 4.7 g/m*3 4.47 C 4.01528 km/h
2730 09-04-2013 00:00:00 5.89479 C 6.41 g/m*3 5.89 C 2.88368 km/h
2731 10-04-2013 00:00:00 8.34653 C 7.31 g/m*3 7.21 C 7.39444 km/h
2732 11-04-2013 00:00:00 12.25972 C 8.26 g/m*3 12.26 C 8.69375 km/h
2733 12-04-2013 00:00:00 10.42708 C 8.11 g/m*3 9.5 C 8.04653 km/h
2734 13-04-2013 00:00:00 11.30243 C 7.19 g/m*3 11.3 C 13.14965 km/h
2735 14-04-2013 00:00:00 15.49271 C 9.19 g/m*3 15.49 C 5.00903 km/h
2736 15-04-2013 00:00:00 15.52118 C 9.73 g/m*3 15.52 C 3.96319 km/h
2737 16-04-2013 00:00:00 16.01215 C 10.01 g/m*3 16.01 C 6.64722 km/h
2738 17-04-2013 00:00:00 17.14167 C 9.47 g/m*3 17.14 C 4.36944 km/h
2739 18-04-2013 00:00:00 15.57153 C 8.25 g/m*3 15.57 C 8.59063 km/h
2740 19-04-2013 00:00:00 11.46389 C 5.86 g/m*3 11.46 C 7.37882 km/h
2741 20-04-2013 00:00:00 10.16944 C 5.86 g/m*3 9.12 C 8.41042 km/h
2742 21-04-2013 00:00:00 10.71389 C 5.87 g/m*3 10.71 C 3.64271 km/h
2743 22-04-2013 00:00:00 12.26562 C 6.5 g/m*3 12.27 C 4.57917 km/h
2744 23-04-2013 00:00:00 12.48924 C 6.91 g/m*3 12.49 C 7.44097 km/h
2745 24-04-2013 00:00:00 14.60278 C 8.68 g/m*3 14.6 C 5.08125 km/h
2746 25-04-2013 00:00:00 17.28958 C 9.5 g/m*3 17.29 C 3.36458 km/h
2747 26-04-2013 00:00:00 12.59896 C 9.36 g/m*3 12.6 C 4.20139 km/h
2748 27-04-2013 00:00:00 6.70972 C 6.74 g/m*3 5.37 C 7.12465 km/h
2749 28-04-2013 00:00:00 7.57118 C 6.7 g/m*3 7.57 C 3.89444 km/h
2750 29-04-2013 00:00:00 11.20139 C 6.8 g/m*3 11.2 C 7.63854 km/h
Sensor: Nr:Datum:Temp:Abs-Feuchte:Windchill:Wind:
Aussen-T/F 2751 30-04-2013 00:00:00 9.40104 C 7.1 g/m*3 9.4 C 3.25451 km/h
2752 01-05-2013 00:00:00 12.25 C 8.67 g/m*3 12.25 C 4.65035 km/h
2753 02-05-2013 00:00:00 15.26458 C 9.35 g/m*3 15.26 C 4.47986 km/h
2754 03-05-2013 00:00:00 14.28056 C 9.43 g/m*3 14.28 C 2.45799 km/h
2755 04-05-2013 00:00:00 15.30521 C 8.94 g/m*3 15.31 C 3.60069 km/h
2756 05-05-2013 00:00:00 14.71458 C 8.45 g/m*3 14.71 C 3.03507 km/h
2757 06-05-2013 00:00:00 15.4691 C 9.25 g/m*3 15.47 C 2.82361 km/h
2758 07-05-2013 00:00:00 14.47708 C 10.71 g/m*3 14.48 C 2.22049 km/h
2759 08-05-2013 00:00:00 15.69062 C 10.79 g/m*3 15.69 C 3.63333 km/h
2760 09-05-2013 00:00:00 16.1566 C 10.9 g/m*3 16.16 C 5.21563 km/h
2761 10-05-2013 00:00:00 13.28785 C 8.13 g/m*3 13.29 C 6.80694 km/h
2762 11-05-2013 00:00:00 12.72431 C 8.91 g/m*3 12.72 C 5.17951 km/h
2763 12-05-2013 00:00:00 9.44583 C 7.91 g/m*3 9.45 C 4.46875 km/h
2764 13-05-2013 00:00:00 11.19688 C 8.85 g/m*3 11.2 C 7.28785 km/h
2765 14-05-2013 00:00:00 12.63125 C 9.02 g/m*3 12.63 C 4.77813 km/h
2766 15-05-2013 00:00:00 13.05694 C 9.61 g/m*3 13.06 C 4.07951 km/h
2767 16-05-2013 00:00:00 13.25521 C 10.72 g/m*3 13.26 C 0.89444 km/h
2768 17-05-2013 00:00:00 10.33125 C 9.02 g/m*3 10.33 C 4.30556 km/h
2769 18-05-2013 00:00:00 13.12118 C 9.52 g/m*3 13.12 C 3.43924 km/h
2770 19-05-2013 00:00:00 13.29792 C 9.73 g/m*3 13.3 C 5.52708 km/h
2771 20-05-2013 00:00:00 10.92014 C 9.13 g/m*3 10.56 C 5.88333 km/h
2772 21-05-2013 00:00:00 12.35104 C 9.37 g/m*3 12.35 C 3.74375 km/h
2773 22-05-2013 00:00:00 9.34444 C 7.87 g/m*3 8.02 C 9.05382 km/h
2774 23-05-2013 00:00:00 7.90764 C 7.05 g/m*3 7.25 C 5.40729 km/h
2775 24-05-2013 00:00:00 7.60521 C 6.36 g/m*3 7.61 C 3.47014 km/h
Sensor: Nr:Datum:Temp:Abs-Feuchte:Windchill:Wind:
Aussen-T/F 2776 25-05-2013 00:00:00 8.39687 C 6.76 g/m*3 7.79 C 5.44514 km/h
2777 26-05-2013 00:00:00 8.03611 C 7.76 g/m*3 8.04 C 3.64861 km/h
2778 27-05-2013 00:00:00 12.39201 C 8.39 g/m*3 12.39 C 3.55069 km/h
2779 28-05-2013 00:00:00 13.87465 C 8.99 g/m*3 13.87 C 3.74063 km/h
2780 29-05-2013 00:00:00 10.21285 C 8.83 g/m*3 10.21 C 3.26944 km/h
2781 30-05-2013 00:00:00 11.70208 C 8.42 g/m*3 11.7 C 3.37917 km/h
2782 31-05-2013 00:00:00 13.19792 C 10.37 g/m*3 13.2 C 7.0059 km/h
2783 01-06-2013 00:00:00 12.09549 C 9.43 g/m*3 12.1 C 10.35764 km/h
2784 02-06-2013 00:00:00 13.08125 C 7.56 g/m*3 13.08 C 12.00382 km/h
2785 03-06-2013 00:00:00 12.7375 C 7.18 g/m*3 12.74 C 8.43194 km/h
2786 04-06-2013 00:00:00 13.85833 C 8.65 g/m*3 13.86 C 5.10764 km/h
2787 05-06-2013 00:00:00 16.28889 C 10.86 g/m*3 16.29 C 2.27986 km/h
2788 06-06-2013 00:00:00 18.00868 C 10.5 g/m*3 18.01 C 2.87396 km/h
2789 07-06-2013 00:00:00 18.14826 C 11.07 g/m*3 18.15 C 1.74549 km/h
2790 08-06-2013 00:00:00 18.53125 C 12.53 g/m*3 18.53 C 1.57326 km/h
2791 09-06-2013 00:00:00 15.18819 C 11.62 g/m*3 15.19 C 2.2816 km/h
2792 10-06-2013 00:00:00 12.77396 C 10.58 g/m*3 12.77 C 4.17083 km/h
2793 11-06-2013 00:00:00 15.40451 C 11.14 g/m*3 15.4 C 2.71146 km/h
2794 12-06-2013 00:00:00 17.48576 C 12.43 g/m*3 17.49 C 2.83299 km/h
2795 13-06-2013 00:00:00 18.45313 C 13.42 g/m*3 18.45 C 3.90278 km/h
2796 14-06-2013 00:00:00 14.47917 C 9.72 g/m*3 14.48 C 6.08194 km/h
2797 15-06-2013 00:00:00 15.22674 C 10.14 g/m*3 15.23 C 5.81354 km/h
2798 16-06-2013 00:00:00 16.60104 C 10.02 g/m*3 16.6 C 5.39375 km/h
2799 17-06-2013 00:00:00 20.99236 C 13.54 g/m*3 20.99 C 3.2 km/h
2800 18-06-2013 00:00:00 23.88576 C 16.97 g/m*3 23.89 C 1.68507 km/h
Sensor: Nr:Datum:Temp:Abs-Feuchte:Windchill:Wind:
Aussen-T/F 2801 19-06-2013 00:00:00 24.9691 C 18.47 g/m*3 24.97 C 2.67118 km/h
2802 20-06-2013 00:00:00 21.63299 C 15.9 g/m*3 21.63 C 5.68993 km/h
2803 21-06-2013 00:00:00 17.72778 C 12.04 g/m*3 17.73 C 8.48299 km/h
2804 22-06-2013 00:00:00 18.08576 C 11.57 g/m*3 18.09 C 8.33889 km/h
2805 23-06-2013 00:00:00 16.03403 C 10.59 g/m*3 16.03 C 10.375 km/h
2806 24-06-2013 00:00:00 14.4184 C 9.99 g/m*3 14.42 C 5.46979 km/h
2807 25-06-2013 00:00:00 13.24861 C 9.35 g/m*3 13.25 C 6.19236 km/h
2808 26-06-2013 00:00:00 12.21597 C 8.52 g/m*3 12.22 C 3.56667 km/h
2809 27-06-2013 00:00:00 12.77257 C 9.57 g/m*3 12.77 C 2.62292 km/h
2810 28-06-2013 00:00:00 12.51979 C 9.86 g/m*3 12.52 C 1.45417 km/h
2811 29-06-2013 00:00:00 15.31319 C 10.91 g/m*3 15.31 C 7.98785 km/h
2812 30-06-2013 00:00:00 14.36458 C 9.62 g/m*3 14.36 C 3.13125 km/h
2813 01-07-2013 00:00:00 18.46319 C 11.82 g/m*3 18.46 C 6.21563 km/h
2814 02-07-2013 00:00:00 18.88542 C 12.37 g/m*3 18.89 C 4.67674 km/h
2815 03-07-2013 00:00:00 17.18993 C 13.62 g/m*3 17.19 C 2.34757 km/h
2816 04-07-2013 00:00:00 18.03542 C 13.46 g/m*3 18.04 C 2.06667 km/h
2817 05-07-2013 00:00:00 19.17361 C 13.32 g/m*3 19.17 C 3.22257 km/h
2818 06-07-2013 00:00:00 19.30833 C 13.5 g/m*3 19.31 C 2.03646 km/h
2819 07-07-2013 00:00:00 20.55243 C 13.3 g/m*3 20.55 C 2.6066 km/h
2820 08-07-2013 00:00:00 20.53924 C 12.83 g/m*3 20.54 C 3.18889 km/h
2821 09-07-2013 00:00:00 20.80694 C 13.34 g/m*3 20.81 C 2.50417 km/h
2822 10-07-2013 00:00:00 20.12292 C 12.59 g/m*3 20.12 C 6.32708 km/h
2823 11-07-2013 00:00:00 17.10417 C 10.11 g/m*3 17.1 C 7.77361 km/h
2824 12-07-2013 00:00:00 16.90868 C 10.6 g/m*3 16.91 C 4.06806 km/h
2825 13-07-2013 00:00:00 17.26424 C 10.92 g/m*3 17.26 C 4.13056 km/h
Sensor: Nr:Datum:Temp:Abs-Feuchte:Windchill:Wind:
Aussen-T/F 2826 14-07-2013 00:00:00 18.30139 C 11.62 g/m*3 18.3 C 4.51667 km/h
2827 15-07-2013 00:00:00 18.85486 C 12.17 g/m*3 18.85 C 2.14375 km/h
2828 16-07-2013 00:00:00 20.18438 C 12.59 g/m*3 20.18 C 2.36528 km/h
2829 17-07-2013 00:00:00 20.29896 C 13.11 g/m*3 20.3 C 1.67361 km/h
2830 18-07-2013 00:00:00 21.84757 C 13.41 g/m*3 21.85 C 3.04896 km/h
2831 19-07-2013 00:00:00 22.12674 C 13.12 g/m*3 22.13 C 4.28438 km/h
2832 20-07-2013 00:00:00 21.31076 C 12.97 g/m*3 21.31 C 3.21632 km/h
2833 21-07-2013 00:00:00 22.30521 C 13.63 g/m*3 22.31 C 2.53507 km/h
2834 22-07-2013 00:00:00 22.41562 C 13.99 g/m*3 22.42 C 1.1625 km/h
2835 23-07-2013 00:00:00 21.37396 C 16.19 g/m*3 21.37 C 1.17778 km/h
2836 24-07-2013 00:00:00 21.35972 C 14.98 g/m*3 21.36 C 2.76215 km/h
2837 25-07-2013 00:00:00 20.88542 C 15.71 g/m*3 20.89 C 2.75972 km/h
2838 26-07-2013 00:00:00 21.25729 C 17.68 g/m*3 21.26 C 0.35069 km/h
2839 27-07-2013 00:00:00 23.54236 C 17.99 g/m*3 23.54 C 1.32257 km/h
2840 28-07-2013 00:00:00 21.69965 C 15.72 g/m*3 21.7 C 2.70243 km/h
2841 29-07-2013 00:00:00 19.41007 C 14.76 g/m*3 19.41 C 2.68819 km/h
2842 30-07-2013 00:00:00 18.99028 C 12.87 g/m*3 18.99 C 7.63472 km/h
2843 31-07-2013 00:00:00 20.83715 C 13.69 g/m*3 20.84 C 6.94861 km/h
2844 01-08-2013 00:00:00 21.89653 C 14.48 g/m*3 21.9 C 2.16528 km/h
2845 02-08-2013 00:00:00 23.37049 C 15.2 g/m*3 23.37 C 1.39965 km/h
2846 03-08-2013 00:00:00 21.1934 C 15.86 g/m*3 21.19 C 2.96806 km/h
2847 04-08-2013 00:00:00 19.79549 C 13.33 g/m*3 19.8 C 1.96215 km/h
2848 05-08-2013 00:00:00 20.42639 C 13.99 g/m*3 20.43 C 1.52743 km/h
2849 06-08-2013 00:00:00 19.98646 C 15.18 g/m*3 19.99 C 1.09167 km/h
2850 07-08-2013 00:00:00 18.91562 C 14.85 g/m*3 18.92 C 1.53299 km/h
Sensor: Nr:Datum:Temp:Abs-Feuchte:Windchill:Wind:
Aussen-T/F 2851 08-08-2013 00:00:00 16.92118 C 12.43 g/m*3 16.92 C 3.85278 km/h
2852 09-08-2013 00:00:00 16.41597 C 12.03 g/m*3 16.42 C 1.0059 km/h
2853 10-08-2013 00:00:00 18.10764 C 11.49 g/m*3 18.11 C 5.9184 km/h
2854 11-08-2013 00:00:00 16.80278 C 9.89 g/m*3 16.8 C 1.95069 km/h
2855 12-08-2013 00:00:00 15.88229 C 11.31 g/m*3 15.88 C 2.28889 km/h
2856 13-08-2013 00:00:00 15.61319 C 10.88 g/m*3 15.61 C 3.40556 km/h
2857 14-08-2013 00:00:00 14.4559 C 10.12 g/m*3 14.46 C 1.75868 km/h
2858 15-08-2013 00:00:00 16.30035 C 10.81 g/m*3 16.3 C 2.31493 km/h
2859 16-08-2013 00:00:00 17.96319 C 11.55 g/m*3 17.96 C 1.35556 km/h
2860 17-08-2013 00:00:00 20.47965 C 12.53 g/m*3 20.48 C 4.24526 km/h
2861 18-08-2013 00:00:00 19.29614 C 13.67 g/m*3 19.3 C 3.05719 km/h
2862 19-08-2013 00:00:00 17.75764 C 12.15 g/m*3 17.76 C 5.06181 km/h
2863 20-08-2013 00:00:00 14.96458 C 10.19 g/m*3 14.96 C 2.29271 km/h
2864 21-08-2013 00:00:00 15.16285 C 10.59 g/m*3 15.16 C 1.31319 km/h
2865 22-08-2013 00:00:00 16.33576 C 11.62 g/m*3 16.34 C 0.65174 km/h
2866 23-08-2013 00:00:00 18.61667 C 12.23 g/m*3 18.62 C 1.88576 km/h
2867 24-08-2013 00:00:00 16.10208 C 12.3 g/m*3 16.1 C 0.76215 km/h
2868 25-08-2013 00:00:00 16.06806 C 13.03 g/m*3 16.07 C 1.65278 km/h
2869 26-08-2013 00:00:00 15.16806 C 12.51 g/m*3 15.17 C 0.49653 km/h
2870 27-08-2013 00:00:00 15.88472 C 12.17 g/m*3 15.88 C 0.52326 km/h
2871 28-08-2013 00:00:00 15.65312 C 11.67 g/m*3 15.65 C 0.80104 km/h
2872 29-08-2013 00:00:00 14.74062 C 11.39 g/m*3 14.74 C 0.5566 km/h
2873 30-08-2013 00:00:00 15.73924 C 11.78 g/m*3 15.74 C 0.6184 km/h
2874 31-08-2013 00:00:00 16.33229 C 12 g/m*3 16.33 C 2.64583 km/h
2875 01-09-2013 00:00:00 14.50938 C 9.15 g/m*3 14.51 C 3.89063 km/h
Sensor: Nr:Datum:Temp:Abs-Feuchte:Windchill:Wind:
Aussen-T/F 2876 02-09-2013 00:00:00 17.48924 C 10.42 g/m*3 17.49 C 5.84549 km/h
2877 03-09-2013 00:00:00 18.08299 C 12.45 g/m*3 18.08 C 2.6309 km/h
2878 04-09-2013 00:00:00 17.74583 C 12.89 g/m*3 17.75 C 1.16979 km/h
2879 05-09-2013 00:00:00 18.47349 C 13.35 g/m*3 18.47 C 2.29116 km/h
2880 06-09-2013 00:00:00 22.68615 C 15 g/m*3 22.69 C 1.85333 km/h
2881 07-09-2013 00:00:00 18.36354 C 14.36 g/m*3 18.36 C 1.44931 km/h
2882 08-09-2013 00:00:00 14.78542 C 11.89 g/m*3 14.79 C 3.23819 km/h
2883 09-09-2013 00:00:00 14.16944 C 10.6 g/m*3 14.17 C 3.4941 km/h
2884 10-09-2013 00:00:00 13.35073 C 9.56 g/m*3 13.35 C 7.72226 km/h
2885 11-09-2013 00:00:00 13.00912 C 9.96 g/m*3 13.01 C 7.57591 km/h
2886 12-09-2013 00:00:00 13.53472 C 10.87 g/m*3 13.53 C 2.41944 km/h
2887 13-09-2013 00:00:00 14.67363 C 11.11 g/m*3 14.67 C 3.42674 km/h
2888 14-09-2013 00:00:00 15.8191 C 12.55 g/m*3 15.82 C 2.43368 km/h
2889 15-09-2013 00:00:00 14.41667 C 10.8 g/m*3 14.42 C 2.04618 km/h
2890 16-09-2013 00:00:00 13.23333 C 9.36 g/m*3 13.23 C 8.13646 km/h
2891 17-09-2013 00:00:00 10.58958 C 8.06 g/m*3 9.56 C 8.7316 km/h
2892 18-09-2013 00:00:00 12.57951 C 10.26 g/m*3 12.58 C 3.60243 km/h
2893 19-09-2013 00:00:00 11.89444 C 9.17 g/m*3 11.89 C 4.18056 km/h
2894 20-09-2013 00:00:00 13.91806 C 10.29 g/m*3 13.92 C 6.2375 km/h
2895 21-09-2013 00:00:00 12.20868 C 9.83 g/m*3 12.21 C 2.10417 km/h
2896 22-09-2013 00:00:00 13.16156 C 10.46 g/m*3 13.16 C 0.93941 km/h
2897 23-09-2013 00:00:00 15.46493 C 11.75 g/m*3 15.46 C 1.45104 km/h
2898 24-09-2013 00:00:00 12.34792 C 10.31 g/m*3 12.35 C 0.75 km/h
2899 25-09-2013 00:00:00 14.08646 C 11.46 g/m*3 14.09 C 0.52847 km/h
2900 26-09-2013 00:00:00 14.58924 C 11.4 g/m*3 14.59 C 2.53715 km/h
Sensor: Nr:Datum:Temp:Abs-Feuchte:Windchill:Wind:
Aussen-T/F 2901 27-09-2013 00:00:00 11.25312 C 9.06 g/m*3 11.25 C 1.41875 km/h
2902 28-09-2013 00:00:00 10.575 C 8.62 g/m*3 10.58 C 1.40857 km/h
2903 29-09-2013 00:00:00 11.89028 C 9.01 g/m*3 11.89 C 2.28715 km/h
2904 30-09-2013 00:00:00 9.80833 C 8.09 g/m*3 9.81 C 1.37847 km/h
2905 01-10-2013 00:00:00 11.38264 C 8.26 g/m*3 11.38 C 3.07465 km/h
2906 02-10-2013 00:00:00 9.01493 C 7.25 g/m*3 9.01 C 1.96285 km/h
2907 03-10-2013 00:00:00 8.84479 C 7.07 g/m*3 8.84 C 1.59028 km/h
2908 04-10-2013 00:00:00 11.33993 C 9.37 g/m*3 11.34 C 0.21111 km/h
2909 05-10-2013 00:00:00 12.69583 C 10.86 g/m*3 12.7 C 0.31181 km/h
2910 06-10-2013 00:00:00 13.60313 C 10.91 g/m*3 13.6 C 2.27882 km/h
2911 07-10-2013 00:00:00 13.21667 C 10.88 g/m*3 13.22 C 0.26667 km/h
2912 08-10-2013 00:00:00 12.77764 C 10.78 g/m*3 12.78 C 0 km/h
2913 09-10-2013 00:00:00 13.86667 C 10.96 g/m*3 13.87 C 2.74792 km/h
2914 10-10-2013 00:00:00 8.4625 C 8.06 g/m*3 8.46 C 2.30625 km/h
2915 11-10-2013 00:00:00 6.82419 C 7.44 g/m*3 6.82 C 0.21949 km/h
2916 12-10-2013 00:00:00 6.31215 C 7.05 g/m*3 6.31 C 0.87882 km/h
2917 13-10-2013 00:00:00 7.69167 C 7.3 g/m*3 7.69 C 1.92431 km/h
2918 14-10-2013 00:00:00 9.89091 C 8.61 g/m*3 9.89 C 1.40873 km/h
2919 15-10-2013 00:00:00 10.43275 C 9.1 g/m*3 10.43 C 2.93873 km/h
2920 16-10-2013 00:00:00 10.04523 C 9.04 g/m*3 10.05 C 0.72403 km/h
2921 17-10-2013 00:00:00 12.70972 C 9.88 g/m*3 12.71 C 9.25174 km/h
2922 18-10-2013 00:00:00 11.80868 C 10.08 g/m*3 11.81 C 0.51215 km/h
2923 19-10-2013 00:00:00 11.72702 C 10 g/m*3 11.73 C 0.73649 km/h
2924 20-10-2013 00:00:00 15.28507 C 12.24 g/m*3 15.29 C 1.55521 km/h
2925 21-10-2013 00:00:00 15.075 C 11.59 g/m*3 15.08 C 2.91146 km/h
Sensor: Nr:Datum:Temp:Abs-Feuchte:Windchill:Wind:
Aussen-T/F 2926 22-10-2013 00:00:00 15.7614 C 12.32 g/m*3 15.76 C 1.24526 km/h
2927 23-10-2013 00:00:00 15.81476 C 12.49 g/m*3 15.81 C 2.65055 km/h
2928 24-10-2013 00:00:00 13.67431 C 11.29 g/m*3 13.67 C 0.99618 km/h
2929 25-10-2013 00:00:00 13.01701 C 11 g/m*3 13.02 C 0.45 km/h
2930 26-10-2013 00:00:00 16.40963 C 13.29 g/m*3 16.41 C 1.84704 km/h
2931 27-10-2013 00:00:00 14.94896 C 10.73 g/m*3 14.95 C 10.93333 km/h
2932 28-10-2013 00:00:00 15.40962 C 10.27 g/m*3 15.41 C 14.48615 km/h
2933 29-10-2013 00:00:00 11.12569 C 7.82 g/m*3 11.13 C 8.91462 km/h
2934 30-10-2013 00:00:00 7.81825 C 7.08 g/m*3 7.82 C 4.29333 km/h
2935 31-10-2013 00:00:00 5.27708 C 6.53 g/m*3 5.28 C 1.08333 km/h
2936 01-11-2013 00:00:00 9.4316 C 8.11 g/m*3 9.43 C 0.86771 km/h
2937 02-11-2013 00:00:00 12.79889 C 10.13 g/m*3 12.8 C 7.44059 km/h
2938 03-11-2013 00:00:00 9.93611 C 7.83 g/m*3 8.44 C 10.69653 km/h
2939 04-11-2013 00:00:00 9.80526 C 8.08 g/m*3 8.5 C 9.43228 km/h
2940 05-11-2013 00:00:00 6.72153 C 6.66 g/m*3 5.55 C 6.49792 km/h
2941 06-11-2013 00:00:00 10.70504 C 8.72 g/m*3 10.03 C 7.0759 km/h
2942 07-11-2013 00:00:00 15.04132 C 10.87 g/m*3 15.04 C 15.81458 km/h
2943 08-11-2013 00:00:00 11.92093 C 9.87 g/m*3 11.92 C 4.78744 km/h
2944 09-11-2013 00:00:00 9.48785 C 7.37 g/m*3 8.08 C 9.67049 km/h
2945 10-11-2013 00:00:00 6.68715 C 6.91 g/m*3 6.69 C 4.28229 km/h
2946 11-11-2013 00:00:00 4.00764 C 6.13 g/m*3 4.01 C 2.81111 km/h
2947 12-11-2013 00:00:00 4.41146 C 6.13 g/m*3 4.41 C 0.99514 km/h
2948 13-11-2013 00:00:00 6.28491 C 6.92 g/m*3 6.28 C 1.42316 km/h
2949 14-11-2013 00:00:00 3.2816 C 5.76 g/m*3 3.28 C 2.33993 km/h
2950 15-11-2013 00:00:00 4.99201 C 6.15 g/m*3 4.99 C 1.86563 km/h
Sensor: Nr:Datum:Temp:Abs-Feuchte:Windchill:Wind:
Aussen-T/F 2951 16-11-2013 00:00:00 3.05 C 5.48 g/m*3 3.05 C 1.77361 km/h
2952 17-11-2013 00:00:00 3.2184 C 5.71 g/m*3 3.22 C 1.06771 km/h
2953 18-11-2013 00:00:00 5.38287 C 6.56 g/m*3 5.38 C 0.56813 km/h
2954 19-11-2013 00:00:00 6.22 C 6.74 g/m*3 6.22 C 1.29471 km/h
2955 20-11-2013 00:00:00 3.96643 C 5.82 g/m*3 3.97 C 3.58671 km/h
2956 21-11-2013 00:00:00 4.05603 C 5.71 g/m*3 4.06 C 2.84009 km/h
2957 22-11-2013 00:00:00 4.42 C 5.66 g/m*3 2.31 C 8.53545 km/h
2958 23-11-2013 00:00:00 7.03092 C 6.75 g/m*3 5.58 C 7.75921 km/h
2959 24-11-2013 00:00:00 5.71435 C 6.3 g/m*3 4.64 C 5.71696 km/h
2960 25-11-2013 00:00:00 2.65439 C 5.42 g/m*3 2.65 C 3.61404 km/h
2961 26-11-2013 00:00:00 0.53125 C 4.75 g/m*3 0.53 C 1.94514 km/h
2962 27-11-2013 00:00:00 0.63854 C 4.68 g/m*3 0.64 C 2.05833 km/h
2963 28-11-2013 00:00:00 3.45709 C 5.78 g/m*3 3.46 C 2.96716 km/h
2964 29-11-2013 00:00:00 5.6434 C 6.49 g/m*3 4.28 C 6.57743 km/h
2965 30-11-2013 00:00:00 4.32604 C 6.09 g/m*3 4.33 C 2.40104 km/h
2966 01-12-2013 00:00:00 5.01254 C 6.44 g/m*3 5.01 C 1.523 km/h
2967 02-12-2013 00:00:00 4.76458 C 6.22 g/m*3 4.76 C 1.37917 km/h
2968 03-12-2013 00:00:00 -0.45729 C 4.56 g/m*3 -0.46 C 0.1 km/h
2969 04-12-2013 00:00:00 3.27917 C 5.57 g/m*3 0.98 C 8.47882 km/h
2970 05-12-2013 00:00:00 3.93475 C 5.57 g/m*3 0.58 C 14.12518 km/h
2971 06-12-2013 00:00:00 3.76181 C 4.69 g/m*3 0.48 C 13.48472 km/h
2972 07-12-2013 00:00:00 4.38715 C 5.6 g/m*3 2.16 C 9.01424 km/h
2973 08-12-2013 00:00:00 6.92188 C 6.74 g/m*3 4.84 C 10.57882 km/h
2974 09-12-2013 00:00:00 6.42222 C 6.28 g/m*3 4.68 C 8.52708 km/h
2975 10-12-2013 00:00:00 3.24896 C 5.8 g/m*3 3.25 C 1.09479 km/h
Sensor: Nr:Datum:Temp:Abs-Feuchte:Windchill:Wind:
Aussen-T/F 2976 11-12-2013 00:00:00 3.72465 C 6.03 g/m*3 3.72 C 2.77604 km/h
2977 12-12-2013 00:00:00 4.08993 C 5.9 g/m*3 4.09 C 2.24549 km/h
2978 13-12-2013 00:00:00 2.65694 C 5.26 g/m*3 1.37 C 5.13403 km/h
2979 14-12-2013 00:00:00 3.58986 C 5.73 g/m*3 1.76 C 7.02797 km/h
2980 15-12-2013 00:00:00 4.99688 C 5.84 g/m*3 3.97 C 5.28368 km/h
2981 16-12-2013 00:00:00 1.49676 C 5.08 g/m*3 1.5 C 0.97266 km/h
2982 17-12-2013 00:00:00 1.25451 C 5.04 g/m*3 1.25 C 0.84444 km/h
2983 18-12-2013 00:00:00 4.19965 C 6.07 g/m*3 4.2 C 2.15417 km/h
2984 19-12-2013 00:00:00 8.13715 C 7.36 g/m*3 7.35 C 5.92014 km/h
2985 20-12-2013 00:00:00 4.38403 C 6.02 g/m*3 4.38 C 3.57188 km/h
2986 21-12-2013 00:00:00 4.81354 C 5.49 g/m*3 4.81 C 3.15104 km/h
2987 22-12-2013 00:00:00 8.81493 C 7.21 g/m*3 6.93 C 11.70313 km/h
2988 23-12-2013 00:00:00 8.42341 C 7.27 g/m*3 7.4 C 6.9496 km/h
2989 24-12-2013 00:00:00 11.57579 C 7.64 g/m*3 11.58 C 8.18772 km/h
2990 25-12-2013 00:00:00 8.41944 C 7.85 g/m*3 8.42 C 4.39444 km/h
2991 26-12-2013 00:00:00 6.06579 C 6.91 g/m*3 6.07 C 1.59699 km/h
2992 27-12-2013 00:00:00 6.6549 C 6.45 g/m*3 5.63 C 5.98392 km/h
2993 28-12-2013 00:00:00 9.14444 C 8.02 g/m*3 9.14 C 4.03472 km/h
2994 29-12-2013 00:00:00 4.76463 C 6.29 g/m*3 4.76 C 4.79268 km/h
2995 30-12-2013 00:00:00 4.17107 C 5.77 g/m*3 4.17 C 2.72893 km/h
2996 31-12-2013 00:00:00 2.91045 C 5.29 g/m*3 2.91 C 3.21418 km/h
2997 01-01-2014 00:00:00 6.46912 C 6.47 g/m*3 6.47 C 3.35754 km/h
2998 02-01-2014 00:00:00 8.31947 C 7.47 g/m*3 7.64 C 5.65573 km/h
2999 03-01-2014 00:00:00 8.74861 C 7.51 g/m*3 7.72 C 7.20556 km/h
3000 04-01-2014 00:00:00 7.47049 C 7.08 g/m*3 7.47 C 3.99826 km/h
Sensor: Nr:Datum:Temp:Abs-Feuchte:Windchill:Wind:
Aussen-T/F 3001 05-01-2014 00:00:00 6.12632 C 6.69 g/m*3 6.13 C 4.07456 km/h
3002 06-01-2014 00:00:00 8.33819 C 7.53 g/m*3 8.34 C 3.18299 km/h
3003 07-01-2014 00:00:00 10.72882 C 8.44 g/m*3 10.36 C 5.81111 km/h
3004 08-01-2014 00:00:00 10.3965 C 8.37 g/m*3 9.96 C 5.86887 km/h
3005 09-01-2014 00:00:00 9.27876 C 7.72 g/m*3 7.97 C 8.92394 km/h
3006 10-01-2014 00:00:00 5.59896 C 6.15 g/m*3 4.44 C 5.90833 km/h
3007 11-01-2014 00:00:00 3.80382 C 5.85 g/m*3 3.8 C 3.58785 km/h
3008 12-01-2014 00:00:00 0.34545 C 4.82 g/m*3 0.35 C 3.49273 km/h
3009 13-01-2014 00:00:00 3.73194 C 5.99 g/m*3 3.73 C 1.58333 km/h
3010 14-01-2014 00:00:00 5.06036 C 6.44 g/m*3 5.06 C 2.20786 km/h
3011 15-01-2014 00:00:00 4.1934 C 5.92 g/m*3 4.19 C 2.33889 km/h
3012 16-01-2014 00:00:00 6.5375 C 7.02 g/m*3 6.54 C 1.6691 km/h
3013 17-01-2014 00:00:00 6.75 C 7.07 g/m*3 6.75 C 2.30069 km/h
3014 18-01-2014 00:00:00 4.5321 C 5.96 g/m*3 4.53 C 2.73542 km/h
3015 19-01-2014 00:00:00 4.621 C 6.1 g/m*3 4.62 C 1.49075 km/h
3016 20-01-2014 00:00:00 4.32836 C 6.15 g/m*3 4.33 C 0.99142 km/h
3017 21-01-2014 00:00:00 3.49792 C 5.76 g/m*3 3.5 C 2.23125 km/h
3018 22-01-2014 00:00:00 3.18571 C 5.74 g/m*3 3.19 C 1.40879 km/h
3019 23-01-2014 00:00:00 3.72927 C 5.76 g/m*3 3.73 C 3.97378 km/h
3020 24-01-2014 00:00:00 3.90268 C 5.91 g/m*3 3.9 C 3.03973 km/h
3021 25-01-2014 00:00:00 2.8165 C 5.57 g/m*3 2.82 C 2.214 km/h
3022 26-01-2014 00:00:00 5.11851 C 5.71 g/m*3 2.72 C 10.35303 km/h
3023 27-01-2014 00:00:00 4.4199 C 5.7 g/m*3 3 C 6.15707 km/h
3024 28-01-2014 00:00:00 2.36869 C 5.06 g/m*3 2.37 C 3.98485 km/h
3025 29-01-2014 00:00:00 1.54036 C 4.62 g/m*3 1.54 C 2.99337 km/h
Sensor: Nr:Datum:Temp:Abs-Feuchte:Windchill:Wind:
Aussen-T/F 3026 30-01-2014 00:00:00 1.98611 C 4.67 g/m*3 1.99 C 1.79514 km/h
3027 31-01-2014 00:00:00 1.03819 C 4.74 g/m*3 1.04 C 1.72639 km/h
3028 01-02-2014 00:00:00 4.63819 C 5.96 g/m*3 4.64 C 4.17222 km/h
3029 02-02-2014 00:00:00 4.14306 C 5.78 g/m*3 4.14 C 2.70799 km/h
3030 03-02-2014 00:00:00 1.00938 C 4.96 g/m*3 1.01 C 0.88507 km/h
3031 04-02-2014 00:00:00 4.28785 C 5.81 g/m*3 4.29 C 3.05972 km/h
3032 05-02-2014 00:00:00 4.74236 C 5.99 g/m*3 4.74 C 4.65208 km/h
3033 06-02-2014 00:00:00 8.42431 C 6.51 g/m*3 6.9 C 9.20139 km/h
3034 07-02-2014 00:00:00 8.79132 C 6.82 g/m*3 6.52 C 14.24271 km/h
3035 08-02-2014 00:00:00 6.5309 C 6.29 g/m*3 5.42 C 6.21354 km/h
3036 09-02-2014 00:00:00 5.34375 C 5.63 g/m*3 3.04 C 10.14965 km/h
3037 10-02-2014 00:00:00 3.38819 C 5.32 g/m*3 3.39 C 3.02986 km/h
3038 11-02-2014 00:00:00 5.41354 C 5.75 g/m*3 3.82 C 7.2441 km/h
3039 12-02-2014 00:00:00 5.44028 C 5.68 g/m*3 3.83 C 7.31285 km/h
3040 13-02-2014 00:00:00 5.71771 C 6.3 g/m*3 4.48 C 6.20938 km/h
3041 14-02-2014 00:00:00 5.64722 C 6.08 g/m*3 4.57 C 5.69097 km/h
3042 15-02-2014 00:00:00 9.71993 C 7.32 g/m*3 7.97 C 12.06259 km/h
3043 16-02-2014 00:00:00 7.36493 C 6.39 g/m*3 5.3 C 10.96667 km/h
3044 17-02-2014 00:00:00 3.59861 C 5.68 g/m*3 3.6 C 3.35451 km/h
3045 18-02-2014 00:00:00 3.38715 C 5.74 g/m*3 3.39 C 0.58889 km/h
3046 19-02-2014 00:00:00 7.825 C 6.95 g/m*3 6.94 C 6.10556 km/h
3047 20-02-2014 00:00:00 8.68958 C 7.14 g/m*3 8.69 C 4.11389 km/h
3048 21-02-2014 00:00:00 7.64062 C 6.83 g/m*3 6.12 C 8.5 km/h
3049 22-02-2014 00:00:00 4.99861 C 5.92 g/m*3 5 C 4.85625 km/h
3050 23-02-2014 00:00:00 5.94204 C 6.05 g/m*3 5.94 C 3.95837 km/h
Sensor: Nr:Datum:Temp:Abs-Feuchte:Windchill:Wind:
Aussen-T/F 3051 24-02-2014 00:00:00 5.86389 C 5.82 g/m*3 5.86 C 3.95417 km/h
3052 25-02-2014 00:00:00 6.68681 C 6.24 g/m*3 6.69 C 2.88125 km/h
3053 26-02-2014 00:00:00 8.58182 C 7 g/m*3 8.58 C 3.96073 km/h
3054 27-02-2014 00:00:00 5.86275 C 6.06 g/m*3 5.86 C 4.0698 km/h
3055 28-02-2014 00:00:00 6.2146 C 6.46 g/m*3 6.21 C 4.10803 km/h
3056 01-03-2014 00:00:00 5.44375 C 6.19 g/m*3 5.44 C 2.29063 km/h
3057 02-03-2014 00:00:00 3.55069 C 5.4 g/m*3 3.55 C 3.54792 km/h
3058 03-03-2014 00:00:00 5.27743 C 6 g/m*3 5.28 C 4.38819 km/h
3059 04-03-2014 00:00:00 4.21701 C 5.59 g/m*3 4.22 C 1.77361 km/h
3060 05-03-2014 00:00:00 4.68235 C 5.76 g/m*3 4.68 C 3.45255 km/h
3061 06-03-2014 00:00:00 3.87951 C 5.64 g/m*3 3.88 C 2.34132 km/h
3062 07-03-2014 00:00:00 6.23037 C 5.95 g/m*3 6.23 C 2.73598 km/h
3063 08-03-2014 00:00:00 7.3847 C 6.36 g/m*3 7.38 C 2.94128 km/h
3064 09-03-2014 00:00:00 7.27263 C 6.03 g/m*3 7.27 C 1.91719 km/h
3065 10-03-2014 00:00:00 7.44444 C 6.02 g/m*3 7.44 C 1.56215 km/h
3066 11-03-2014 00:00:00 8.4184 C 6.68 g/m*3 8.42 C 2.50833 km/h
3067 12-03-2014 00:00:00 9.07812 C 6.57 g/m*3 9.08 C 3.14514 km/h
3068 13-03-2014 00:00:00 8.16007 C 6.13 g/m*3 8.16 C 1.86285 km/h
3069 14-03-2014 00:00:00 7.91944 C 6.32 g/m*3 7.92 C 1.97257 km/h
3070 15-03-2014 00:00:00 8.97326 C 6.8 g/m*3 7.55 C 9.24688 km/h
3071 16-03-2014 00:00:00 11.50486 C 7.98 g/m*3 11.5 C 10.7066 km/h
3072 17-03-2014 00:00:00 10.27882 C 7.8 g/m*3 9.64 C 6.60521 km/h
3073 18-03-2014 00:00:00 9.4066 C 7.54 g/m*3 8.34 C 7.87396 km/h
3074 19-03-2014 00:00:00 12.2875 C 7.65 g/m*3 12.29 C 12.05278 km/h
3075 20-03-2014 00:00:00 12.49333 C 7.39 g/m*3 12.49 C 4.57649 km/h
Sensor: Nr:Datum:Temp:Abs-Feuchte:Windchill:Wind:
Aussen-T/F 3076 21-03-2014 00:00:00 13.1375 C 7.61 g/m*3 13.14 C 12.57292 km/h
3077 22-03-2014 00:00:00 8.65208 C 7.16 g/m*3 8.02 C 5.64896 km/h
3078 23-03-2014 00:00:00 6.03507 C 5.93 g/m*3 4.78 C 6.43368 km/h
3079 24-03-2014 00:00:00 5.42632 C 5.64 g/m*3 5.43 C 3.85123 km/h
3080 25-03-2014 00:00:00 4.1625 C 5.3 g/m*3 4.16 C 3.18993 km/h
3081 26-03-2014 00:00:00 4.56076 C 5.2 g/m*3 4.56 C 2.72917 km/h
3082 27-03-2014 00:00:00 8.14604 C 6.15 g/m*3 7.52 C 5.39424 km/h
3083 28-03-2014 00:00:00 10.60972 C 6.49 g/m*3 10.21 C 5.86875 km/h
3084 29-03-2014 00:00:00 10.34963 C 6.78 g/m*3 10.35 C 4.26728 km/h
3085 30-03-2014 00:00:00 9.15619 C 6.78 g/m*3 9.16 C 1.20571 km/h
3086 31-03-2014 00:00:00 12.96562 C 7.46 g/m*3 12.97 C 2.47465 km/h
3087 01-04-2014 00:00:00 13.77519 C 8.06 g/m*3 13.78 C 1.80534 km/h
3088 02-04-2014 00:00:00 13.90458 C 8.27 g/m*3 13.9 C 3.20599 km/h
3089 03-04-2014 00:00:00 12.54324 C 8.55 g/m*3 12.54 C 1.61982 km/h
3090 04-04-2014 00:00:00 14.95971 C 9.58 g/m*3 14.96 C 3.16978 km/h
3091 05-04-2014 00:00:00 13.00531 C 9.79 g/m*3 13.01 C 5.39306 km/h
3092 06-04-2014 00:00:00 11.67782 C 8.68 g/m*3 11.68 C 3.62929 km/h
3093 07-04-2014 00:00:00 15.95041 C 10.25 g/m*3 15.95 C 3.93156 km/h
3094 08-04-2014 00:00:00 12.18521 C 7.24 g/m*3 12.19 C 11.97359 km/h
3095 09-04-2014 00:00:00 9.27426 C 6.81 g/m*3 8.78 C 5.50551 km/h
3096 10-04-2014 00:00:00 10.31543 C 7.39 g/m*3 10.32 C 4.19383 km/h
3097 11-04-2014 00:00:00 14.56849 C 9.05 g/m*3 14.57 C 5.96781 km/h
3098 12-04-2014 00:00:00 12.65368 C 7.87 g/m*3 12.65 C 4.22737 km/h
3099 13-04-2014 00:00:00 11.60669 C 7.39 g/m*3 11.61 C 4.19718 km/h
3100 14-04-2014 00:00:00 9.7593 C 6.59 g/m*3 8.1 C 11.48316 km/h
Sensor: Nr:Datum:Temp:Abs-Feuchte:Windchill:Wind:
Aussen-T/F 3101 15-04-2014 00:00:00 7.10171 C 5.76 g/m*3 5.67 C 7.72051 km/h
3102 16-04-2014 00:00:00 12.97192 C 5.6 g/m*3 12.97 C 7.55616 km/h
3103 17-04-2014 00:00:00 9.85313 C 5.89 g/m*3 9.85 C 3.16701 km/h
3104 18-04-2014 00:00:00 10.72049 C 6.38 g/m*3 9.49 C 10.00833 km/h
3105 19-04-2014 00:00:00 10.82049 C 7.12 g/m*3 10.39 C 6.11667 km/h
3106 20-04-2014 00:00:00 14.91825 C 9 g/m*3 14.92 C 4.86456 km/h
3107 21-04-2014 00:00:00 12.49479 C 8.57 g/m*3 12.49 C 3.51771 km/h
3108 22-04-2014 00:00:00 12.82847 C 9.61 g/m*3 12.83 C 3.55035 km/h
3109 23-04-2014 00:00:00 13.43958 C 9.46 g/m*3 13.44 C 1.6441 km/h
3110 24-04-2014 00:00:00 15.42535 C 10.4 g/m*3 15.43 C 2.21042 km/h
3111 25-04-2014 00:00:00 16.71562 C 10.55 g/m*3 16.72 C 3.36146 km/h
3112 26-04-2014 00:00:00 15.2 C 9.7 g/m*3 15.2 C 2.60104 km/h
3113 27-04-2014 00:00:00 13.07674 C 9.32 g/m*3 13.08 C 3.42431 km/h
3114 28-04-2014 00:00:00 12.80243 C 8.95 g/m*3 12.8 C 2.25833 km/h
3115 29-04-2014 00:00:00 13.43403 C 10.52 g/m*3 13.43 C 1.52569 km/h
3116 30-04-2014 00:00:00 14.53507 C 10.56 g/m*3 14.54 C 2.55104 km/h
3117 01-05-2014 00:00:00 14.73611 C 10.27 g/m*3 14.74 C 2.21319 km/h
3118 02-05-2014 00:00:00 11.71319 C 9.07 g/m*3 11.71 C 6.17083 km/h
3119 03-05-2014 00:00:00 10.92708 C 6.08 g/m*3 10.11 C 7.92431 km/h
3120 04-05-2014 00:00:00 9.61042 C 6.24 g/m*3 9.61 C 2.69861 km/h
3121 05-05-2014 00:00:00 12.60069 C 7.47 g/m*3 12.6 C 2.60382 km/h
3122 06-05-2014 00:00:00 13.72083 C 8.81 g/m*3 13.72 C 4.4684 km/h
3123 07-05-2014 00:00:00 13.05764 C 9.67 g/m*3 13.06 C 5.52396 km/h
3124 08-05-2014 00:00:00 12.32847 C 9.2 g/m*3 12.33 C 7.67813 km/h
3125 09-05-2014 00:00:00 15.33403 C 9.3 g/m*3 15.33 C 12.70556 km/h
Sensor: Nr:Datum:Temp:Abs-Feuchte:Windchill:Wind:
Aussen-T/F 3126 10-05-2014 00:00:00 12.40903 C 8.93 g/m*3 12.41 C 6.08507 km/h
3127 11-05-2014 00:00:00 11.45764 C 8.26 g/m*3 11.46 C 10.28576 km/h
3128 12-05-2014 00:00:00 11.1941 C 7.59 g/m*3 11.19 C 10.12257 km/h
3129 13-05-2014 00:00:00 10.30729 C 8.18 g/m*3 10.31 C 4.77569 km/h
3130 14-05-2014 00:00:00 10.63542 C 7.53 g/m*3 10.17 C 6.11493 km/h
3131 15-05-2014 00:00:00 10.00382 C 7.56 g/m*3 9.61 C 5.49063 km/h
3132 16-05-2014 00:00:00 13.25347 C 8.42 g/m*3 13.25 C 5.19688 km/h
3133 17-05-2014 00:00:00 14.22292 C 8.77 g/m*3 14.22 C 3.88333 km/h
3134 18-05-2014 00:00:00 15.4809 C 9.81 g/m*3 15.48 C 1.92535 km/h
3135 19-05-2014 00:00:00 17.57188 C 10.58 g/m*3 17.57 C 2.8941 km/h
3136 20-05-2014 00:00:00 19.46562 C 11.28 g/m*3 19.47 C 3.35313 km/h
3137 21-05-2014 00:00:00 20.29792 C 11.98 g/m*3 20.3 C 2.18715 km/h
3138 22-05-2014 00:00:00 20.21806 C 11.51 g/m*3 20.22 C 4.67361 km/h
3139 23-05-2014 00:00:00 15.52639 C 11.87 g/m*3 15.53 C 1.81319 km/h
3140 24-05-2014 00:00:00 14.72993 C 10.24 g/m*3 14.73 C 5.49754 km/h
3141 25-05-2014 00:00:00 15.25071 C 9.75 g/m*3 15.25 C 2.37411 km/h
3142 26-05-2014 00:00:00 16.8625 C 11.52 g/m*3 16.86 C 2.50868 km/h
3143 27-05-2014 00:00:00 15.19431 C 12.29 g/m*3 15.19 C 2.46682 km/h
3144 28-05-2014 00:00:00 14.58118 C 11.05 g/m*3 14.58 C 0.88824 km/h
3145 29-05-2014 00:00:00 13.44653 C 10.15 g/m*3 13.45 C 4.20903 km/h
3146 30-05-2014 00:00:00 13.2316 C 8.1 g/m*3 13.23 C 6.4316 km/h
3147 31-05-2014 00:00:00 13.40382 C 8.63 g/m*3 13.4 C 2.3309 km/h
3148 01-06-2014 00:00:00 15.49273 C 9.2 g/m*3 15.49 C 3.79127 km/h
3149 02-06-2014 00:00:00 15.88943 C 9.2 g/m*3 15.89 C 2.67439 km/h
3150 03-06-2014 00:00:00 15.78662 C 10.07 g/m*3 15.79 C 1.66056 km/h
Sensor: Nr:Datum:Temp:Abs-Feuchte:Windchill:Wind:
Aussen-T/F 3151 04-06-2014 00:00:00 14.95388 C 11.05 g/m*3 14.95 C 1.76849 km/h
3152 05-06-2014 00:00:00 14.55765 C 8.46 g/m*3 14.56 C 9.30569 km/h
3153 06-06-2014 00:00:00 17.20312 C 9.93 g/m*3 17.2 C 3.06146 km/h
3154 07-06-2014 00:00:00 20.77257 C 13.08 g/m*3 20.77 C 1.46146 km/h
3155 08-06-2014 00:00:00 24.09514 C 15.47 g/m*3 24.1 C 2.65521 km/h
3156 09-06-2014 00:00:00 25.74583 C 16.79 g/m*3 25.75 C 4.57083 km/h
3157 10-06-2014 00:00:00 23.66632 C 15.08 g/m*3 23.67 C 3.61215 km/h
3158 11-06-2014 00:00:00 20.10803 C 14.14 g/m*3 20.11 C 5.28102 km/h
3159 12-06-2014 00:00:00 19.97431 C 11.47 g/m*3 19.97 C 4.63438 km/h
3160 13-06-2014 00:00:00 18.37014 C 10.7 g/m*3 18.37 C 4.99757 km/h
3161 14-06-2014 00:00:00 17.27465 C 9.64 g/m*3 17.27 C 7.26875 km/h
3162 15-06-2014 00:00:00 16.86944 C 9.65 g/m*3 16.87 C 5.57049 km/h
3163 16-06-2014 00:00:00 15.61944 C 9.95 g/m*3 15.62 C 6.2309 km/h
3164 17-06-2014 00:00:00 17.41354 C 9.92 g/m*3 17.41 C 6.95347 km/h